[[{"header":{"parameterUnit":"m.s-1","parameterCategory":1,"la1":30.6,"la2":29.2853,"lo1":-89.7004,"lo2":-87.6739,"dy":0.0162,"dx":0.0183,"nx":112,"ny":82,"refTime":"2024-05-15T06:00:00:Z","depth":0,"parameterNumber":2,"parameterNumberName":"U-component_of_WINDS"},"data":[0.0,0.0,0.0,0.0,0.0,0.0,0.0,0.0,0.0,0.0,0.0,0.0,0.0,0.0,0.0,0.0,0.0,0.0,0.0,0.0,0.0,0.0,0.0,0.0,0.0,0.0,0.0,0.0,0.0,0.0,0.0,0.0,0.0,0.0,0.0,0.0,0.0,0.0,0.0,0.0,0.0,0.0,0.0,0.0,0.0,0.0,0.0,0.0,0.0,0.0,0.0,0.0,0.0,0.0,0.0,0.0,0.0,0.0,0.0,0.0,0.0,0.0,0.0,0.0,0.0,0.0,0.0,0.0,0.0,0.0,0.0,0.0,0.0,0.0,0.0,0.0,0.0,0.0,0.0,0.0,0.0,0.0,0.0,0.0,0.0,0.0,0.0,0.0,0.0,0.0,-3.2259,-3.6827,-4.3001,-4.6177,-4.4549,-4.3325,-3.9481,-3.2094,0.0,0.0,0.0,0.0,0.0,0.0,0.0,0.0,0.0,0.0,0.0,0.0,0.0,0.0,0.0,0.0,0.0,0.0,0.0,0.0,0.0,0.0,0.0,0.0,0.0,0.0,0.0,0.0,0.0,0.0,0.0,0.0,0.0,0.0,0.0,0.0,0.0,0.0,0.0,0.0,0.0,0.0,0.0,0.0,0.0,0.0,0.0,0.0,0.0,0.0,0.0,0.0,0.0,0.0,0.0,0.0,0.0,0.0,0.0,0.0,0.0,0.0,0.0,0.0,0.0,0.0,0.0,0.0,0.0,0.0,0.0,0.0,0.0,0.0,0.0,0.0,0.0,0.0,0.0,0.0,0.0,0.0,0.0,0.0,0.0,0.0,0.0,0.0,0.0,0.0,0.0,0.0,0.0,0.0,0.0,0.0,0.0,0.0,0.0,0.0,0.0,0.0,0.0,0.0,-3.3294,-4.061,-4.4143,-4.5356,-4.38,-4.1644,-3.7797,-3.1743,0.0,0.0,0.0,0.0,0.0,0.0,0.0,0.0,0.0,0.0,0.0,0.0,0.0,0.0,0.0,0.0,0.0,0.0,0.0,0.0,0.0,0.0,0.0,0.0,0.0,0.0,0.0,0.0,0.0,0.0,0.0,0.0,0.0,0.0,0.0,0.0,0.0,0.0,0.0,0.0,0.0,0.0,0.0,0.0,0.0,0.0,0.0,0.0,0.0,0.0,0.0,0.0,0.0,0.0,0.0,0.0,0.0,0.0,0.0,0.0,0.0,0.0,0.0,0.0,0.0,0.0,0.0,0.0,0.0,0.0,0.0,0.0,0.0,0.0,0.0,0.0,0.0,0.0,0.0,0.0,0.0,0.0,0.0,0.0,0.0,0.0,0.0,0.0,0.0,0.0,0.0,0.0,0.0,0.0,0.0,0.0,0.0,0.0,0.0,0.0,0.0,0.0,0.0,-3.2081,-3.5899,-4.168,-4.4392,-4.4999,-4.3001,-4.1191,-3.79,-3.2527,-3.0657,0.0,0.0,0.0,0.0,0.0,0.0,0.0,0.0,0.0,0.0,0.0,0.0,0.0,0.0,0.0,0.0,0.0,0.0,0.0,0.0,0.0,0.0,0.0,0.0,0.0,0.0,0.0,0.0,0.0,0.0,0.0,0.0,0.0,0.0,0.0,0.0,0.0,0.0,0.0,0.0,0.0,0.0,0.0,0.0,0.0,0.0,0.0,0.0,0.0,0.0,0.0,0.0,0.0,0.0,0.0,0.0,0.0,0.0,0.0,0.0,0.0,0.0,0.0,0.0,0.0,0.0,0.0,0.0,0.0,0.0,0.0,0.0,0.0,0.0,0.0,0.0,0.0,0.0,0.0,0.0,0.0,0.0,0.0,0.0,0.0,0.0,0.0,0.0,0.0,0.0,0.0,0.0,0.0,0.0,0.0,0.0,0.0,0.0,0.0,0.0,0.0,0.0,-3.5507,-3.8183,-4.2144,-4.4178,-4.4392,-4.218,-4.0551,-3.7604,-3.2805,-3.028,0.0,0.0,0.0,0.0,0.0,0.0,0.0,0.0,0.0,0.0,0.0,0.0,0.0,0.0,0.0,0.0,0.0,0.0,0.0,0.0,0.0,0.0,0.0,0.0,0.0,0.0,0.0,0.0,0.0,0.0,0.0,0.0,0.0,0.0,0.0,0.0,0.0,0.0,0.0,0.0,0.0,0.0,0.0,0.0,0.0,0.0,0.0,0.0,0.0,0.0,0.0,0.0,0.0,0.0,0.0,0.0,0.0,0.0,0.0,0.0,0.0,0.0,0.0,0.0,0.0,0.0,0.0,0.0,0.0,0.0,0.0,0.0,0.0,0.0,0.0,0.0,0.0,0.0,0.0,0.0,0.0,0.0,0.0,0.0,0.0,0.0,0.0,0.0,0.0,0.0,0.0,0.0,0.0,0.0,0.0,0.0,0.0,0.0,0.0,0.0,0.0,0.0,-3.5631,-3.904,-4.3001,-4.3551,-4.3001,-4.1324,-3.8821,-3.5645,-3.1659,-2.9855,0.0,0.0,0.0,0.0,0.0,0.0,0.0,0.0,0.0,0.0,0.0,0.0,0.0,0.0,0.0,0.0,0.0,0.0,0.0,0.0,0.0,0.0,0.0,0.0,0.0,0.0,0.0,0.0,0.0,0.0,0.0,0.0,0.0,0.0,0.0,0.0,0.0,0.0,0.0,0.0,0.0,0.0,0.0,0.0,0.0,0.0,0.0,0.0,0.0,0.0,0.0,0.0,0.0,0.0,0.0,0.0,0.0,0.0,0.0,0.0,0.0,0.0,0.0,0.0,0.0,0.0,0.0,0.0,0.0,0.0,0.0,0.0,0.0,0.0,0.0,0.0,0.0,0.0,0.0,0.0,0.0,0.0,0.0,0.0,0.0,0.0,0.0,0.0,0.0,0.0,0.0,0.0,0.0,0.0,0.0,0.0,0.0,0.0,0.0,0.0,0.0,0.0,-3.5507,-3.8362,0.0,-4.2751,-4.1895,-3.986,-3.7822,-3.5208,-3.1762,0.0,0.0,0.0,0.0,0.0,0.0,0.0,0.0,0.0,0.0,0.0,0.0,0.0,0.0,0.0,0.0,0.0,0.0,0.0,0.0,0.0,0.0,0.0,0.0,0.0,0.0,0.0,0.0,0.0,0.0,0.0,0.0,0.0,0.0,0.0,0.0,0.0,0.0,0.0,0.0,0.0,0.0,0.0,0.0,0.0,0.0,0.0,0.0,0.0,0.0,0.0,0.0,0.0,0.0,0.0,0.0,0.0,0.0,0.0,0.0,0.0,0.0,0.0,0.0,0.0,0.0,0.0,0.0,0.0,0.0,0.0,0.0,0.0,0.0,0.0,0.0,0.0,0.0,0.0,0.0,0.0,0.0,0.0,0.0,0.0,0.0,0.0,0.0,0.0,0.0,0.0,0.0,0.0,0.0,0.0,0.0,0.0,0.0,0.0,0.0,0.0,0.0,-3.3223,-3.5293,-3.7719,0.0,-4.1538,-4.0788,-3.8968,-3.6773,-3.453,-3.2224,0.0,0.0,0.0,0.0,0.0,0.0,0.0,0.0,0.0,0.0,0.0,0.0,0.0,0.0,0.0,0.0,0.0,0.0,0.0,0.0,0.0,0.0,0.0,0.0,0.0,0.0,0.0,0.0,0.0,0.0,0.0,0.0,0.0,0.0,0.0,0.0,0.0,0.0,0.0,0.0,0.0,0.0,0.0,0.0,0.0,0.0,0.0,0.0,0.0,0.0,0.0,0.0,0.0,0.0,0.0,0.0,0.0,0.0,0.0,0.0,0.0,0.0,0.0,0.0,0.0,0.0,0.0,0.0,0.0,0.0,0.0,0.0,0.0,0.0,0.0,0.0,0.0,0.0,0.0,0.0,0.0,0.0,0.0,0.0,0.0,0.0,0.0,0.0,0.0,0.0,0.0,0.0,0.0,0.0,0.0,0.0,0.0,0.0,0.0,0.0,0.0,0.0,-3.2596,-3.4953,-3.7327,-3.9627,-3.9877,-3.9591,-3.8842,-3.5598,-3.3386,0.0,0.0,0.0,0.0,0.0,0.0,0.0,0.0,0.0,0.0,0.0,0.0,0.0,0.0,0.0,0.0,0.0,0.0,0.0,0.0,0.0,0.0,0.0,0.0,0.0,0.0,0.0,0.0,0.0,0.0,0.0,0.0,0.0,0.0,0.0,0.0,0.0,0.0,0.0,0.0,0.0,0.0,0.0,0.0,0.0,0.0,0.0,0.0,0.0,0.0,0.0,0.0,0.0,0.0,0.0,0.0,0.0,0.0,0.0,0.0,0.0,0.0,0.0,0.0,0.0,0.0,0.0,0.0,0.0,0.0,0.0,0.0,0.0,0.0,0.0,0.0,0.0,0.0,0.0,0.0,0.0,0.0,0.0,0.0,0.0,0.0,0.0,0.0,0.0,0.0,0.0,0.0,0.0,0.0,0.0,0.0,0.0,0.0,0.0,0.0,0.0,0.0,0.0,-3.3508,-3.5792,-3.7933,-3.9698,-3.8933,-3.8127,-3.7764,-3.4287,-3.2039,-3.1859,0.0,0.0,0.0,0.0,0.0,0.0,0.0,0.0,0.0,0.0,0.0,0.0,0.0,0.0,0.0,0.0,0.0,0.0,0.0,0.0,0.0,0.0,0.0,0.0,0.0,0.0,0.0,0.0,0.0,0.0,0.0,0.0,0.0,0.0,0.0,0.0,0.0,0.0,0.0,0.0,0.0,0.0,0.0,0.0,0.0,0.0,0.0,0.0,0.0,0.0,0.0,0.0,0.0,0.0,0.0,0.0,0.0,0.0,0.0,0.0,0.0,0.0,0.0,0.0,0.0,0.0,0.0,0.0,0.0,0.0,0.0,0.0,0.0,0.0,0.0,0.0,0.0,0.0,0.0,0.0,0.0,0.0,0.0,0.0,0.0,0.0,0.0,0.0,0.0,0.0,0.0,0.0,0.0,0.0,0.0,0.0,0.0,0.0,0.0,0.0,0.0,0.0,-3.3401,-3.54,-3.722,-3.8826,-3.7862,-3.7219,-3.7411,-3.3771,-3.1631,-3.1881,0.0,0.0,0.0,0.0,0.0,0.0,0.0,0.0,0.0,0.0,0.0,0.0,0.0,0.0,0.0,0.0,0.0,0.0,0.0,0.0,0.0,0.0,0.0,0.0,0.0,0.0,0.0,0.0,0.0,0.0,0.0,0.0,0.0,0.0,0.0,0.0,0.0,0.0,0.0,0.0,0.0,0.0,0.0,0.0,0.0,0.0,0.0,0.0,0.0,0.0,0.0,0.0,0.0,0.0,0.0,0.0,0.0,0.0,0.0,0.0,0.0,0.0,0.0,0.0,0.0,0.0,0.0,0.0,0.0,0.0,0.0,0.0,0.0,0.0,0.0,0.0,0.0,0.0,0.0,0.0,0.0,0.0,0.0,0.0,0.0,0.0,0.0,0.0,0.0,0.0,0.0,0.0,0.0,0.0,0.0,0.0,0.0,0.0,0.0,0.0,0.0,0.0,-3.2704,-3.4294,-3.5846,-3.7309,-3.6738,-3.6577,-3.7343,-3.3753,-3.1775,-3.257,0.0,0.0,0.0,0.0,0.0,0.0,0.0,0.0,0.0,0.0,0.0,0.0,0.0,0.0,0.0,0.0,0.0,0.0,0.0,0.0,0.0,0.0,0.0,0.0,0.0,0.0,0.0,0.0,0.0,0.0,0.0,0.0,0.0,0.0,0.0,0.0,0.0,0.0,0.0,0.0,0.0,0.0,0.0,0.0,0.0,0.0,0.0,0.0,0.0,0.0,0.0,0.0,0.0,0.0,0.0,0.0,0.0,0.0,0.0,0.0,-3.4979,0.0,0.0,0.0,0.0,0.0,0.0,0.0,0.0,0.0,0.0,0.0,0.0,0.0,0.0,0.0,0.0,0.0,0.0,0.0,0.0,0.0,0.0,0.0,0.0,0.0,0.0,0.0,0.0,0.0,0.0,0.0,0.0,0.0,0.0,0.0,0.0,0.0,0.0,0.0,0.0,0.0,-3.2775,-3.481,-3.6203,-3.6415,-3.5758,-3.549,-3.591,-3.2914,-3.1358,-3.2092,-2.9789,0.0,0.0,0.0,0.0,0.0,0.0,0.0,0.0,0.0,0.0,0.0,0.0,0.0,0.0,0.0,0.0,0.0,0.0,0.0,0.0,0.0,0.0,0.0,0.0,0.0,0.0,0.0,0.0,0.0,0.0,0.0,0.0,0.0,0.0,0.0,0.0,0.0,0.0,0.0,0.0,0.0,0.0,0.0,0.0,0.0,0.0,0.0,0.0,0.0,0.0,0.0,0.0,0.0,0.0,0.0,0.0,0.0,0.0,0.0,0.0,-3.6772,0.0,0.0,0.0,0.0,0.0,0.0,0.0,0.0,0.0,0.0,0.0,0.0,0.0,0.0,0.0,0.0,0.0,0.0,0.0,0.0,0.0,0.0,0.0,0.0,0.0,0.0,0.0,0.0,0.0,0.0,0.0,0.0,0.0,0.0,0.0,0.0,0.0,0.0,0.0,0.0,-3.3164,-3.4658,-3.5668,-3.5929,-3.5628,-3.5465,-3.5642,-3.3417,-3.216,-3.2559,-3.0369,0.0,0.0,0.0,0.0,0.0,0.0,0.0,0.0,0.0,0.0,0.0,0.0,0.0,0.0,0.0,0.0,0.0,0.0,0.0,0.0,0.0,0.0,0.0,0.0,0.0,0.0,0.0,0.0,0.0,0.0,0.0,0.0,0.0,0.0,0.0,0.0,0.0,0.0,0.0,0.0,0.0,0.0,0.0,0.0,0.0,0.0,0.0,0.0,0.0,0.0,0.0,0.0,0.0,-4.4891,-4.5703,-4.5969,-4.6346,-4.638,-4.6003,-4.3369,-4.1238,-3.9512,-3.8903,0.0,0.0,0.0,0.0,0.0,0.0,0.0,0.0,0.0,0.0,0.0,0.0,0.0,0.0,0.0,0.0,0.0,0.0,0.0,0.0,0.0,0.0,0.0,0.0,-3.7284,-3.6857,-3.3835,0.0,0.0,0.0,0.0,0.0,0.0,0.0,0.0,0.0,0.0,0.0,-3.3581,-3.4464,-3.5146,-3.5668,-3.5614,-3.5595,-3.57,-3.4131,-3.3167,-3.3167,-3.0992,-2.9041,0.0,0.0,0.0,0.0,0.0,0.0,0.0,0.0,0.0,0.0,0.0,0.0,0.0,0.0,0.0,0.0,0.0,0.0,0.0,0.0,0.0,0.0,0.0,0.0,0.0,0.0,0.0,0.0,0.0,0.0,0.0,0.0,-3.9699,-3.8377,0.0,0.0,0.0,0.0,0.0,0.0,0.0,0.0,0.0,0.0,0.0,0.0,0.0,-4.3944,-4.4823,-4.8105,-4.9187,-4.8173,-5.2198,-5.3112,-5.1352,-5.3348,-5.3551,-5.2266,-5.1183,0.0,-4.1847,-4.1745,0.0,0.0,0.0,0.0,0.0,0.0,0.0,0.0,0.0,0.0,0.0,0.0,0.0,0.0,0.0,0.0,0.0,0.0,0.0,0.0,0.0,0.0,-3.925,-3.925,-3.8836,-3.8491,0.0,-3.6663,-3.4628,-3.3682,-3.3247,0.0,0.0,0.0,0.0,0.0,0.0,0.0,-3.3477,-3.494,-3.5819,-3.558,-3.4948,-3.4785,-3.5247,-3.3824,-3.2942,-3.2942,-3.1439,-2.9834,-2.8316,-2.6971,0.0,0.0,0.0,0.0,0.0,0.0,0.0,0.0,0.0,0.0,0.0,0.0,0.0,0.0,0.0,0.0,0.0,0.0,0.0,0.0,0.0,0.0,0.0,0.0,0.0,0.0,0.0,0.0,0.0,-4.1097,-4.1391,-3.9183,-3.9364,-3.8715,0.0,0.0,0.0,0.0,0.0,0.0,0.0,0.0,0.0,-4.6143,-4.7564,-4.9086,-5.0676,-5.2706,-5.3822,-5.4025,-5.6427,-5.7273,-5.6697,-5.7306,-5.7205,-5.6562,-5.5784,-5.3078,-4.9018,-4.6481,-4.4147,-4.2008,0.0,0.0,0.0,0.0,-4.0087,-4.0629,-4.232,-4.2422,0.0,-4.1914,0.0,0.0,0.0,0.0,0.0,0.0,0.0,0.0,0.0,0.0,-4.1688,-4.1688,-4.1757,-4.1792,-4.1688,-4.0273,-3.8284,0.0,-3.5123,-3.4619,-3.3608,0.0,0.0,0.0,0.0,-3.3758,-3.3926,-3.4901,-3.5381,-3.4787,-3.5183,-3.5212,-3.4648,-3.4731,-3.4456,-3.3628,-3.2524,-3.1248,-2.973,-2.8213,-2.7558,0.0,0.0,0.0,0.0,0.0,0.0,0.0,0.0,0.0,0.0,0.0,0.0,0.0,0.0,0.0,0.0,0.0,0.0,0.0,0.0,0.0,0.0,0.0,0.0,0.0,0.0,0.0,0.0,-4.3211,-4.3523,-4.0441,-4.1531,-4.102,0.0,0.0,0.0,0.0,0.0,0.0,-4.5967,-4.7808,-4.9729,-5.1758,-5.2706,-5.4194,-5.6292,-5.7239,-5.8254,-5.9336,-6.0283,-6.0994,-6.1501,-6.096,-6.0723,-6.0655,-5.9539,-5.8017,-5.5953,-5.1285,-4.7902,-4.5563,-4.3842,-4.2828,-4.2388,-4.276,-4.2997,-4.3538,-4.6177,-4.6583,-4.594,-4.5505,-4.4654,-4.3132,-4.0011,0.0,0.0,0.0,0.0,-4.0791,-4.1585,-4.2758,-4.3828,-4.4035,-4.432,-4.4423,-4.3897,-4.3,-4.1343,0.0,-3.7008,-3.6312,-3.5337,0.0,0.0,0.0,0.0,-3.4669,-3.4519,-3.5149,-3.5275,-3.4476,-3.5352,-3.5559,-3.4476,-3.5387,-3.5456,-3.4199,-3.3352,-3.2248,-3.0783,-2.9213,-2.8489,-2.8696,0.0,0.0,0.0,0.0,0.0,0.0,0.0,0.0,0.0,0.0,0.0,0.0,0.0,0.0,0.0,0.0,0.0,0.0,0.0,0.0,0.0,0.0,0.0,0.0,0.0,0.0,0.0,0.0,0.0,-4.2598,-4.5503,0.0,0.0,0.0,0.0,-4.3578,-4.628,-4.8525,-5.0026,-5.2707,-5.4905,-5.6427,-5.7881,-5.937,-6.096,-6.2415,-6.3159,-6.326,-6.4681,-6.5358,-6.5392,-6.5358,-6.5358,-6.5222,-6.3091,-6.1704,-6.0554,-5.5378,-5.1454,-4.8545,-4.638,-4.55,-4.5399,-4.475,-4.4925,-4.5771,-4.7297,-4.7361,-4.7192,-4.9932,-4.9359,-4.6955,-4.3369,-4.1895,0.0,0.0,-4.1773,-4.3172,-4.3931,-4.4699,-4.5466,-4.6251,-4.5845,-4.5328,-4.5294,-4.4147,-4.2654,0.0,-3.8927,-3.7452,-3.7519,0.0,-3.4283,-3.4248,-3.5098,-3.5568,-3.5192,-3.6041,-3.6235,-3.5235,-3.5214,-3.5214,-3.5145,-3.5214,-3.4904,-3.4165,-3.3352,-3.2248,-3.0783,-2.9213,-2.873,-2.942,-2.804,0.0,0.0,0.0,0.0,0.0,0.0,0.0,0.0,0.0,0.0,0.0,0.0,0.0,0.0,0.0,0.0,0.0,0.0,0.0,0.0,0.0,0.0,0.0,0.0,0.0,0.0,0.0,0.0,-4.7072,-5.0925,0.0,-4.7628,-4.759,-4.8485,-4.9991,-5.1497,-5.338,-5.5804,-5.8281,-6.0283,-6.1772,-6.326,-6.4309,-6.485,-6.5392,-6.5628,-6.5662,-6.617,-6.6406,-6.6406,-6.5899,-6.5696,-6.5628,-6.4343,-6.3125,-6.1839,-5.9979,-5.69,-5.3112,-5.0845,-4.9661,-4.9154,-4.8409,-4.8612,-4.9458,-5.098,-5.0676,-4.9593,-4.9221,-4.7872,-4.6273,-4.5054,-4.4272,-4.386,-4.4258,-4.4836,-4.5561,-4.6286,-4.67,-4.6948,-4.7251,-4.6707,-4.6155,-4.6155,-4.5354,-4.4458,-4.3906,-4.1147,-3.8789,-3.8338,-3.7218,-3.6181,-3.5662,-3.5896,-3.5896,-3.5269,-3.5932,-3.6125,-3.5304,-3.5628,-3.5732,-3.5249,-3.518,-3.4869,-3.4165,-3.3352,-3.2455,-3.1455,-3.042,-3.0006,-3.0248,-2.9248,-2.8834,0.0,0.0,0.0,0.0,0.0,0.0,0.0,0.0,0.0,0.0,0.0,0.0,0.0,0.0,0.0,0.0,0.0,0.0,0.0,0.0,0.0,0.0,0.0,0.0,0.0,0.0,-5.2944,-5.1631,-5.5943,-5.733,-5.2972,-5.3786,-5.5243,-5.6765,-5.778,-5.9641,-6.2618,-6.3971,-6.5222,-6.644,-6.7218,-6.7455,-6.7184,-6.7184,-6.7049,-6.6812,-6.6812,-6.6812,-6.6779,-6.6305,-6.6068,-6.6034,-6.529,-6.4275,-6.3091,-6.2584,-6.0486,-5.734,-5.4803,-5.3213,-5.2266,-5.1522,-5.1725,-5.2503,-5.3518,-5.2875,-5.1352,-4.9864,-4.8609,-4.7581,-4.7126,-4.6789,-4.661,-4.6756,-4.7038,-4.7431,-4.7913,-4.8051,-4.8017,-4.7741,-4.7148,-4.6527,-4.6224,-4.5776,-4.5328,-4.5079,-4.2561,-4.0319,-3.9825,-3.872,-3.7685,-3.7146,-3.7077,-3.6801,-3.6077,-3.6387,-3.6318,-3.5318,-3.587,-3.6008,-3.5249,-3.518,-3.4869,-3.4165,-3.3352,-3.2559,-3.1834,-3.1076,-3.0817,-3.1076,-3.0317,-2.9903,-2.9903,0.0,0.0,0.0,0.0,0.0,0.0,0.0,0.0,0.0,0.0,0.0,0.0,0.0,0.0,0.0,0.0,0.0,0.0,0.0,0.0,0.0,0.0,0.0,-4.8041,-5.3856,-5.7543,-5.6224,-6.0622,-6.2042,-5.7645,-5.9877,-6.2212,-6.3666,-6.5053,-6.7117,-7.006,-6.9553,-6.9485,-7.0161,-6.9519,-6.8774,-6.7963,-6.7929,-6.759,-6.688,-6.688,-6.6846,-6.6846,-6.6812,-6.6812,-6.6779,-6.6034,-6.5324,-6.4512,-6.3057,-6.2009,-6.1028,-5.8017,-5.5953,-5.46,-5.3856,-5.4025,-5.4634,-5.46,-5.3619,-5.2367,-5.2334,-5.1956,-5.1235,-4.9739,-4.9475,-4.9433,-4.7992,-4.8208,-4.8844,-4.8844,-4.8844,-4.8637,-4.7913,-4.7217,-4.6424,-4.5638,-4.5432,-4.519,-4.4483,-4.3103,-4.2068,-4.2033,-4.0112,-3.8629,-3.8629,-3.8594,0.0,-3.765,-3.7512,-3.696,-3.5456,-3.5904,-3.6008,-3.5318,-3.5214,-3.4869,-3.4165,-3.3352,-3.2593,-3.1834,-3.1145,-3.1076,-3.18,-3.111,-3.0731,-3.0731,0.0,0.0,0.0,0.0,0.0,0.0,0.0,0.0,0.0,0.0,0.0,0.0,0.0,0.0,0.0,0.0,0.0,0.0,0.0,0.0,0.0,0.0,-5.3923,-5.3585,-5.7949,-6.1806,-6.3565,-6.6981,-6.847,-6.6677,-6.776,-6.8741,-6.9147,-6.9045,-6.9553,-7.0939,-7.0804,-7.0534,-7.0195,-7.0534,-7.0094,-6.8774,-6.8774,-6.8673,-6.847,-6.7895,-6.759,-6.759,-6.7049,-6.6812,-6.6812,-6.6609,-6.6068,-6.5324,-6.4377,-6.326,-6.1806,-5.8761,-5.734,-5.6833,-5.5581,-5.5243,-5.5344,-5.4769,-5.4296,-5.3788,-5.2672,-5.2297,-5.2119,-5.1259,-5.0796,-5.039,-4.9545,-4.9499,-4.9666,-4.9666,-4.9666,-4.9631,-4.9424,-4.8355,-4.7355,-4.7121,-4.619,-4.5328,-4.5147,-4.432,-4.331,-4.2206,-4.0526,-3.9388,-3.9388,-3.8939,0.0,-3.8318,-3.7823,-3.7547,-3.7629,-3.6835,-3.6456,-3.6857,-3.5835,-3.4869,-3.4165,-3.3869,-3.3179,-3.1834,-3.211,-3.2145,-3.18,-3.1593,-3.1489,0.0,0.0,0.0,0.0,0.0,0.0,0.0,0.0,0.0,0.0,0.0,0.0,0.0,0.0,0.0,0.0,0.0,0.0,0.0,0.0,0.0,0.0,-5.5581,-5.9877,-6.1941,-6.4208,-6.6542,-6.8876,-7.0703,-7.1718,-7.1582,-7.1684,-7.2022,-7.2665,-7.1988,-7.2022,-7.3105,-7.2563,-7.2157,-7.2056,-7.1853,-7.121,-7.0026,-6.9417,-6.8944,-6.8605,-6.7827,-6.7455,-6.7421,-6.7015,-6.6812,-6.6779,-6.6474,-6.5933,-6.5189,-6.4444,-6.3463,0.0,0.0,0.0,0.0,0.0,-5.5581,-5.4769,-5.4634,-5.416,-5.3551,-5.2976,-5.2703,-5.2459,-5.1807,-5.148,-5.1146,-5.0169,-4.9952,-5.0011,-5.0011,-5.0011,-4.9942,-4.9597,-4.8596,-4.7631,-4.7293,-4.6259,-4.5397,-4.5397,-4.4803,0.0,-4.2723,-4.1481,-4.056,-4.025,-3.9859,-3.9445,-3.9077,-3.8444,-3.803,-3.8134,-3.7042,-3.649,-3.6939,-3.587,0.0,0.0,0.0,-3.3716,-3.28,-3.3179,0.0,0.0,0.0,0.0,0.0,0.0,0.0,0.0,-3.2127,-3.2175,0.0,0.0,0.0,0.0,0.0,0.0,0.0,0.0,0.0,0.0,0.0,0.0,0.0,0.0,0.0,0.0,-6.0723,-6.5222,-7.0906,-7.1176,-7.1278,-7.2496,-7.2732,-7.3003,-7.3544,-7.3105,-7.3308,-7.4627,-7.4052,-7.4221,-7.5642,0.0,0.0,0.0,0.0,-7.2124,-7.1312,-6.9925,-6.8876,-6.8132,-6.732,-6.6948,-6.6948,-6.6846,-6.6812,-6.6779,-6.6102,-6.5392,-6.4681,-6.3937,-6.3057,-6.2009,-6.0622,-5.9607,-5.8727,-5.7306,-5.5513,-5.3822,-5.4397,0.0,0.0,-5.3179,-5.3041,-5.2459,-5.1609,-5.1623,-5.1592,-5.012,-4.986,-5.0011,-5.0011,-5.0011,-4.9838,-4.9085,-4.8361,-4.7603,-4.6906,-4.6086,-4.55,-4.5432,-4.4872,-4.4207,-4.3448,-4.2654,-4.1861,-4.1032,-4.0963,-4.0756,-3.9939,-3.9112,-3.8375,-3.7823,0.0,0.0,-3.6422,-3.5732,-3.5283,-3.5214,-3.451,-3.413,-3.4234,-3.413,-3.4096,-3.4096,-3.4096,-3.3751,-3.3041,-3.3731,-3.3731,-3.3007,-3.2702,-3.2667,0.0,0.0,0.0,0.0,0.0,0.0,0.0,0.0,0.0,0.0,0.0,0.0,0.0,0.0,0.0,-6.0419,-6.5459,-6.9925,-7.3477,-7.4356,-7.4525,-7.4221,-7.4695,-7.4897,-7.4424,-7.4796,-7.5168,-7.5473,-7.4796,-7.4762,-7.5642,-7.4864,-7.4187,-7.3713,-7.3443,-7.2665,-7.1312,-7.0432,-6.9891,-6.9722,0.0,0.0,-6.7658,-6.7083,-6.6812,-6.6812,-6.6643,-6.617,-6.5425,-6.4681,-6.2854,-6.052,-6.0216,-5.9268,-5.8017,-5.7137,-5.6156,-5.5209,-5.4769,-5.4025,-5.3179,-5.2706,-5.2632,-5.2484,-5.106,-5.0929,0.0,-5.0012,-4.986,-5.0011,-5.0011,-5.0011,-4.9976,-4.9804,-4.9154,-4.8361,-4.7638,-4.6879,-4.6155,-4.5535,-4.5259,-4.4975,-4.4207,-4.3448,-4.2516,-4.1101,-4.1412,-4.1516,-4.0756,-3.9479,-3.8767,-3.9215,-3.7491,-3.6559,-3.7215,-3.6525,-3.5835,-3.5249,-3.451,-3.4372,-3.4938,-3.4441,-3.4096,-3.4096,-3.4096,-3.4027,-3.3889,-3.4027,-3.4027,-3.3854,-3.4117,-3.425,0.0,0.0,0.0,0.0,0.0,0.0,0.0,0.0,0.0,0.0,0.0,-4.8376,0.0,0.0,-6.0317,-6.5933,-6.9654,-7.2766,-7.5371,-7.5709,-7.5574,-7.5202,-7.5168,-7.5168,-7.5168,-7.5168,-7.5303,-7.5676,-7.5371,-7.5303,-7.5676,-7.4999,-7.4424,-7.4052,-7.3341,-7.2597,-7.1853,-7.0398,-6.9823,-7.0161,-6.8267,-6.7557,-6.7861,-6.7151,-6.6812,-6.6779,-6.6406,-6.5831,-6.5053,-6.3937,-6.2381,-6.0655,-6.025,-5.8761,-5.6765,-5.6499,-5.5652,-5.4566,-5.4194,-5.3856,-5.3482,-5.2702,-5.2594,-5.2514,-5.0983,-5.069,-5.0759,-4.9914,-4.986,-5.0011,-5.0011,-5.0011,-5.0011,-5.0011,-4.939,-4.8603,-4.7844,-4.7113,-4.6389,-4.5569,-4.5397,-4.5156,-4.4449,-4.4285,-4.363,-4.1757,-4.1757,-4.1723,-4.0998,-3.9549,-3.8732,-3.9112,-3.7422,-3.6456,-3.687,-3.6525,-3.6146,-3.5766,-3.5387,-3.5352,-3.5732,-3.5387,-3.518,-3.518,-3.518,-3.5007,-3.4628,-3.5007,-3.5007,-3.4683,-3.5381,-3.533,0.0,0.0,0.0,0.0,0.0,0.0,0.0,0.0,-4.3767,-4.7507,-5.0067,-5.3112,-5.8084,-6.1569,-6.5459,-7.0872,-7.2969,-7.4627,-7.6623,-7.6352,-7.5811,-7.5506,-7.51,-7.5067,-7.5642,-7.5168,-7.5067,-7.5676,-7.5709,-7.5709,-7.5709,-7.5134,-7.4695,-7.439,-7.324,-7.2462,-7.2191,-7.0263,-6.9553,-6.9958,-6.7963,-6.7252,-6.7658,-6.7083,-6.6812,-6.6779,-6.5865,-6.5155,-6.4478,-6.299,-6.2014,-6.1308,-6.0702,-5.8666,-5.6193,-5.6198,-5.5382,-5.4161,-5.3923,-5.3855,-5.3785,-5.2901,-5.2558,-5.2277,-5.0915,-5.0556,-5.0463,-4.985,-4.983,-5.0011,-5.0011,-5.0011,-5.0011,-5.0011,-4.9528,-4.881,-4.8051,-4.7327,-4.6569,-4.5776,-4.55,-4.519,-4.4596,-4.501,-4.4604,-4.2319,-4.2137,-4.193,-4.0998,-3.9549,-3.8594,-3.8594,-3.7215,-3.6284,-3.6284,-3.6284,-3.6284,-3.6284,-3.6284,-3.6284,-3.6284,-3.6284,-3.6284,-3.6284,-3.6284,-3.6008,-3.5421,-3.6008,-3.5973,-3.5442,-3.6304,-3.6142,-4.1838,-4.0475,-4.0527,-4.3917,-4.2867,-4.3474,0.0,0.0,-5.22,-5.6594,-5.9336,-6.1298,-6.2651,-6.5865,-6.9417,-7.2699,-7.4492,-7.5777,-7.6758,-7.6826,-7.6251,-7.4897,-7.5236,-7.5608,-7.5676,-7.5642,-7.5608,-7.5676,-7.5709,-7.5709,-7.5709,-7.5608,-7.4965,-7.3646,-7.3443,-7.2732,-7.1447,-7.0534,-6.9789,-6.9214,-6.8233,-6.7489,-6.6948,-6.6846,-6.6812,-6.6745,-6.5324,-6.4681,-6.4478,-6.299,-6.2058,-6.1571,-6.1586,-6.0084,-5.7829,-5.7219,-5.6879,-5.6539,-5.5349,-5.4838,-5.4533,-5.3071,-5.2153,-5.1439,-5.0464,-4.9998,-4.9781,-4.9594,-4.9742,-5.0011,-5.0011,-5.0011,-5.0011,-5.0011,-4.9942,-4.9666,-4.8844,-4.8086,-4.7355,-4.6631,-4.588,-4.5363,-4.5294,-4.5363,-4.4604,-4.2319,-4.262,-4.2551,-4.1101,-3.9549,-3.8594,-3.8594,-3.7215,-3.6284,-3.6284,-3.6284,-3.6284,-3.6284,-3.6284,-3.6284,-3.6284,-3.6284,-3.6284,-3.6284,-3.6284,-3.6249,-3.618,-3.6249,-3.6249,-3.618,-3.6547,-3.6701,-4.3594,-4.3719,-4.4754,0.0,-4.7361,-4.9729,-5.4972,-5.5852,-5.6697,-6.0791,-6.3396,-6.573,-6.8233,-7.0297,-7.2496,0.0,-7.598,-7.6657,-7.7435,-7.6386,-7.5168,-7.4086,-7.3477,-7.3646,-7.4931,-7.5067,-7.5236,-7.5676,-7.5709,-7.5709,-7.5709,-7.4897,-7.4119,-7.351,-7.2665,-7.1921,-7.1312,-7.0567,-7.0026,-6.9722,-6.8504,-6.7726,-6.7421,-6.7015,-6.6812,-6.6745,-6.5256,-6.4613,-6.4478,-6.299,-6.2019,-6.1384,-6.0985,-6.0004,-5.8749,-5.8144,-5.6948,-5.5551,-5.5009,-5.4567,-5.4056,-5.3033,-5.2486,-5.2041,-5.1005,-5.051,-5.0257,-4.9875,-4.9889,-5.0011,-5.0011,-5.0011,-5.0011,-5.0011,-5.0011,-4.9804,-4.8947,-4.8568,-4.812,-4.7362,-4.6631,-4.6086,-4.6086,-4.5707,-4.4914,-4.3552,-4.3621,-4.3276,-4.1757,-4.0181,-3.8732,-3.7387,-3.6663,-3.6284,-3.6284,-3.6284,-3.6284,-3.6284,-3.6284,-3.6284,-3.6284,-3.6284,-3.6284,-3.6284,-3.6284,-3.6284,-3.6284,-3.6284,-3.6284,-3.6284,-3.6423,-3.6623,-4.495,-4.6264,-4.8093,-4.8785,-5.186,-5.531,-5.7645,-5.8998,-6.0689,-6.4038,-6.617,-6.8267,-7.1007,-7.2428,-7.3916,-7.6183,-7.6758,-7.7164,-7.7874,-7.6217,-7.4322,-7.2766,-7.1278,-7.1007,-7.2597,-7.351,-7.439,-7.5337,-7.5405,-7.5473,-7.5676,-7.4695,-7.3916,-7.351,-7.2462,-7.1718,-7.1312,-7.077,-7.0297,-6.9857,-6.8741,-6.7996,-6.759,-6.7049,-6.6812,-6.6745,-6.5256,-6.4613,-6.4478,-6.299,-6.2115,-6.1612,-6.1037,-6.0333,-5.9565,-5.9166,-5.7495,-5.5417,-5.5213,-5.4703,-5.4053,-5.3432,-5.3022,-5.268,-5.1867,-5.1382,-5.1043,-5.0681,-5.043,-5.0321,-5.0321,-5.0149,-5.0011,-5.0011,-5.0011,-4.9838,-4.9258,-4.8947,-4.8637,-4.8086,-4.7251,-4.6596,-4.6596,-4.5914,-4.5225,-4.4665,-4.4596,-4.4044,-4.2551,-4.0767,-3.8974,-3.7146,-3.6559,-3.6456,-3.6904,-3.6732,-3.6628,-3.6628,-3.6628,-3.6525,-3.6318,-3.6284,-3.6284,-3.6284,-3.6284,-3.6284,-3.6284,-3.6284,-3.6284,-3.6284,-3.6284,-3.6402,-4.5948,-4.7342,-4.9417,-5.3382,-5.6055,-5.8896,-6.3328,-6.4377,-6.5053,-6.7286,-6.8436,-6.9079,-6.918,-7.0973,-7.3172,-7.5371,-7.6386,-7.7164,-7.7874,-7.6657,-7.4322,-7.0703,-6.8944,-6.803,0.0,-7.0737,-7.3071,-7.4525,-7.4661,-7.4965,-7.5676,-7.5642,-7.4965,-7.3544,-7.3443,-7.2732,-7.1312,-7.1312,-7.0567,-6.9147,-6.9079,-6.8301,-6.6846,-6.6812,-6.6812,-6.6745,-6.5256,-6.4613,-6.4478,-6.299,-6.2498,-6.2654,-6.262,-6.1741,-6.0449,-6.0452,-5.9206,-5.7398,-5.6677,-5.5957,-5.5202,-5.4413,-5.3597,-5.2887,-5.2885,-5.2432,-5.1939,-5.197,-5.1511,-5.108,-5.108,-5.0562,-5.0011,-5.0011,-5.0011,-5.0011,-4.9976,-4.9327,-4.8775,-4.8775,-4.7569,-4.6596,-4.6596,-4.5914,-4.5397,-4.5363,-4.5363,-4.4837,-4.3345,-4.1136,-3.9388,-3.8594,-3.718,-3.6904,-3.8387,-3.787,-3.7478,-3.7478,-3.7478,-3.7111,-3.6318,-3.6284,-3.6284,-3.6284,-3.6284,-3.6284,-3.6284,-3.6284,-3.6284,-3.6284,-3.6284,-3.6284,-4.9013,-5.2034,-5.5542,-5.893,-6.1806,-6.4478,-6.7015,-6.8335,-6.8977,-6.8741,-6.8098,-6.759,-6.759,-6.8199,-6.9755,-7.2969,-7.4965,-7.6555,-7.7807,-7.6657,-7.4153,-6.9958,-6.9011,0.0,0.0,0.0,0.0,-7.2969,-7.3578,-7.4187,-7.4931,-7.4965,-7.4762,-7.4255,-7.3274,-7.2529,-7.2022,-7.1548,-7.0567,-6.9079,-6.8064,-6.732,-6.6812,-6.6812,-6.6542,-6.6,-6.5019,-6.4343,-6.3802,-6.2821,-6.2149,-6.1787,-6.1787,-6.0947,-5.9732,-6.0095,-5.9023,-5.7261,-5.6302,-5.5179,-5.4124,-5.3917,-5.358,-5.3242,-5.2925,-5.268,-5.2435,-5.208,-5.1924,-5.1808,-5.1808,-5.1636,-5.1429,-5.1429,-5.1429,-5.1356,-5.0838,-5.0528,-5.0154,-4.97,-4.8769,-4.8051,-4.8051,-4.7017,-4.6017,-4.5466,-4.4975,-4.4285,-4.331,-4.1619,-4.0204,-3.9388,-3.8422,-3.8043,-3.856,-3.8353,-3.8237,-3.8237,-3.8237,-3.8112,-3.7836,-3.7836,-3.7594,-3.7133,-3.7098,-3.6835,-3.6284,-3.6284,-3.6284,-3.6318,-3.6835,-3.6801,-5.3413,-5.733,-6.1293,-6.4106,-6.6609,-6.8605,-6.9316,-6.9789,-6.9519,-6.7523,-6.5662,-6.4174,-6.3396,-6.3226,-6.4647,-6.891,-7.1041,-7.3206,-7.6352,-7.5236,-7.2969,-6.9857,-6.9011,-6.7996,0.0,0.0,0.0,-7.1785,-7.2935,-7.3815,-7.4559,-7.4864,-7.4864,-7.4627,-7.3409,-7.2665,-7.2394,-7.1413,-7.0161,-6.8673,-6.7421,-6.6812,-6.6812,-6.6812,-6.6406,-6.5662,-6.4918,-6.4174,-6.3463,-6.2685,-6.1975,-6.1298,-6.1298,-6.0461,-5.9214,-5.9577,-5.8603,-5.7085,-5.6775,-5.5587,-5.4193,-5.4357,-5.4154,-5.3814,-5.3496,-5.3389,-5.3318,-5.2997,-5.2747,-5.2632,-5.2632,-5.2394,-5.2188,-5.2188,-5.2188,-5.205,-5.1597,-5.1287,-5.0976,-5.0493,-4.9528,-4.881,-4.881,-4.7596,-4.6355,-4.55,-4.501,-4.4423,-4.369,-4.2516,-4.1412,-4.0595,-3.9595,-3.9112,-3.941,-3.9146,-3.8974,-3.8974,-3.8974,-3.887,-3.8594,-3.8594,-3.8375,-3.7892,-3.7892,-3.7629,-3.7111,-3.7111,-3.7111,-3.7146,-3.765,-3.7456,-5.8963,-6.3026,-6.6441,-6.8833,-7.0432,-7.121,-7.0432,-6.8944,-6.688,-6.3903,-6.1332,-5.8964,0.0,0.0,-5.8355,-6.3565,-6.529,-6.803,-7.395,-7.2969,-7.1345,0.0,0.0,0.0,0.0,0.0,0.0,-7.1142,0.0,-7.3747,-7.4559,-7.5303,-7.5371,-7.4695,-7.3883,-7.3138,-7.2462,-7.0906,-6.9383,-6.7963,-6.7184,-6.6812,-6.6812,-6.6812,-6.6406,-6.5662,-6.4918,-6.4174,-6.3463,-6.2685,-6.1975,-6.1366,-6.1332,-6.0385,-5.9066,-5.9066,-5.8118,-5.7004,-5.8142,-5.7158,-5.5442,-5.5537,-5.512,-5.45,-5.45,-5.4465,-5.4463,-5.4463,-5.398,-5.3429,-5.3463,-5.2912,-5.2326,-5.236,-5.2326,-5.2291,-5.2222,-5.1636,-5.1149,-5.108,-4.9844,-4.8844,-4.881,-4.7603,-4.6389,-4.5569,-4.5432,-4.5121,-4.4449,-4.3724,-4.2965,-4.2206,-4.0767,-4.0181,-4.0963,-4.0284,-3.9802,-3.9802,-3.9767,-3.9457,-3.8732,-3.872,-3.872,-3.8663,-3.8663,-3.8629,-3.8594,-3.8594,-3.8594,-3.8594,-3.8629,-3.8249,-6.4177,-6.8051,-7.1165,-7.3477,-7.3477,-7.2597,-7.1312,-6.8132,-6.4444,-6.0892,-5.6596,-5.2807,0.0,0.0,0.0,-6.1298,-6.6508,0.0,-7.6454,-7.6657,0.0,-7.3713,0.0,-7.2191,-7.0331,-7.1142,0.0,0.0,-7.1954,-7.2665,-7.4525,-7.5303,-7.5608,-7.5439,-7.4153,-7.3409,-7.3206,-7.0669,-6.918,-6.8774,-6.7455,-6.6812,-6.6812,-6.6812,-6.6406,-6.5662,-6.4918,-6.4174,-6.3463,-6.2685,-6.2279,-6.2042,-6.1501,-6.0689,-5.981,-5.981,-5.8896,-5.7749,-5.8747,-5.7593,-5.562,-5.5655,-5.5179,-5.4567,-5.4567,-5.4259,-5.3915,-5.3915,-5.3941,-5.4134,-5.475,-5.4399,-5.4046,-5.4601,-5.4322,-5.3598,-5.2429,-5.205,-5.1567,-5.0493,-4.9976,-4.9528,-4.8879,-4.8017,-4.7155,-4.6397,-4.5776,-4.5328,-4.5121,-4.4458,-4.3931,-4.3759,-4.2861,-4.2378,-4.2585,-4.1895,-4.1388,-4.1388,-4.0894,-4.0515,-4.0342,-4.0308,-4.0032,-3.9422,-3.9422,-3.9146,-3.8594,-3.8594,-3.8594,-3.8594,-3.9146,-3.9008,-6.9222,-7.2616,-7.5067,-7.598,-7.483,-7.2665,-6.9553,-6.5628,-6.1197,-5.6156,-5.1995,0.0,-4.6317,-4.8477,0.0,0.0,0.0,0.0,-7.4728,-7.5811,-7.5912,0.0,-7.5608,0.0,-7.3409,-7.368,-7.395,0.0,-7.3172,-7.3308,-7.4559,-7.5303,-7.554,-7.5236,-7.4086,-7.3003,-7.2056,-7.0094,-6.891,-6.8571,-6.7387,-6.6812,-6.6812,-6.6812,-6.6406,-6.5662,0.0,-6.4174,-6.3463,-6.2685,-6.2212,-6.1839,-6.1061,-6.0317,-5.9573,-5.9235,-5.8592,-5.7986,-5.8499,-5.7785,-5.6665,-5.6468,-5.5961,-5.5451,-5.5451,-5.5246,-5.5002,-5.4627,-5.4655,-5.4851,-5.4954,-5.4743,-5.4598,-5.5046,-5.4805,-5.4287,-5.3425,-5.2977,-5.2287,-5.0769,-5.0218,-4.9735,-4.8947,-4.8465,-4.781,-4.6769,-4.6224,-4.5776,-4.5432,-4.5044,-4.4665,-4.4345,-4.3931,-4.3552,-4.3241,-4.2482,-4.1999,-4.1999,-4.1309,-4.0894,-4.0894,-4.0894,-4.0687,-4.0215,-4.0239,-4.0032,-3.9618,-3.9618,-3.9618,-3.9618,-4.0008,-3.9802,-7.3797,-7.6482,-7.8077,-7.7266,-7.5033,-7.1718,-6.6677,-6.211,-5.7171,-5.0947,0.0,-4.5399,-4.3234,-4.4925,-4.8409,-5.3721,0.0,-6.4072,-7.1616,-7.3308,-7.4627,-7.6927,-7.7198,-7.6927,-7.6217,-7.5574,-7.5405,-7.5845,-7.527,-7.4864,-7.4762,-7.5337,-7.5337,-7.4492,-7.3747,-7.2326,-7.0195,-6.9451,-6.8707,-6.7895,-6.7151,-6.6812,-6.6812,-6.6812,-6.644,-6.5797,-6.5053,-6.4343,-6.3599,-6.2956,-6.2212,-6.1366,-6.0554,-5.981,-5.9066,-5.8186,-5.7881,-5.7915,-5.8017,-5.7983,-5.7853,-5.7495,-5.7021,-5.6508,-5.6508,-5.6608,-5.6535,-5.5814,-5.5572,-5.5398,-5.4847,-5.4603,-5.4497,-5.4632,-5.4563,-5.4494,-5.4391,-5.377,-5.2839,-5.139,-5.0597,-4.9907,-4.9085,-4.8879,-4.8361,-4.7079,-4.6734,-4.6355,-4.5638,-4.5466,-4.5121,-4.4492,-4.4449,-4.4207,-4.3552,-4.2758,-4.2275,-4.2171,-4.1481,-4.0998,-4.0894,-4.0894,-4.0894,-4.0894,-4.0894,-4.0894,-4.0894,-4.0894,-4.0894,-4.0894,-4.0894,-4.0549,-7.6876,-7.8708,-7.9498,-7.8145,-7.4255,-6.9722,-6.5696,-5.8558,0.0,0.0,-4.4587,-4.1677,-4.0054,-4.3132,-4.78,-5.3653,-5.8863,-6.5019,-7.3105,-7.4864,-7.6149,0.0,-7.872,-7.8686,-7.8517,-7.8416,0.0,0.0,0.0,-7.6217,-7.554,-7.5642,-7.5067,-7.3713,-7.2969,-7.1819,-7.0195,-6.9451,-6.8707,-6.7895,-6.7151,-6.6812,-6.6812,-6.6812,-6.6745,-6.6576,-6.5831,0.0,-6.441,-6.4275,-6.3429,-6.211,-6.1366,-6.0622,-5.9742,-5.8389,-5.7881,-5.7983,-5.8592,-5.8423,-5.7918,-5.7819,-5.7313,-5.6738,-5.6738,-5.6366,-5.5857,-5.5721,-5.5315,-5.5076,-5.5722,-5.5068,-5.4441,-5.5189,-5.4943,-5.4356,-5.3736,-5.2977,-5.2149,-5.1287,-5.1011,-5.0666,-4.9942,-4.9223,-4.8706,-4.8465,-4.7362,-4.6562,-4.6424,-4.5811,-4.5363,-4.5225,-4.519,-4.5156,-4.5018,-4.432,-4.3655,-4.3034,-4.224,-4.155,-4.0929,-4.0894,-4.0894,-4.0894,-4.0894,-4.0894,-4.0894,-4.0894,-4.0894,-4.0894,-4.0894,-4.0825,-7.8556,-7.9904,-8.0209,-7.7976,-7.3477,-6.803,-6.1941,0.0,0.0,0.0,-4.188,-4.0392,-3.9706,-4.2625,0.0,-5.0473,-5.4871,-6.0622,-6.8808,-7.1278,0.0,-7.8044,-7.9228,-7.9667,0.0,-7.8991,0.0,0.0,0.0,-7.6115,-7.5709,-7.4965,-7.4052,-7.2969,-7.2225,-7.1312,-7.0195,-6.9451,-6.8707,-6.7895,-6.7151,-6.6812,-6.6812,-6.6812,-6.6812,-6.6779,-6.6,0.0,-6.5121,-6.4343,-6.3835,-6.3362,-6.1434,-6.0689,-6.0486,-5.8592,-5.7881,-5.7949,-5.8287,-5.8457,-5.8457,-5.8457,-5.8056,-5.7518,-5.7518,-5.7352,-5.7049,-5.6641,-5.6064,-5.5519,-5.5621,-5.4899,-5.4308,-5.475,-5.4675,-5.4425,-5.4046,-5.3391,-5.2735,-5.239,-5.1977,-5.1459,-5.07,-5.0252,-4.9706,-4.8913,-4.8189,-4.7493,-4.67,-4.6259,-4.5845,-4.5432,-4.5397,-4.5397,-4.5397,-4.4734,-4.4138,-4.3793,-4.3034,-4.2275,-4.1516,-4.1481,-4.1309,-4.0929,-4.0894,-4.0894,-4.0894,-4.0894,-4.0894,-4.0894,-4.0894,-4.0894,-7.9297,-8.0411,-8.0581,-7.7638,-7.2496,-6.6203,-5.8727,-5.2367,0.0,-4.1399,-4.0214,-4.0113,-4.0113,-4.2178,-4.4688,0.0,-5.0541,-5.5615,-6.3835,-6.7218,-7.1007,0.0,-7.8957,0.0,-8.0175,0.0,0.0,0.0,0.0,0.0,-7.5473,-7.4052,-7.3003,-7.2428,-7.1684,-7.0872,-6.9958,-6.9383,-6.8605,-6.7658,-6.7083,-6.6812,-6.6812,-6.6812,-6.6812,-6.6779,-6.6203,0.0,0.0,-6.4546,-6.4275,-6.414,-6.1738,-6.1129,-6.1264,-5.8964,-5.8118,-5.8118,-5.8118,-5.8524,-5.9032,-5.9201,-5.8838,-5.8371,-5.8371,-5.8343,-5.8247,-5.7598,-5.6883,-5.6167,-5.5451,-5.4833,-5.4316,-5.4242,-5.4335,-5.4431,-5.4463,-5.4046,-5.3598,-5.3425,-5.2908,-5.2218,-5.1494,-5.1188,-5.0671,-4.9465,-4.9016,-4.8361,-4.7217,-4.6941,-4.6527,-4.5742,-4.55,-4.5397,-4.5397,-4.4872,-4.4483,-4.4311,-4.3759,-4.3069,-4.2309,-4.2275,-4.1999,-4.1412,-4.1378,-4.1378,-4.1378,-4.1378,-4.1378,-4.1378,-4.124,-4.1136,-7.8657,-8.0006,-8.0581,-7.7638,-7.0906,-6.3734,-5.8896,0.0,-4.4276,-4.1644,-4.0561,-4.0113,-4.0113,-4.0865,-4.2692,-4.6312,0.0,-5.3281,-6.1535,-6.5764,-6.9992,-7.527,0.0,0.0,-8.0141,0.0,0.0,0.0,0.0,0.0,-7.4728,-7.3308,-7.2462,-7.2394,-7.1684,-7.0635,-6.9214,-6.9147,-6.8368,-6.6914,-6.6846,-6.6812,-6.6812,-6.6812,-6.6812,-6.6812,-6.6745,0.0,0.0,-6.6,-6.5358,-6.3599,-6.3328,-6.2821,-6.2009,-5.9742,-5.893,-5.893,-5.893,-5.8964,-5.9133,-5.9776,-5.9505,-5.893,-5.893,-5.846,-5.7954,-5.7887,-5.7311,-5.6599,-5.6062,-5.5349,-5.4667,-5.428,-5.4207,-5.4271,-5.4463,-5.446,-5.4218,-5.3529,-5.3356,-5.3046,-5.2252,-5.1563,-5.1045,-5.0907,-4.9706,-4.8741,-4.8603,-4.8017,-4.7293,-4.6596,-4.5845,-4.5397,-4.5397,-4.5328,-4.501,-4.4345,-4.4242,-4.3862,-4.3103,-4.3069,-4.3069,-4.3,-4.3,-4.3,-4.3,-4.3,-4.3,-4.2965,-4.224,-4.1895,-7.6864,-7.9448,-8.0344,-7.6487,-6.9688,-6.2415,-5.6596,0.0,-4.3132,-4.0426,-4.0011,-4.0113,-4.0113,-4.035,-4.117,-4.3098,-4.3775,-4.6646,-5.3957,-5.7002,-6.1806,-7.0669,-7.3308,0.0,0.0,0.0,0.0,0.0,0.0,0.0,-7.395,-7.2969,-7.2191,-7.1751,-7.1007,-7.0128,-6.9113,-6.8605,-6.7861,-6.6812,-6.6812,-6.6812,-6.6812,-6.6812,-6.6812,-6.6812,-6.6812,0.0,0.0,-6.6068,-6.5899,-6.5358,-6.4038,-6.3328,-6.2787,-6.052,-5.9404,-5.8964,-5.849,-5.893,-5.9708,-6.0013,-6.0216,-6.0216,-5.9302,-5.849,-5.7881,-5.7881,-5.7374,-5.6731,-5.6532,-5.5757,-5.4973,-5.4929,-5.4647,-5.4399,-5.4463,-5.4494,-5.4425,-5.4115,-5.408,-5.3839,-5.3046,-5.2701,-5.2321,-5.1808,-5.0843,-5.0045,-4.9597,-4.8844,-4.8086,-4.7355,-4.6569,-4.5914,-4.5432,-4.5397,-4.5259,-4.4975,-4.4975,-4.463,-4.3897,-4.3862,-4.3655,-4.3207,-4.3207,-4.3207,-4.3207,-4.3207,-4.3207,-4.3172,-4.2861,-4.2723,-7.3747,-7.7063,-7.8517,-7.5134,-6.8335,-6.0994,-5.5141,-4.824,-4.2354,-3.9817,-3.974,-4.0113,-4.0113,-4.0113,-4.0282,-4.0798,-4.0798,-4.2888,-4.8917,-5.142,-5.619,0.0,0.0,-7.1379,0.0,0.0,0.0,0.0,0.0,0.0,-7.3477,-7.2394,-7.1515,-7.1007,-7.0466,-6.9722,-6.8741,-6.8199,-6.7523,-6.6812,-6.6812,-6.6812,-6.6812,-6.6812,-6.6812,-6.6812,-6.6812,0.0,0.0,-6.6136,-6.6203,-6.6305,-6.4512,-6.3835,-6.3531,-6.1028,-5.9911,-5.9505,-5.8287,-5.8863,-6.0047,-5.9844,-6.0182,-6.0452,-5.9607,-5.8829,-5.822,-5.822,-5.7679,-5.707,-5.6867,-5.6027,-5.5315,-5.5583,-5.5304,-5.5056,-5.5152,-5.5184,-5.5115,-5.4874,-5.4839,-5.4598,-5.3873,-5.3529,-5.3218,-5.2666,-5.1912,-5.1252,-5.0735,-4.9976,-4.9189,-4.8459,-4.77,-4.681,-4.5845,-4.5742,-4.5638,-4.5432,-4.5397,-4.5156,-4.463,-4.463,-4.4354,-4.3862,-4.3862,-4.3862,-4.3862,-4.3862,-4.3862,-4.3862,-4.3621,-4.3414,-6.9248,-7.2428,-7.4492,-7.3713,-6.6745,-5.9167,-5.5446,-4.8206,-4.188,-4.0417,-4.0079,-4.0113,-4.0113,-4.0113,-4.0113,-4.0113,-4.1331,-4.3842,-4.8376,-5.1589,-5.5446,0.0,0.0,-6.6711,0.0,0.0,0.0,0.0,0.0,0.0,-7.3477,-7.1413,-7.0195,-7.0195,-7.0195,-6.9451,-6.7929,-6.7895,-6.7523,-6.6812,-6.6812,-6.6812,-6.6812,-6.6812,-6.6812,-6.6812,0.0,0.0,0.0,-6.6508,-6.6373,-6.5628,-6.4884,-6.458,-6.4208,-6.1197,-6.0588,-6.096,-5.8693,-5.8863,-5.9979,-5.9268,-5.9032,-5.9167,-5.9877,-5.9573,-5.8998,-5.8998,-5.8457,-5.7712,-5.7002,-5.6258,-5.5786,-5.6099,-5.6201,-5.6303,-5.6705,-5.6771,-5.6529,-5.577,-5.5598,-5.5324,-5.4632,-5.3873,-5.3391,-5.3391,-5.2701,-5.2188,-5.2153,-5.1533,-5.0804,-5.0045,-4.9258,-4.8155,-4.6734,-4.6596,-4.6251,-4.5466,-4.5397,-4.5397,-4.5397,-4.5397,-4.5363,-4.5363,-4.5363,-4.5363,-4.5363,-4.5363,-4.5363,-4.5363,-4.463,-4.3897,-6.1535,-6.4377,-6.5831,-6.4038,-5.9573,-5.46,-5.0879,-4.6007,-4.188,-4.0417,-4.0113,-4.0113,-4.0113,-4.0113,-4.062,-4.2117,-4.276,-4.4113,-4.709,0.0,0.0,-6.1298,-6.8538,-7.3646,0.0,0.0,0.0,0.0,0.0,0.0,-7.2732,-7.1109,-7.0195,-7.0195,-6.918,-6.8402,-6.7895,-6.7421,-6.7049,-6.6812,-6.6812,-6.7083,-6.7557,-6.7557,-6.7557,0.0,0.0,0.0,0.0,-6.6711,-6.6677,-6.644,-6.6203,-6.5493,-6.4377,-6.2381,-6.1501,-6.096,-5.8693,-5.8863,-5.9979,-5.9268,-5.9708,-6.052,-6.0216,-5.9235,-5.8254,-5.8254,-5.8457,-5.849,-5.7746,-5.7109,-5.6673,-5.6813,-5.6611,-5.6438,-5.6572,-5.6706,-5.6564,-5.577,-5.5598,-5.5391,-5.4632,-5.4322,-5.4149,-5.4149,-5.3529,-5.3011,-5.3011,-5.2356,-5.1567,-5.0838,-5.0499,-4.9562,-4.7527,-4.7327,-4.7017,-4.6259,-4.6224,-4.5949,-4.5432,-4.5397,-4.5397,-4.5397,-4.5397,-4.5397,-4.5397,-4.5397,-4.5397,-4.5397,-4.5156,-4.4665,-5.5683,-5.8558,-5.9945,-5.8524,-5.5175,-5.1386,-4.8206,-4.4587,-4.1542,-4.035,-4.0113,-4.0113,-4.0113,-4.0113,-4.0553,-4.1914,-4.2388,-4.347,0.0,0.0,0.0,-6.1535,0.0,0.0,0.0,0.0,0.0,0.0,0.0,0.0,-7.1988,-7.0601,-6.9654,-6.935,-6.8402,-6.776,-6.7489,-6.7049,-6.6812,-6.6812,-6.7083,-6.732,-6.7489,-6.776,-6.776,0.0,0.0,0.0,0.0,-6.6812,-6.6812,-6.6745,-6.6203,-6.5425,-6.4343,-6.2279,-6.1603,-6.1332,-5.8795,-5.8863,-5.9945,-5.893,-5.9438,-6.0283,-5.9505,-5.9235,-5.8998,-5.8118,-5.8626,-5.9201,-5.8152,-5.7652,-5.742,-5.7525,-5.7326,-5.7193,-5.7329,-5.7499,-5.729,-5.6255,-5.6046,-5.5736,-5.4701,-5.4494,-5.4494,-5.4494,-5.4115,-5.3839,-5.3839,-5.3149,-5.2494,-5.2046,-5.1459,-5.0528,-4.9114,-4.843,-4.7775,-4.7079,-4.7044,-4.6672,-4.588,-4.5845,-4.5707,-4.5397,-4.5397,-4.5397,-4.5397,-4.5397,-4.5397,-4.5397,-4.5397,-4.5121,0.0,-5.4363,-5.5919,-5.5852,-5.2706,-4.9052,-4.6887,-4.3707,0.0,-4.0248,-4.0113,-4.0146,-4.0248,-4.018,-4.0214,-4.0519,-4.1102,-4.2591,0.0,-4.956,0.0,0.0,-6.7557,0.0,0.0,0.0,0.0,0.0,0.0,0.0,-7.1278,-6.9891,-6.8741,-6.7929,-6.7861,-6.7489,-6.6812,-6.6812,-6.6812,-6.6812,-6.7557,-6.7523,-6.6846,-6.7557,-6.7489,0.0,0.0,0.0,0.0,-6.6779,-6.6779,-6.6609,-6.5222,-6.4613,-6.4174,-6.1264,-6.1095,-6.1873,-5.893,-5.8863,-5.9877,-5.8423,-5.8457,-5.8896,-5.8186,-5.9471,-6.0757,-5.8524,-5.893,-5.9674,-5.8254,-5.7881,-5.7954,-5.8135,-5.8205,-5.8312,-5.8666,-5.8771,-5.8428,-5.7084,-5.684,-5.6322,-5.4839,-5.4529,-5.4494,-5.4494,-5.4494,-5.4494,-5.4494,-5.3908,-5.346,-5.3425,-5.2114,-5.1218,-5.1114,-4.974,-4.8568,-4.781,-4.7775,-4.7458,-4.6734,-4.6631,-4.6251,-4.55,-4.5432,-4.5397,-4.5397,-4.5397,-4.5397,-4.5397,-4.5397,-4.5397,-4.6307,0.0,-4.7293,-4.6718,-4.5771,-4.4553,0.0,-4.1847,-4.1001,-4.0248,-4.0113,-4.0451,-4.1568,-4.0857,-4.123,-4.4654,-4.4891,-4.5669,-4.8646,0.0,0.0,-6.8605,-7.2834,0.0,0.0,0.0,0.0,0.0,0.0,-7.1244,-7.05,-6.9586,-6.8741,-6.7929,-6.7354,-6.6981,-6.6812,-6.6812,-6.6812,-6.6812,-6.7557,-6.7523,-6.6846,-6.7557,-6.7184,0.0,0.0,0.0,-6.5222,-6.6339,-6.6474,-6.5899,-6.5561,-6.4749,-6.3565,-6.1704,-6.1264,-6.1197,-5.8727,-5.8863,-5.9945,-5.9032,-5.8863,-5.8998,-5.8795,-5.9505,-6.0047,-5.8355,-5.8558,-5.9066,-5.8118,-5.7881,-5.7918,-5.7954,-5.8063,-5.8241,-5.8348,-5.8596,-5.8531,-5.7569,-5.7085,-5.6495,-5.5529,-5.4874,-5.4494,-5.4494,-5.4494,-5.4494,-5.4494,-5.4356,-5.4046,-5.346,-5.308,-5.239,-5.1218,-5.0252,-4.939,-4.8568,-4.8534,-4.8189,-4.7465,-4.6906,-4.6527,-4.632,-4.5707,-4.5397,-4.5397,-4.5397,-4.5397,-4.5397,-4.5397,-4.5397,-4.4615,-4.4852,-4.4925,-4.4147,-4.3673,-4.3172,-4.2388,-4.1407,-4.0663,-4.0595,-4.035,-4.0451,-4.1576,-4.1136,-4.161,-4.4722,-4.55,0.0,0.0,0.0,-6.5899,-7.0737,-7.368,0.0,0.0,0.0,0.0,0.0,0.0,-7.0466,-6.9722,-6.8977,-6.8199,-6.7421,-6.7015,-6.6812,-6.6812,-6.6812,-6.6812,-6.6812,-6.7218,-6.7015,-6.6305,-6.6711,-6.644,0.0,0.0,0.0,-6.5662,-6.6102,-6.6271,-6.6102,-6.5087,-6.4208,-6.3294,-6.1434,-6.0757,-6.0486,-5.8558,-5.8423,-5.9032,-5.8626,-5.849,-5.849,-5.849,-5.8761,-5.893,-5.8118,-5.8423,-5.8829,-5.8084,-5.7881,-5.7881,-5.7881,-5.7991,-5.8063,-5.8171,-5.8384,-5.8321,-5.7604,-5.702,-5.6398,-5.5641,-5.5223,-5.4908,-5.4563,-5.4805,-5.4908,-5.4563,-5.4494,-5.4356,-5.3942,-5.3598,-5.2908,-5.1735,-5.0942,-5.0183,-4.9424,-4.9327,-4.901,-4.8224,-4.781,-4.7293,-4.6631,-4.5811,-4.5397,-4.5397,-4.5397,-4.5397,-4.5397,-4.5397,-4.5397,-4.4886,-4.5466,-4.5771,-4.4688,-4.4012,-4.3511,-4.3301,-4.1779,-4.062,-4.1238,0.0,0.0,0.0,-4.1711,0.0,0.0,0.0,0.0,-5.7949,-6.2144,-6.6136,-7.0906,-7.2969,0.0,0.0,0.0,0.0,0.0,0.0,-6.9857,-6.9147,-6.8335,-6.7557,-6.6846,-6.6812,-6.6812,-6.6812,-6.6812,-6.6745,-6.6643,-6.6779,-6.6305,-6.5358,-6.5595,-6.5561,-6.5358,0.0,0.0,-6.644,-6.5899,-6.6,-6.6271,-6.4174,-6.326,-6.2922,-6.0723,-5.9945,-5.9742,-5.849,-5.7983,-5.7881,-5.7881,-5.7881,-5.7881,-5.7881,-5.7881,-5.7881,-5.7881,-5.8355,-5.8693,-5.8051,-5.7881,-5.7881,-5.7881,-5.7881,-5.7954,-5.8099,-5.8205,-5.8037,-5.7566,-5.7021,-5.6404,-5.5787,-5.5711,-5.5464,-5.4741,-5.5187,-5.5357,-5.4598,-5.4494,-5.4494,-5.4494,-5.3942,-5.3218,-5.2257,-5.1602,-5.0907,-5.0045,-5.0011,-4.9666,-4.881,-4.881,-4.8155,-4.6803,-4.6086,-4.5742,-4.5742,-4.5742,-4.5673,-4.5569,-4.5569,-4.55,-4.6109,-4.6989,-4.6891,-4.422,-4.4012,-4.4073,-4.276,-4.2185,-4.1982,0.0,0.0,0.0,0.0,-4.4107,-4.4959,0.0,0.0,-5.6596,0.0,0.0,-6.9248,-7.1921,0.0,0.0,0.0,0.0,0.0,0.0,0.0,-6.9857,-6.9147,-6.8335,-6.7557,-6.6846,-6.6812,-6.6812,-6.6812,-6.6812,-6.6508,-6.5865,-6.6508,-6.5764,-6.3903,-6.5121,-6.5019,-6.3903,0.0,-6.5392,-6.4986,-6.5493,-6.5392,-6.4783,-6.3193,-6.2178,-6.1434,-5.9776,-5.9167,-5.9167,-5.893,-5.8423,-5.7881,-5.7881,-5.7881,-5.7881,-5.7881,-5.7881,-5.7881,-5.7881,-5.7983,-5.8017,-5.7915,-5.7881,-5.7881,-5.7881,-5.7881,-5.7918,-5.7918,-5.8063,-5.8137,-5.8071,-5.7565,-5.7158,-5.7021,-5.6644,-5.6126,-5.5371,-5.5467,-5.5357,-5.4598,-5.4494,-5.4494,-5.4494,-5.4391,-5.377,-5.2291,-5.2084,-5.1459,-5.008,-5.0011,-4.9666,-4.881,-4.881,-4.8396,-4.7534,-4.7396,-4.7327,-4.7327,-4.7327,-4.7017,-4.6424,-4.6424,-4.6052,-4.5297,-4.5781,-4.5824,-4.537,-4.5805,-4.6075,-4.4959,-4.3775,-4.3031,-4.3436,0.0,0.0,0.0,0.0,-4.8748,-5.4126,0.0,-6.1873,-6.5764,-6.7895,-6.9925,0.0,0.0,0.0,0.0,0.0,0.0,0.0,0.0,0.0,-6.9079,-6.7963,-6.7354,-6.7387,-6.7015,-6.6609,-6.6203,-6.6609,-6.644,-6.5662,-6.5256,-6.4715,-6.4106,-6.4377,-6.458,-6.4715,0.0,-6.5493,-6.5189,-6.5121,-6.4681,-6.3869,-6.2381,-6.1332,-6.0486,-5.8964,-5.8423,-5.8423,-5.8423,-5.8186,-5.7881,-5.7881,-5.7881,-5.7881,-5.7881,-5.7881,-5.7881,-5.7881,-5.7881,-5.7881,-5.7881,-5.7881,-5.7881,-5.7881,-5.7881,-5.7881,-5.7881,-5.7954,-5.8027,-5.8027,-5.7593,-5.7188,-5.7188,-5.7055,-5.6713,-5.6094,-5.6056,-5.5847,-5.5187,-5.477,-5.4494,-5.4494,-5.4494,-5.4046,-5.2942,-5.2873,-5.2046,-5.0114,-5.0011,-4.9838,-4.9459,-4.9016,-4.8637,-4.8293,-4.7879,-4.7672,-4.7672,-4.7672,-4.7527,-4.7217,-4.7217,-4.6983,-4.4761,-4.4845,-4.4985,-4.6389,-4.7031,-4.7402,-4.7767,-4.6346,-4.5297,-4.6447,0.0,0.0,0.0,-4.8308,0.0,-5.9505,-6.3294,-6.6,-6.7861,-6.9282,-7.077,0.0,0.0,0.0,0.0,0.0,0.0,0.0,0.0,0.0,-6.8808,-6.7692,-6.7151,-6.7387,-6.6846,-6.6271,-6.5696,-6.6102,-6.6,-6.5425,-6.4309,-6.4072,-6.458,-6.3835,-6.4208,-6.5425,-6.5256,-6.5189,-6.5121,-6.4208,-6.3497,-6.2854,-6.1366,-6.0283,-5.9438,-5.8321,-5.7881,-5.7881,-5.7881,-5.7881,-5.7881,-5.7881,-5.7881,-5.7881,-5.7881,-5.7881,-5.7881,-5.7881,-5.7881,-5.7881,-5.7881,-5.7881,-5.7881,-5.7881,-5.7881,-5.7881,-5.7881,-5.7881,-5.7881,-5.7881,-5.7586,-5.7284,-5.7284,-5.7392,-5.7294,-5.6713,-5.6507,-5.623,-5.5639,-5.4913,-5.4431,-5.4494,-5.4494,-5.4218,-5.346,-5.3218,-5.239,-5.0631,-5.0355,-5.0252,-5.0252,-4.9528,-4.9085,-4.9085,-4.8534,-4.8252,-4.8252,-4.8252,-4.8148,-4.7948,-4.7948,-4.7844,-4.5833,-4.5992,-4.5747,-4.6372,-4.6043,-4.6511,-5.0071,-5.0236,-5.0236,-5.2401,-5.2198,0.0,0.0,-5.2164,-5.5953,-6.1332,-6.529,-6.8673,-7.1582,0.0,-7.324,0.0,0.0,0.0,0.0,0.0,0.0,0.0,0.0,0.0,-6.803,-6.7895,-6.7218,-6.5899,-6.5797,-6.573,-6.5696,-6.5053,-6.4749,-6.4681,-6.458,-6.4546,-6.458,-6.3835,-6.3937,-6.4647,-6.3971,-6.3666,-6.3565,-6.211,-6.1501,-6.1332,-5.9776,-5.8727,-5.8051,-5.7915,-5.7881,-5.7881,-5.7881,-5.7881,-5.7881,-5.7881,-5.7881,-5.7881,-5.7881,-5.7881,-5.7881,-5.7881,-5.7881,-5.7881,-5.7881,-5.7881,-5.7881,-5.7881,-5.7881,-5.7881,-5.7881,-5.7881,-5.7881,-5.7881,-5.7884,-5.785,-5.785,-5.7995,-5.7901,-5.7152,-5.6576,-5.6029,-5.551,-5.472,-5.4303,-5.4463,-5.4494,-5.4218,-5.346,-5.2735,-5.2222,-5.205,-5.1425,-5.1045,-5.1045,-5.0321,-4.9907,-4.9907,-4.9873,-4.9838,-4.9838,-4.9838,-4.9459,-4.8706,-4.8706,-4.8327,-4.4339,-4.499,-4.5606,-4.6465,-4.711,-4.813,-5.0485,-5.1766,-5.2874,-5.4324,-5.5134,0.0,0.0,0.0,-6.0536,-6.4471,-6.8267,-7.1244,-7.2868,-7.3308,0.0,0.0,0.0,0.0,0.0,0.0,0.0,0.0,0.0,0.0,-6.8605,-6.7286,-6.6474,-6.6406,-6.5493,-6.4783,-6.4343,-6.4512,-6.414,-6.3226,-6.37,-6.4174,-6.458,-6.3835,-6.3666,-6.3903,-6.3632,-6.299,-6.211,-6.1535,-6.0723,-5.9776,-5.8727,-5.8152,-5.7881,-5.7881,-5.7881,-5.7881,-5.7881,-5.7881,-5.7881,-5.7881,-5.7881,-5.7881,-5.7881,-5.7881,-5.7881,-5.7881,-5.7881,-5.7881,-5.7881,-5.7881,-5.7881,-5.7881,-5.7881,-5.7881,-5.7881,-5.7881,-5.7881,-5.7881,-5.7881,-5.7881,-5.7881,-5.7954,-5.7959,-5.7831,-5.6813,-5.6031,-5.5927,-5.4831,-5.4143,-5.4303,-5.4431,-5.4391,-5.4115,-5.3804,-5.3632,-5.3632,-5.2046,-5.1114,-5.1114,-5.039,-5.0011,-5.0011,-5.0011,-5.0011,-5.0011,-5.0011,-4.9838,-4.9562,-4.9562,-4.9424,-4.3232,-4.3755,-4.4606,-4.5967,-4.749,-4.9416,-5.2167,-5.4343,-5.6322,-5.8274,-5.8451,-5.8358,-5.8747,0.0,0.0,0.0,-6.962,-7.2326,-7.3037,-7.3341,0.0,0.0,0.0,0.0,0.0,0.0,0.0,0.0,0.0,0.0,0.0,-6.7015,-6.6068,-6.6102,-6.4918,-6.4005,-6.3531,-6.3768,-6.3531,-6.2753,-6.2787,-6.3328,-6.4241,-6.326,-6.2956,-6.3125,-6.2415,-6.1535,-6.0554,-6.0317,-5.9607,-5.8592,-5.8084,-5.7881,-5.7881,-5.7881,-5.7881,-5.7881,-5.7881,-5.7881,-5.7881,-5.7881,-5.7881,-5.7881,-5.7881,-5.7881,-5.7881,-5.7881,-5.7881,-5.7881,-5.7881,-5.7881,-5.7881,-5.7881,-5.7881,-5.7881,-5.7881,-5.7881,-5.7881,-5.7881,-5.7881,-5.7881,-5.7881,-5.7881,-5.7954,-5.8063,-5.708,-5.6232,-5.6133,-5.5007,-5.4219,-5.4145,-5.4303,-5.4399,-5.4399,-5.4463,-5.4494,-5.4494,-5.2839,-5.1735,-5.1459,-5.0735,-5.0252,-5.0011,-5.0011,-5.0011,-5.0011,-5.0252,-5.0252,-5.0011,-5.0252,-5.0218,-4.2842,-4.2677,-4.278,-4.4725,-4.6912,-5.0025,-5.5651,-5.8418,-6.1037,-6.5258,-6.2803,-6.0068,-6.0813,-5.989,0.0,-6.4952,-6.8842,-7.1548,-7.2293,0.0,0.0,0.0,0.0,0.0,0.0,0.0,0.0,0.0,0.0,0.0,0.0,-6.7184,-6.6136,-6.4647,-6.3869,-6.3497,-6.3497,-6.2753,-6.2753,-6.3463,-6.1975,-6.2076,-6.3463,-6.1975,-6.167,-6.2245,-5.9979,-5.9032,-5.893,-5.8186,-5.7881,-5.7881,-5.7881,-5.7881,-5.7881,-5.7881,-5.7881,-5.7881,-5.7881,-5.7881,-5.7881,-5.7881,-5.7881,-5.7881,-5.7881,-5.7881,-5.7881,-5.7881,-5.7881,-5.7881,-5.7881,-5.7881,-5.7881,-5.7881,-5.7881,-5.7915,-5.7881,-5.7881,-5.7915,-5.7881,-5.7881,-5.7881,-5.7881,-5.7881,-5.7881,-5.7881,-5.7273,-5.6599,-5.6062,-5.5281,-5.46,-5.4049,-5.411,-5.4207,-5.4207,-5.4367,-5.4494,-5.4494,-5.3804,-5.3046,-5.2222,-5.1498,-5.0769,-5.0011,-5.0011,-5.0011,-5.0011,-5.0769,-5.0735,-5.0045,-5.0769,-5.0735,-4.2726,-4.3788,-4.5417,-4.6596,0.0,-5.4451,-5.8319,-5.9691,-6.1721,-6.729,-6.6206,-6.4179,-6.4035,-6.3631,0.0,-6.5202,-6.7574,-6.9715,-7.1175,0.0,0.0,0.0,0.0,0.0,0.0,0.0,0.0,0.0,0.0,-6.7387,-6.7151,-6.5933,-6.4816,-6.3869,-6.2618,-6.1704,-6.1129,-6.0892,-6.0622,-6.0351,-6.0419,-6.0994,-6.1941,-6.0926,-6.0283,-5.9979,-5.9302,-5.8727,-5.822,-5.7983,-5.7881,-5.7881,-5.7881,-5.7881,-5.7881,-5.7881,-5.7881,-5.7881,-5.7881,-5.7881,-5.7881,-5.7881,-5.7881,-5.7881,-5.7881,-5.7881,-5.7881,-5.7881,-5.7881,-5.7881,-5.7881,-5.7881,-5.7881,-5.7881,-5.8287,-5.8524,-5.8017,-5.8321,-5.8524,-5.7983,-5.7881,-5.7881,-5.7881,-5.7881,-5.7881,-5.7881,-5.7273,-5.6395,-5.5177,-5.4907,-5.4567,-5.3851,-5.3948,-5.4045,-5.4045,-5.4207,-5.4303,-5.4303,-5.4193,-5.3598,-5.2257,-5.1981,-5.1528,-5.0804,-5.1287,-5.1563,-5.1563,-5.177,-5.174,-5.1563,-5.1252,-5.1011,-4.2395,-4.4057,-4.6492,-4.8249,-5.2269,-5.6865,-6.1106,0.0,0.0,0.0,-6.8593,-6.6778,-6.6527,-6.5478,0.0,-6.553,-6.6876,-6.8395,-6.9794,-7.0276,0.0,0.0,0.0,0.0,0.0,0.0,0.0,0.0,-6.7218,-6.6812,-6.6812,-6.485,-6.3666,-6.3531,-6.2076,-6.1061,-6.0588,-6.0588,-6.0047,-5.9032,-5.9471,-5.9776,-5.9945,-5.9742,-5.9438,-5.8998,-5.8693,-5.8321,-5.7881,-5.7881,-5.7881,-5.7881,-5.7881,-5.7881,-5.7881,-5.7881,-5.7881,-5.7881,-5.7881,-5.7881,-5.7881,-5.7881,-5.7881,-5.7881,-5.7881,-5.7881,-5.7881,-5.7881,-5.7881,-5.7881,-5.7881,-5.7881,-5.7881,-5.7881,-5.8254,-5.8457,-5.7983,-5.8254,-5.8423,-5.7983,-5.7881,-5.7881,-5.7881,-5.7881,-5.7881,-5.7881,-5.7273,-5.6359,-5.5209,-5.4839,-5.4432,-5.3719,-5.3783,-5.3882,-5.3882,-5.4045,-5.411,-5.411,-5.4271,-5.3817,-5.2609,-5.2636,-5.2321,-5.1533,-5.1946,-5.2188,-5.2188,-5.2528,-5.2498,-5.2188,-5.208,-5.1701,-4.2198,-4.3956,-4.6641,-4.9992,-5.3928,0.0,-6.4111,-6.8199,-7.1054,-7.1926,0.0,-6.819,-6.8349,-6.6042,-6.4604,-6.6019,-6.6822,-6.7613,-6.8617,-6.9435,0.0,0.0,0.0,0.0,-6.9011,-6.8267,-6.776,-6.7692,-6.6948,-6.6508,-6.6508,-6.3903,-6.2685,-6.3294,-6.1941,-6.1129,-6.0994,-6.0994,-6.0283,-5.893,-5.893,-5.8558,-5.7915,-5.8592,-5.893,-5.8863,-5.8186,-5.7881,-5.7881,-5.7881,-5.7881,-5.7881,-5.7881,-5.7881,-5.7881,-5.7881,-5.7881,-5.7881,-5.7881,-5.7848,-5.778,-5.778,-5.778,-5.778,-5.778,-5.7848,-5.7881,-5.7881,-5.7881,-5.7881,-5.7881,-5.7881,-5.7881,-5.7881,-5.7949,-5.7983,-5.7915,-5.7949,-5.7983,-5.7915,-5.7881,-5.7881,-5.7881,-5.7881,-5.7881,-5.7881,-5.7273,-5.6528,-5.5818,-5.5074,-5.4329,-5.3585,-5.3618,-5.3684,-5.3684,-5.3849,-5.398,-5.398,-5.411,-5.3898,-5.321,-5.3401,-5.3115,-5.2291,-5.236,-5.2394,-5.2394,-5.3149,-5.3115,-5.2429,-5.3115,-5.2666,-4.3996,-4.5383,0.0,-5.2832,-5.8746,-6.4285,-6.7681,-6.9277,-7.0073,-7.0063,-7.0021,-6.9741,-6.9069,-6.7457,-6.6524,-6.7468,-6.7735,-6.8159,-6.9121,-7.004,-7.0097,-6.8562,-6.9316,-6.9485,-6.8267,-6.7489,-6.6812,-6.6203,-6.4952,-6.4241,-6.4241,-6.3057,-6.2212,-6.1806,-6.0858,-5.981,-5.8626,-5.8626,-5.8457,-5.8118,-5.8118,-5.8051,-5.7881,-5.8051,-5.8118,-5.8118,-5.7949,-5.7881,-5.7881,-5.7881,-5.7881,-5.7881,-5.7881,-5.7881,-5.7881,-5.7881,-5.7881,-5.7881,-5.7881,-5.7509,-5.7036,-5.7036,-5.7036,-5.7036,-5.7036,-5.7442,-5.7881,-5.7881,-5.7881,-5.7881,-5.7881,-5.7881,-5.7881,-5.7881,-5.8355,-5.8592,-5.8017,-5.8355,-5.8592,-5.8017,-5.7881,-5.7881,-5.7881,-5.7881,-5.7881,-5.7881,-5.7273,-5.6528,-5.5818,-5.5074,-5.4329,-5.3585,-5.3551,-5.3551,-5.3551,-5.3651,-5.3783,-5.3783,-5.3948,-5.4042,-5.3967,-5.4158,-5.3908,-5.3149,-5.3736,-5.4011,-5.4011,-5.4184,-5.4184,-5.4011,-5.3598,-5.3218,-4.3388,-4.5673,0.0,-5.663,0.0,-6.7122,-6.8985,-6.9528,-6.969,-6.9749,-7.0003,-6.971,-6.8311,-6.7621,-6.7131,-6.6799,-6.6856,-6.709,-6.7591,-6.8518,-6.8774,-6.7892,-6.8466,-6.8374,-6.6981,-6.617,-6.5459,-6.4715,-6.3599,-6.3125,-6.3497,-6.211,-6.1298,-6.1298,-6.0182,-5.9201,-5.8423,-5.8423,-5.8254,-5.7881,-5.7881,-5.7712,-5.7374,-5.7712,-5.7881,-5.7881,-5.7881,-5.7881,-5.7881,-5.7881,-5.7881,-5.7881,-5.7881,-5.7881,-5.7881,-5.7881,-5.7881,-5.7881,-5.7881,-5.7408,-5.6799,-5.6799,-5.6562,-5.6359,-5.6697,-5.707,-5.7442,-5.778,-5.7881,-5.7881,-5.7881,-5.7881,-5.7881,-5.7881,-5.8186,-5.8355,-5.7983,-5.8186,-5.8355,-5.7949,-5.7881,-5.7881,-5.7881,-5.7881,-5.7881,-5.7881,-5.7577,-5.6934,-5.5817,-5.5378,-5.4702,-5.3619,-5.3518,-5.3518,-5.3518,-5.3551,-5.3618,-5.3618,-5.375,-5.3882,-5.398,-5.4143,-5.41,-5.3817,-5.4161,-5.4335,-5.4239,-5.4335,-5.4367,-5.4367,-5.4052,-5.3736,-4.2294,-4.6098,-5.1831,-5.9371,-6.4446,0.0,-6.8662,-6.893,-6.9185,-6.951,-6.9423,-6.8798,-6.7321,-6.7152,-6.685,-6.5624,-6.5647,-6.5746,-6.5613,-6.6333,-6.6853,-6.6877,-6.6843,-6.6424,-6.5425,-6.4647,-6.3971,-6.3362,-6.2618,-6.2415,-6.2888,-6.1129,-6.0351,-6.0892,-5.9674,-5.8896,-5.8626,-5.8626,-5.8254,-5.7509,-5.7509,-5.7205,-5.663,-5.7239,-5.7509,-5.7509,-5.7645,-5.7712,-5.7679,-5.7577,-5.7577,-5.7679,-5.7577,-5.7509,-5.7543,-5.7645,-5.7611,-5.7543,-5.7645,-5.7137,-5.6427,-5.6427,-5.6021,-5.5649,-5.6393,-5.6697,-5.6934,-5.7679,-5.7881,-5.7881,-5.7881,-5.7881,-5.7881,-5.7881,-5.7881,-5.7881,-5.7881,-5.7881,-5.7881,-5.7881,-5.7881,-5.7881,-5.7881,-5.7881,-5.7881,-5.7881,-5.778,-5.7205,-5.5886,-5.5615,-5.5006,-5.3653,-5.3518,-5.3518,-5.3518,-5.3518,-5.3518,-5.3518,-5.3618,-5.3684,-5.3717,-5.3849,-5.4013,-5.411,-5.4143,-5.411,-5.398,-5.411,-5.4175,-5.4207,-5.4367,-5.4152,-4.3044,0.0,-5.4848,0.0,-6.2178,-6.6201,0.0,0.0,-6.7212,0.0,-6.7164,-6.7355,-6.7459,-6.6519,-6.5657,-6.5459,-6.5647,-6.558,-6.4914,-6.513,-6.4984,-6.3915,-6.3781,-6.3795,-6.3795,-6.3125,-6.2651,-6.255,-6.1873,-6.1197,-6.0588,-6.0283,-5.9877,-5.9336,-5.9133,-5.8389,-5.7103,-5.7103,-5.6731,-5.6021,-5.6021,-5.5953,-5.5852,-5.5953,-5.6021,-5.6055,-5.6664,-5.6934,-5.69,-5.6258,-5.6393,-5.69,-5.6258,-5.6021,-5.6089,-5.6697,-5.6562,-5.6089,-5.6731,-5.6055,-5.4871,-5.4871,-5.4837,-5.4871,-5.5649,-5.6292,-5.6934,-5.7679,-5.7881,-5.7881,-5.7881,-5.7881,-5.7881,-5.7881,-5.7881,-5.7881,-5.7881,-5.7881,-5.7881,-5.7881,-5.7881,-5.7881,-5.7881,-5.7881,-5.7881,-5.7881,-5.734,-5.6664,-5.5818,-5.5141,-5.4431,-5.3585,-5.3518,-5.3518,-5.3518,-5.3518,-5.3518,-5.3518,-5.3551,-5.3584,-5.3717,-5.375,-5.375,-5.3783,-5.3948,-5.4013,-5.398,-5.4013,-5.4078,-5.4207,-5.4239,-5.4267,-4.422,-4.7934,-5.2333,0.0,-5.998,-6.2857,-6.5015,-6.5124,-6.4905,-6.5392,-6.4927,-6.4561,-6.5105,-6.5326,-6.4895,-6.3272,-6.3511,-6.3639,-6.278,-6.2891,-6.2824,-6.2271,-6.2293,-6.2119,-6.1475,-6.1221,-6.0926,-6.052,-6.0182,-5.9877,-5.9505,-5.9099,-5.8524,-5.778,-5.7374,-5.6867,-5.619,-5.5784,-5.5412,-5.5074,-5.5074,-5.5074,-5.5074,-5.5074,-5.531,-5.575,-5.6055,-5.619,-5.6156,-5.5852,-5.5919,-5.6156,-5.5852,-5.5681,-5.575,-5.6089,-5.5987,-5.5749,-5.6089,-5.548,-5.46,-5.46,-5.4329,-5.4194,-5.5378,-5.5953,-5.6427,-5.7577,-5.7881,-5.7881,-5.7881,-5.7881,-5.7881,-5.7881,-5.7881,-5.7881,-5.7881,-5.7881,-5.7881,-5.7881,-5.7881,-5.7881,-5.7881,-5.7881,-5.7881,-5.7881,-5.7611,-5.7137,-5.6427,-5.6021,-5.5547,-5.4837,-5.4735,-5.4735,-5.4735,-5.4735,-5.4566,-5.4126,-5.4126,-5.3957,-5.3584,-5.3584,-5.3584,-5.3584,-5.375,-5.3783,-5.3718,-5.3783,-5.3882,-5.3948,-5.4045,-5.4175,0.0,0.0,-4.902,-5.3848,-5.6731,-5.927,0.0,0.0,-6.2501,0.0,-6.2973,-6.2157,-6.2188,-6.3637,-6.4001,-6.1285,-6.1584,-6.1833,-6.0771,-6.0562,-6.0591,-6.0631,-6.0545,-6.0275,-5.9569,-5.9659,-5.9532,-5.9028,-5.9167,-5.9032,-5.849,-5.8084,-5.7476,-5.6562,-5.6021,-5.5615,-5.5446,-5.4702,-5.4329,-5.4329,-5.4329,-5.4329,-5.4329,-5.4329,-5.4634,-5.5175,-5.5344,-5.5446,-5.5412,-5.5243,-5.5277,-5.5412,-5.5209,-5.5141,-5.5175,-5.5344,-5.531,-5.5175,-5.5378,-5.4938,-5.4329,-5.4329,-5.3957,-5.3754,-5.504,-5.5581,-5.5987,-5.7273,-5.7746,-5.7881,-5.7881,-5.7881,-5.7881,-5.7881,-5.7881,-5.7881,-5.7881,-5.7881,-5.7881,-5.7881,-5.7881,-5.7881,-5.7881,-5.7881,-5.7881,-5.7881,-5.7881,-5.7611,-5.69,-5.6799,-5.6528,-5.5784,-5.5681,-5.5681,-5.5681,-5.5681,-5.5412,-5.4634,-5.46,-5.4329,-5.3788,-5.3788,-5.3788,-5.3788,-5.3889,-5.3788,-5.3518,-5.3618,-5.3684,-5.3717,-5.3849,-5.4013,0.0,-4.3714,0.0,-4.7742,-5.1698,-5.5749,0.0,0.0,-6.0057,-6.1283,-6.1343,-6.0755,-5.9363,-6.145,-6.2643,-6.0423,-6.0853,-6.0943,-5.9478,-5.8719,-5.833,-5.8523,-5.7807,-5.7644,-5.8661,-5.8766,-5.8841,-5.8994,-5.9641,-5.9133,-5.7036,-5.7543,-5.7239,-5.5783,-5.575,-5.5378,-5.4668,-5.3923,-5.3551,-5.3551,-5.3551,-5.3551,-5.3551,-5.3551,-5.3585,-5.3653,-5.4329,-5.4668,-5.46,-5.389,-5.4025,-5.4566,-5.389,-5.3619,-5.3687,-5.4397,-5.4194,-5.3721,-5.4397,-5.416,-5.3551,-5.3551,-5.3551,-5.3653,-5.4431,-5.5141,-5.5886,-5.663,-5.734,-5.7881,-5.7881,-5.7881,-5.7881,-5.7881,-5.7881,-5.7881,-5.7881,-5.7881,-5.7881,-5.7881,-5.7881,-5.7881,-5.7881,-5.7881,-5.7881,-5.7881,-5.7881,-5.7611,-5.69,-5.6799,-5.6528,-5.5784,-5.5681,-5.5681,-5.5681,-5.5681,-5.5412,-5.4634,-5.46,-5.4566,-5.4532,-5.4532,-5.4532,-5.4532,-5.4567,-5.4194,-5.3518,-5.3518,-5.3584,-5.3717,-5.3717,-5.3816,0.0,0.0,0.0,-4.6159,-4.8176,-5.0224,-5.3208,-5.4826,-5.5835,-5.6512,-5.7368,-5.7586,-5.6321,-5.8866,-6.0456,-5.8237,-5.8582,-5.8628,-5.7248,-5.6739,-5.6407,-5.6129,-5.5792,-5.5725,-5.6141,-5.6322,-5.6469,-5.6687,-5.6923,-5.659,-5.5446,-5.5615,-5.531,-5.4329,-5.4296,-5.416,-5.389,-5.3619,-5.3518,-5.3518,-5.3518,-5.3518,-5.3518,-5.3518,-5.3518,-5.3518,-5.3788,-5.389,-5.3856,-5.3619,-5.3653,-5.3856,-5.3619,-5.3518,-5.3551,-5.3788,-5.3721,-5.3551,-5.3788,-5.3721,-5.3518,-5.3518,-5.3518,-5.3653,-5.4363,-5.5108,-5.5852,-5.6596,-5.734,-5.7881,-5.7881,-5.7881,-5.7881,-5.7881,-5.7881,-5.7881,-5.7881,-5.7881,-5.7881,-5.7881,-5.7881,-5.7881,-5.7881,-5.7881,-5.7881,-5.7881,-5.7881,-5.778,-5.7543,-5.7509,-5.7408,-5.7137,-5.7103,-5.7103,-5.7103,-5.7103,-5.6799,-5.6055,-5.6021,-5.5818,-5.5344,-5.531,-5.531,-5.531,-5.531,-5.4702,-5.3518,-5.3518,-5.3517,-5.3584,-5.3584,-5.3685,-4.2038,0.0,0.0,0.0,-4.5596,-4.6234,-5.0354,0.0,-5.1831,-5.3074,-5.4006,-5.4464,-5.3941,-5.6022,-5.7376,-5.615,-5.6658,-5.6801,-5.5684,-5.548,-5.5281,-5.4928,-5.4859,-5.4822,-5.4862,-5.4935,-5.508,-5.5259,-5.5329,0.0,-5.4427,-5.4463,-5.4159,-5.3416,-5.3382,-5.3382,-5.3382,-5.3314,-5.3314,-5.3382,-5.3382,-5.3382,-5.3382,-5.345,-5.3518,-5.3518,-5.3518,-5.3518,-5.3518,-5.3518,-5.3518,-5.3518,-5.3518,-5.3518,-5.3518,-5.3518,-5.3518,-5.3518,-5.3518,-5.3518,-5.3518,-5.3518,-5.3518,-5.3585,-5.4093,-5.4735,-5.548,-5.6224,-5.6968,-5.7577,-5.7814,-5.7881,-5.7881,-5.7881,-5.7881,-5.7881,-5.7881,-5.7881,-5.7881,-5.7881,-5.7881,-5.7881,-5.7881,-5.7881,-5.7881,-5.7881,-5.7881,-5.7881,-5.7881,-5.7881,-5.7881,-5.7881,-5.7881,-5.7881,-5.7881,-5.7881,-5.7577,-5.6867,-5.6799,-5.6596,-5.6089,-5.6089,-5.6089,-5.6089,-5.6089,-5.5344,-5.3856,-5.3856,-5.3754,-5.3518,-5.3518,-5.3551,0.0,0.0,0.0,0.0,0.0,0.0,-4.8635,0.0,-4.8303,-5.1227,-5.1597,-5.1625,-5.2322,-5.2912,-5.35,-5.4262,-5.5206,-5.5584,-5.4889,-5.4935,-5.5046,-5.5046,-5.4865,-5.4828,-5.501,-5.4865,-5.4828,-5.501,-5.5046,-5.4711,-5.401,-5.4151,-5.3953,-5.3212,-5.3179,-5.3179,-5.3179,-5.2973,-5.2973,-5.3179,-5.3145,-5.3145,-5.3213,-5.3382,-5.3518,-5.3518,-5.345,-5.3518,-5.3518,-5.3518,-5.3518,-5.3518,-5.3518,-5.3518,-5.3518,-5.3518,-5.3518,-5.3518,-5.3518,-5.3518,-5.3518,-5.3518,-5.3518,-5.3518,-5.3518,-5.4025,-5.4769,-5.5547,-5.6258,-5.6968,-5.7712,-5.7881,-5.7881,-5.7881,-5.7881,-5.7881,-5.7881,-5.7881,-5.7881,-5.7881,-5.7881,-5.7881,-5.7881,-5.7881,-5.7881,-5.7881,-5.7881,-5.7881,-5.7881,-5.7881,-5.7881,-5.7881,-5.7881,-5.7881,-5.7881,-5.7881,-5.7577,-5.6867,-5.6833,-5.6833,-5.6833,-5.6833,-5.6833,-5.6833,-5.6833,-5.6122,-5.4668,-5.4634,-5.4228,-5.3518,-5.3518,-5.3518,-4.287,0.0,0.0,0.0,0.0,0.0,0.0,0.0,0.0,-4.6955,-4.8003,-4.8818,-4.9359,-4.9526,-5.0025,-5.1181,-5.337,-5.4671,-5.4086,-5.395,-5.3751,-5.3325,-5.3185,-5.3078,-5.3149,-5.3114,-5.3149,0.0,-5.3294,-5.3298,-5.3205,-5.3239,-5.3174,-5.2972,-5.2972,-5.2972,-5.2972,-5.2402,-5.2402,-5.2972,-5.2436,-5.2538,-5.3179,-5.311,-5.3178,-5.3247,-5.3144,-5.3144,-5.3281,-5.3416,-5.3518,-5.3518,-5.3518,-5.3518,-5.3518,-5.3518,-5.3518,-5.3518,-5.3518,-5.3518,-5.3518,-5.3518,-5.3518,-5.3585,-5.4126,-5.4431,-5.4871,-5.6156,-5.663,-5.6968,-5.7712,-5.7881,-5.7881,-5.7881,-5.7881,-5.7881,-5.7881,-5.7881,-5.7881,-5.7881,-5.7881,-5.7881,-5.7881,-5.7881,-5.7881,-5.7881,-5.7881,-5.7881,-5.7881,-5.7881,-5.7881,-5.7881,-5.7881,-5.7881,-5.7881,-5.7881,-5.7814,-5.7611,-5.7577,-5.7577,-5.7577,-5.7577,-5.7577,-5.7577,-5.7577,-5.7137,-5.619,-5.5683,-5.4735,-5.3518,-5.3518,-5.3518,0.0,0.0,0.0,0.0,0.0,0.0,-4.3339,-4.3535,0.0,0.0,-4.5197,-4.5921,-4.6477,-4.6753,-4.7228,-4.8265,-5.0157,-5.1787,-5.2584,-5.2383,-5.2018,-5.1723,-5.162,-5.1586,-5.1586,-5.1514,-5.1514,-5.1586,-5.1586,-5.1655,-5.1829,-5.2129,-5.2163,-5.1897,-5.1863,-5.1863,-5.1863,-5.1394,-5.1394,-5.1863,-5.173,-5.1964,-5.2469,-5.2769,-5.2972,-5.3076,-5.2938,-5.2972,-5.3076,-5.3212,-5.3348,-5.3518,-5.3518,-5.3518,-5.3518,-5.3518,-5.3518,-5.3518,-5.3518,-5.3687,-5.3923,-5.3585,-5.3721,-5.4025,-5.4465,-5.4397,-5.4499,-5.6292,-5.7036,-5.734,-5.778,-5.7881,-5.7881,-5.7881,-5.7881,-5.7881,-5.7881,-5.7881,-5.7881,-5.7881,-5.7881,-5.7881,-5.7881,-5.7881,-5.7881,-5.7881,-5.7881,-5.7881,-5.7881,-5.7881,-5.7881,-5.7881,-5.7881,-5.7881,-5.7881,-5.7881,-5.7881,-5.7881,-5.7881,-5.7881,-5.7881,-5.7881,-5.7881,-5.7881,-5.7881,-5.7679,-5.7273,-5.6528,-5.5412,-5.3957,-5.3653,-5.3518,-4.4188,-4.3719,0.0,0.0,0.0,0.0,-4.497,-4.3781,-4.2489,0.0,-4.3097,-4.3182,-4.3923,-4.4452,-4.5009,-4.5663,-4.6424,-4.7858,-5.0554,-5.049,-5.0126,-5.0126,-5.0126,-5.0159,-5.0259,-5.0123,-5.0121,-5.022,-5.022,-5.0255,-5.0392,-5.1024,-5.1057,-5.0392,-5.0392,-5.0392,-5.0392,-5.0189,-5.0189,-5.0392,-5.0958,-5.129,-5.1425,-5.223,-5.26,-5.2634,-5.2667,-5.27,-5.2768,-5.2835,-5.3109,-5.3416,-5.3416,-5.345,-5.345,-5.345,-5.3484,-5.3518,-5.3518,-5.3923,-5.4363,-5.3721,-5.3923,-5.4465,-5.4566,-5.4126,-5.4059,-5.619,-5.7273,-5.778,-5.7881,-5.7881,-5.7881,-5.7881,-5.7881,-5.7881,-5.7881,-5.7881,-5.7881,-5.7881,-5.7881,-5.7881,-5.7881,-5.7881,-5.7881,-5.7881,-5.7881,-5.7881,-5.7881,-5.7881,-5.7881,-5.7881,-5.7881,-5.7881,-5.7881,-5.7881,-5.7881,-5.7881,-5.7881,-5.7881,-5.7881,-5.7881,-5.7881,-5.7881,-5.7881,-5.7881,-5.7881,-5.7002,-5.5919,-5.4702,-5.389,-5.3518,-4.4547,0.0,0.0,0.0,0.0,0.0,-4.385,-4.2873,-4.222,0.0,-4.2023,-4.1801,-4.2435,-4.2616,-4.3071,-4.4211,-4.4456,-4.5435,-4.8265,-4.8629,-4.8595,-4.8497,-4.8464,-4.8729,-4.9293,-4.9326,-4.9558,-5.0187,-5.022,-5.022,-5.0221,-5.0387,-5.0387,-5.0221,-5.0221,-5.0221,-5.0221,-4.9624,-4.9624,-5.0221,-4.9757,-4.9958,-5.0625,-5.0689,-5.079,-5.0893,-5.1388,-5.1688,-5.1826,-5.2426,-5.2799,-5.3007,-5.3007,-5.311,-5.3247,-5.3247,-5.3348,-5.3518,-5.3518,-5.3585,-5.3687,-5.3551,-5.3585,-5.3822,-5.4397,-5.4499,-5.4702,-5.6325,-5.69,-5.7137,-5.7746,-5.7881,-5.7881,-5.7881,-5.7881,-5.7881,-5.7881,-5.7881,-5.7881,-5.7881,-5.7881,-5.7881,-5.7881,-5.7881,-5.7881,-5.7881,-5.7881,-5.7881,-5.7881,-5.7881,-5.7881,-5.7881,-5.7881,-5.7881,-5.7881,-5.7881,-5.7881,-5.7881,-5.7881,-5.7881,-5.7881,-5.7881,-5.7881,-5.7881,-5.7881,-5.7881,-5.7881,-5.5953,-5.5175,-5.5446,-5.4126,-5.3518,-4.5255,0.0,0.0,-4.5316,0.0,0.0,0.0,-4.3149,-4.2004,-4.1634,-4.0987,-4.0557,-4.0848,0.0,-4.1204,-4.2144,-4.2283,-4.2894,-4.4486,-4.5711,-4.6439,-4.6344,-4.6407,-4.6605,-4.697,-4.7335,-4.77,-4.7968,-4.8696,-4.8961,-4.8564,-4.926,-4.9491,-4.9127,-4.9094,-4.9094,-4.9094,-4.8763,-4.8763,-4.9094,-4.9094,-4.9326,-4.9759,-5.0056,-5.0221,-5.0357,-5.1018,-5.135,-5.1453,-5.2217,-5.2587,-5.2692,-5.2834,-5.2972,-5.3041,-5.3144,-5.3247,-5.3348,-5.3484,-5.3754,-5.3991,-5.3619,-5.3754,-5.4126,-5.4465,-5.4871,-5.531,-5.6055,-5.6528,-5.69,-5.7273,-5.7611,-5.7881,-5.7881,-5.7881,-5.7881,-5.7881,-5.7881,-5.7881,-5.7881,-5.7881,-5.7881,-5.7881,-5.7881,-5.7881,-5.7881,-5.7881,-5.7881,-5.7881,-5.7881,-5.7881,-5.7881,-5.7881,-5.7881,-5.7881,-5.7881,-5.7881,-5.7881,-5.7881,-5.7881,-5.7881,-5.7881,-5.7881,-5.7881,-5.7881,-5.7881,-5.7881,-5.6055,-5.5344,-5.5647,-5.4194,-5.3687,0.0,0.0,0.0,0.0,0.0,-4.5336,0.0,0.0,0.0,-4.1406,-4.0541,0.0,0.0,0.0,0.0,0.0,0.0,0.0,0.0,-4.2792,0.0,-4.4026,-4.4149,-4.4275,-4.4408,-4.5103,-4.5474,-4.5384,-4.6609,-4.7106,-4.651,-4.7868,-4.8398,-4.7802,-4.7934,-4.8001,-4.8001,-4.8001,-4.8001,-4.8001,-4.8597,-4.8895,-4.8928,-4.9525,-4.979,-4.9856,-5.0684,-5.1116,-5.1148,-5.2045,-5.2409,-5.2409,-5.2694,-5.2799,-5.2868,-5.3007,-5.311,-5.3144,-5.3382,-5.3822,-5.4159,-5.3619,-5.3856,-5.4363,-5.4498,-5.487,-5.5344,-5.5649,-5.6156,-5.663,-5.6765,-5.734,-5.7881,-5.7881,-5.7881,-5.7881,-5.7881,-5.7881,-5.7881,-5.7881,-5.7881,-5.7881,-5.7881,-5.7881,-5.7881,-5.7881,-5.7881,-5.7881,-5.7881,-5.7881,-5.7881,-5.7881,-5.7881,-5.7881,-5.7881,-5.7881,-5.7881,-5.7881,-5.7881,-5.7881,-5.7881,-5.7881,-5.7881,-5.7881,-5.7881,-5.7881,-5.7881,-5.6562,-5.5919,-5.5886,-5.4397,-5.4024,0.0,0.0,0.0,0.0,-4.7891,0.0,0.0,0.0,-4.3685,-4.306,0.0,0.0,0.0,0.0,0.0,0.0,0.0,0.0,-4.0863,-4.0988,-4.125,-4.1707,-4.1773,-4.2038,-4.27,-4.3429,-4.386,-4.383,-4.4622,-4.5019,-4.4953,-4.6344,-4.7106,-4.704,-4.7669,-4.8001,-4.8001,-4.8001,-4.8001,-4.8001,-4.8067,-4.8133,-4.8133,-4.8199,-4.8266,-4.8332,-4.9723,-5.032,-5.0452,-5.181,-5.2409,-5.2409,-5.2445,-5.2551,-5.2624,-5.2659,-5.2764,-5.2972,-5.3144,-5.3177,-5.3141,-5.3212,-5.328,-5.3482,-5.4156,-5.4057,-5.4025,-5.5344,-5.5784,-5.5987,-5.663,-5.734,-5.7881,-5.7881,-5.7881,-5.7881,-5.7881,-5.7881,-5.7881,-5.7881,-5.7881,-5.7881,-5.7881,-5.7881,-5.7881,-5.7881,-5.7881,-5.7881,-5.7881,-5.7881,-5.7881,-5.7881,-5.7881,-5.7881,-5.7881,-5.7881,-5.7881,-5.7881,-5.7881,-5.7881,-5.7881,-5.7881,-5.7881,-5.7881,-5.7881,-5.7881,-5.7881,-5.707,-5.6697,-5.663,-5.5141,-5.4453,0.0,0.0,0.0,0.0,0.0,0.0,-4.6653,0.0,-4.3218,0.0,0.0,0.0,0.0,0.0,0.0,0.0,-4.0034,0.0,0.0,0.0,-4.0234,0.0,0.0,0.0,-4.1981,-4.2314,-4.2456,-4.2336,-4.3429,-4.4059,-4.4059,-4.545,-4.6444,-4.6874,-4.7206,-4.757,-4.8001,-4.8001,-4.8001,-4.8001,-4.8001,-4.8001,-4.8001,-4.8001,-4.8001,-4.8067,-4.9127,-4.9558,-4.969,-5.1148,-5.1779,-5.1812,-5.2243,-5.2445,-5.2516,-5.2553,-5.2659,-5.2764,-5.2938,-5.2972,-5.2903,-5.3007,-5.3007,-5.3176,-5.4053,-5.3853,-5.3652,-5.5276,-5.5681,-5.5886,-5.663,-5.734,-5.7881,-5.7881,-5.7881,-5.7881,-5.7881,-5.7881,-5.7881,-5.7881,-5.7881,-5.7881,-5.7881,-5.7881,-5.7881,-5.7881,-5.7881,-5.7881,-5.7881,-5.7881,-5.7881,-5.7881,-5.7881,-5.7881,-5.7881,-5.7881,-5.7881,-5.7881,-5.7881,-5.7881,-5.7881,-5.7406,-5.7368,-5.7881,-5.7406,-5.7406,-5.7881,-5.7171,-5.7036,-5.7408,-5.5422,-5.4689,-5.0927,0.0,0.0,0.0,0.0,0.0,0.0,0.0,0.0,0.0,0.0,0.0,0.0,0.0,0.0,0.0,0.0,-3.9681,0.0,0.0,0.0,0.0,0.0,0.0,0.0,-4.1067,-4.0984,-4.0901,-4.2005,-4.2771,-4.2969,-4.4423,-4.5549,-4.6278,-4.6676,-4.7139,-4.7703,-4.7901,-4.8001,-4.8001,-4.8001,-4.8001,-4.8001,-4.8001,-4.8001,-4.8034,-4.8796,-4.9094,-4.9226,-5.0684,-5.1315,-5.1382,-5.2111,-5.2409,-5.2409,-5.2516,-5.2551,-5.2553,-5.2729,-5.2967,-5.31,-5.3065,-5.3198,-5.3502,-5.3978,-5.3815,-5.3683,-5.4968,-5.5477,-5.5815,-5.6596,-5.734,-5.7881,-5.7881,-5.7881,-5.7881,-5.7881,-5.7881,-5.7881,-5.7881,-5.7881,-5.7881,-5.7881,-5.7881,-5.7881,-5.7881,-5.7881,-5.7881,-5.7881,-5.7881,-5.7881,-5.7881,-5.7881,-5.7881,-5.7881,-5.7881,-5.7881,-5.7881,-5.7698,-5.7662,-5.7881,-5.6844,-5.6652,-5.7517,-5.6691,-5.6691,-5.7517,-5.7012,-5.7122,-5.7848,-5.595,-5.5198,0.0,0.0,0.0,-5.0293,0.0,0.0,0.0,0.0,-4.6376,0.0,0.0,0.0,0.0,0.0,0.0,0.0,0.0,0.0,0.0,0.0,0.0,0.0,0.0,0.0,0.0,-3.9462,-3.9435,0.0,-4.0132,-4.0779,-4.1442,-4.287,-4.4026,-4.4721,-4.6146,-4.6908,-4.6941,-4.7636,-4.8001,-4.8001,-4.8001,-4.8001,-4.8001,-4.8001,-4.8001,-4.8034,-4.8796,-4.9094,-4.9226,-5.0684,-5.1315,-5.1382,-5.2111,-5.2409,-5.2409,-5.2409,-5.2409,-5.2409,-5.2553,-5.309,-5.362,-5.344,-5.4011,-5.4622,-5.3923,-5.3833,-5.4043,-5.4253,-5.4861,-5.5639,-5.656,-5.734,-5.7881,-5.7881,-5.7881,-5.7881,-5.7881,-5.7881,-5.7881,-5.7881,-5.7881,-5.7881,-5.7881,-5.7881,-5.7881,-5.7881,-5.7881,-5.7881,-5.7881,-5.7881,-5.7881,-5.7881,-5.7881,-5.7881,-5.7881,-5.7881,-5.7881,-5.7881,-5.7105,-5.6996,-5.7881,-5.627,-5.5756,-5.6614,-5.5796,-5.5756,-5.6652,-5.6619,-5.7072,-5.7881,-5.7067,-5.6188,0.0,0.0,-5.6608,-5.2534,0.0,0.0,0.0,0.0,0.0,0.0,0.0,0.0,0.0,0.0,0.0,0.0,0.0,0.0,0.0,0.0,0.0,0.0,0.0,0.0,0.0,0.0,0.0,0.0,-4.0005,0.0,-4.1375,-4.234,-4.3429,-4.4655,-4.5185,-4.5914,-4.6874,-4.7139,-4.7504,-4.8001,-4.8001,-4.8001,-4.8001,-4.8001,-4.8001,-4.8001,-4.8266,-4.8365,-4.8498,-4.9955,-5.0585,-5.0684,-5.191,-5.2409,-5.2409,-5.2409,-5.2409,-5.2409,-5.2445,-5.2646,-5.2912,-5.3268,-5.3603,-5.3841,-5.3753,-5.3759,-5.3966,-5.4647,-5.5091,-5.5705,-5.6988,-5.764,-5.7881,-5.7881,-5.7881,-5.7881,-5.7881,-5.7881,-5.7881,-5.7881,-5.7881,-5.7881,-5.7881,-5.7881,-5.7881,-5.7881,-5.7881,-5.7881,-5.7881,-5.7881,-5.7881,-5.7881,-5.7881,-5.7881,-5.7881,-5.7881,-5.7662,-5.7105,-5.6768,-5.6498,-5.6192,-5.5035,-5.4861,-5.5716,-5.4902,-5.4902,-5.5756,-5.5756,-5.6192,-5.7034,-5.68,-5.6189,-5.5108,-5.628,0.0,-5.3697,-5.3168,0.0,-4.9593,0.0,-4.8531,0.0,0.0,0.0,0.0,0.0,0.0,0.0,0.0,0.0,0.0,-3.9315,0.0,0.0,0.0,0.0,0.0,0.0,-3.9342,-3.9369,-3.9773,0.0,0.0,-4.1844,-4.28,-4.4257,-4.4556,-4.5284,-4.6477,-4.6775,-4.7272,-4.8001,-4.8001,-4.8001,-4.8001,-4.8001,-4.8001,-4.8001,-4.8001,-4.8001,-4.81,-4.9326,-4.9988,-5.032,-5.1512,-5.2177,-5.2409,-5.2409,-5.2409,-5.2409,-5.2409,-5.2539,-5.287,-5.3566,-5.3997,-5.4195,-5.4343,-5.418,-5.4117,-5.4801,-5.5113,-5.549,-5.6844,-5.7496,-5.7808,-5.7881,-5.7881,-5.7881,-5.7881,-5.7881,-5.7881,-5.7881,-5.7881,-5.7881,-5.7881,-5.7881,-5.7881,-5.7881,-5.7881,-5.7881,-5.7881,-5.7881,-5.7881,-5.7881,-5.7881,-5.7881,-5.7881,-5.7881,-5.7517,-5.6652,-5.6342,-5.5876,-5.5312,-5.4147,-5.4186,-5.5525,-5.4439,-5.4439,-5.5557,-5.5301,-5.5498,-5.6113,-5.6113,-5.5676]},{"header":{"parameterUnit":"m.s-1","parameterCategory":1,"la1":30.6,"la2":29.2853,"lo1":-89.7004,"lo2":-87.6739,"dy":0.0162,"dx":0.0183,"nx":112,"ny":82,"refTime":"2024-05-15T06:00:00:Z","depth":0,"parameterNumber":3,"parameterNumberName":"V-component_of_WINDS"},"data":[0.0,0.0,0.0,0.0,0.0,0.0,0.0,0.0,0.0,0.0,0.0,0.0,0.0,0.0,0.0,0.0,0.0,0.0,0.0,0.0,0.0,0.0,0.0,0.0,0.0,0.0,0.0,0.0,0.0,0.0,0.0,0.0,0.0,0.0,0.0,0.0,0.0,0.0,0.0,0.0,0.0,0.0,0.0,0.0,0.0,0.0,0.0,0.0,0.0,0.0,0.0,0.0,0.0,0.0,0.0,0.0,0.0,0.0,0.0,0.0,0.0,0.0,0.0,0.0,0.0,0.0,0.0,0.0,0.0,0.0,0.0,0.0,0.0,0.0,0.0,0.0,0.0,0.0,0.0,0.0,0.0,0.0,0.0,0.0,0.0,0.0,0.0,0.0,0.0,0.0,1.4363,1.6397,1.9145,2.0559,1.9893,2.1131,1.9738,1.4541,0.0,0.0,0.0,0.0,0.0,0.0,0.0,0.0,0.0,0.0,0.0,0.0,0.0,0.0,0.0,0.0,0.0,0.0,0.0,0.0,0.0,0.0,0.0,0.0,0.0,0.0,0.0,0.0,0.0,0.0,0.0,0.0,0.0,0.0,0.0,0.0,0.0,0.0,0.0,0.0,0.0,0.0,0.0,0.0,0.0,0.0,0.0,0.0,0.0,0.0,0.0,0.0,0.0,0.0,0.0,0.0,0.0,0.0,0.0,0.0,0.0,0.0,0.0,0.0,0.0,0.0,0.0,0.0,0.0,0.0,0.0,0.0,0.0,0.0,0.0,0.0,0.0,0.0,0.0,0.0,0.0,0.0,0.0,0.0,0.0,0.0,0.0,0.0,0.0,0.0,0.0,0.0,0.0,0.0,0.0,0.0,0.0,0.0,0.0,0.0,0.0,0.0,0.0,0.0,1.4824,1.8081,1.9654,2.0194,1.9558,1.8924,1.7474,1.4929,0.0,0.0,0.0,0.0,0.0,0.0,0.0,0.0,0.0,0.0,0.0,0.0,0.0,0.0,0.0,0.0,0.0,0.0,0.0,0.0,0.0,0.0,0.0,0.0,0.0,0.0,0.0,0.0,0.0,0.0,0.0,0.0,0.0,0.0,0.0,0.0,0.0,0.0,0.0,0.0,0.0,0.0,0.0,0.0,0.0,0.0,0.0,0.0,0.0,0.0,0.0,0.0,0.0,0.0,0.0,0.0,0.0,0.0,0.0,0.0,0.0,0.0,0.0,0.0,0.0,0.0,0.0,0.0,0.0,0.0,0.0,0.0,0.0,0.0,0.0,0.0,0.0,0.0,0.0,0.0,0.0,0.0,0.0,0.0,0.0,0.0,0.0,0.0,0.0,0.0,0.0,0.0,0.0,0.0,0.0,0.0,0.0,0.0,0.0,0.0,0.0,0.0,0.0,1.4283,1.5983,1.8557,1.9765,2.0035,1.9145,1.8881,1.7623,1.4909,1.6559,0.0,0.0,0.0,0.0,0.0,0.0,0.0,0.0,0.0,0.0,0.0,0.0,0.0,0.0,0.0,0.0,0.0,0.0,0.0,0.0,0.0,0.0,0.0,0.0,0.0,0.0,0.0,0.0,0.0,0.0,0.0,0.0,0.0,0.0,0.0,0.0,0.0,0.0,0.0,0.0,0.0,0.0,0.0,0.0,0.0,0.0,0.0,0.0,0.0,0.0,0.0,0.0,0.0,0.0,0.0,0.0,0.0,0.0,0.0,0.0,0.0,0.0,0.0,0.0,0.0,0.0,0.0,0.0,0.0,0.0,0.0,0.0,0.0,0.0,0.0,0.0,0.0,0.0,0.0,0.0,0.0,0.0,0.0,0.0,0.0,0.0,0.0,0.0,0.0,0.0,0.0,0.0,0.0,0.0,0.0,0.0,0.0,0.0,0.0,0.0,0.0,0.0,1.5809,1.7,1.8764,1.9669,1.9765,1.878,1.8963,1.7886,1.4864,1.5429,0.0,0.0,0.0,0.0,0.0,0.0,0.0,0.0,0.0,0.0,0.0,0.0,0.0,0.0,0.0,0.0,0.0,0.0,0.0,0.0,0.0,0.0,0.0,0.0,0.0,0.0,0.0,0.0,0.0,0.0,0.0,0.0,0.0,0.0,0.0,0.0,0.0,0.0,0.0,0.0,0.0,0.0,0.0,0.0,0.0,0.0,0.0,0.0,0.0,0.0,0.0,0.0,0.0,0.0,0.0,0.0,0.0,0.0,0.0,0.0,0.0,0.0,0.0,0.0,0.0,0.0,0.0,0.0,0.0,0.0,0.0,0.0,0.0,0.0,0.0,0.0,0.0,0.0,0.0,0.0,0.0,0.0,0.0,0.0,0.0,0.0,0.0,0.0,0.0,0.0,0.0,0.0,0.0,0.0,0.0,0.0,0.0,0.0,0.0,0.0,0.0,0.0,1.5817,1.7382,1.9145,1.9447,1.9145,1.8398,1.8051,1.7002,1.5016,1.4441,0.0,0.0,0.0,0.0,0.0,0.0,0.0,0.0,0.0,0.0,0.0,0.0,0.0,0.0,0.0,0.0,0.0,0.0,0.0,0.0,0.0,0.0,0.0,0.0,0.0,0.0,0.0,0.0,0.0,0.0,0.0,0.0,0.0,0.0,0.0,0.0,0.0,0.0,0.0,0.0,0.0,0.0,0.0,0.0,0.0,0.0,0.0,0.0,0.0,0.0,0.0,0.0,0.0,0.0,0.0,0.0,0.0,0.0,0.0,0.0,0.0,0.0,0.0,0.0,0.0,0.0,0.0,0.0,0.0,0.0,0.0,0.0,0.0,0.0,0.0,0.0,0.0,0.0,0.0,0.0,0.0,0.0,0.0,0.0,0.0,0.0,0.0,0.0,0.0,0.0,0.0,0.0,0.0,0.0,0.0,0.0,0.0,0.0,0.0,0.0,0.0,0.0,1.5809,1.708,0.0,1.9034,1.8653,1.7747,1.7137,1.6092,1.4516,0.0,0.0,0.0,0.0,0.0,0.0,0.0,0.0,0.0,0.0,0.0,0.0,0.0,0.0,0.0,0.0,0.0,0.0,0.0,0.0,0.0,0.0,0.0,0.0,0.0,0.0,0.0,0.0,0.0,0.0,0.0,0.0,0.0,0.0,0.0,0.0,0.0,0.0,0.0,0.0,0.0,0.0,0.0,0.0,0.0,0.0,0.0,0.0,0.0,0.0,0.0,0.0,0.0,0.0,0.0,0.0,0.0,0.0,0.0,0.0,0.0,0.0,0.0,0.0,0.0,0.0,0.0,0.0,0.0,0.0,0.0,0.0,0.0,0.0,0.0,0.0,0.0,0.0,0.0,0.0,0.0,0.0,0.0,0.0,0.0,0.0,0.0,0.0,0.0,0.0,0.0,0.0,0.0,0.0,0.0,0.0,0.0,0.0,0.0,0.0,0.0,0.0,1.4792,1.5713,1.6794,0.0,1.8494,1.816,1.735,1.6613,1.56,1.4347,0.0,0.0,0.0,0.0,0.0,0.0,0.0,0.0,0.0,0.0,0.0,0.0,0.0,0.0,0.0,0.0,0.0,0.0,0.0,0.0,0.0,0.0,0.0,0.0,0.0,0.0,0.0,0.0,0.0,0.0,0.0,0.0,0.0,0.0,0.0,0.0,0.0,0.0,0.0,0.0,0.0,0.0,0.0,0.0,0.0,0.0,0.0,0.0,0.0,0.0,0.0,0.0,0.0,0.0,0.0,0.0,0.0,0.0,0.0,0.0,0.0,0.0,0.0,0.0,0.0,0.0,0.0,0.0,0.0,0.0,0.0,0.0,0.0,0.0,0.0,0.0,0.0,0.0,0.0,0.0,0.0,0.0,0.0,0.0,0.0,0.0,0.0,0.0,0.0,0.0,0.0,0.0,0.0,0.0,0.0,0.0,0.0,0.0,0.0,0.0,0.0,0.0,1.447,1.5516,1.6619,1.7695,1.7806,1.7679,1.7345,1.6552,1.5657,0.0,0.0,0.0,0.0,0.0,0.0,0.0,0.0,0.0,0.0,0.0,0.0,0.0,0.0,0.0,0.0,0.0,0.0,0.0,0.0,0.0,0.0,0.0,0.0,0.0,0.0,0.0,0.0,0.0,0.0,0.0,0.0,0.0,0.0,0.0,0.0,0.0,0.0,0.0,0.0,0.0,0.0,0.0,0.0,0.0,0.0,0.0,0.0,0.0,0.0,0.0,0.0,0.0,0.0,0.0,0.0,0.0,0.0,0.0,0.0,0.0,0.0,0.0,0.0,0.0,0.0,0.0,0.0,0.0,0.0,0.0,0.0,0.0,0.0,0.0,0.0,0.0,0.0,0.0,0.0,0.0,0.0,0.0,0.0,0.0,0.0,0.0,0.0,0.0,0.0,0.0,0.0,0.0,0.0,0.0,0.0,0.0,0.0,0.0,0.0,0.0,0.0,0.0,1.4919,1.5936,1.6889,1.7727,1.7334,1.7125,1.7359,1.5943,1.494,1.4772,0.0,0.0,0.0,0.0,0.0,0.0,0.0,0.0,0.0,0.0,0.0,0.0,0.0,0.0,0.0,0.0,0.0,0.0,0.0,0.0,0.0,0.0,0.0,0.0,0.0,0.0,0.0,0.0,0.0,0.0,0.0,0.0,0.0,0.0,0.0,0.0,0.0,0.0,0.0,0.0,0.0,0.0,0.0,0.0,0.0,0.0,0.0,0.0,0.0,0.0,0.0,0.0,0.0,0.0,0.0,0.0,0.0,0.0,0.0,0.0,0.0,0.0,0.0,0.0,0.0,0.0,0.0,0.0,0.0,0.0,0.0,0.0,0.0,0.0,0.0,0.0,0.0,0.0,0.0,0.0,0.0,0.0,0.0,0.0,0.0,0.0,0.0,0.0,0.0,0.0,0.0,0.0,0.0,0.0,0.0,0.0,0.0,0.0,0.0,0.0,0.0,0.0,1.4871,1.5761,1.6571,1.7286,1.6857,1.6668,1.7098,1.5569,1.4708,1.4909,0.0,0.0,0.0,0.0,0.0,0.0,0.0,0.0,0.0,0.0,0.0,0.0,0.0,0.0,0.0,0.0,0.0,0.0,0.0,0.0,0.0,0.0,0.0,0.0,0.0,0.0,0.0,0.0,0.0,0.0,0.0,0.0,0.0,0.0,0.0,0.0,0.0,0.0,0.0,0.0,0.0,0.0,0.0,0.0,0.0,0.0,0.0,0.0,0.0,0.0,0.0,0.0,0.0,0.0,0.0,0.0,0.0,0.0,0.0,0.0,0.0,0.0,0.0,0.0,0.0,0.0,0.0,0.0,0.0,0.0,0.0,0.0,0.0,0.0,0.0,0.0,0.0,0.0,0.0,0.0,0.0,0.0,0.0,0.0,0.0,0.0,0.0,0.0,0.0,0.0,0.0,0.0,0.0,0.0,0.0,0.0,0.0,0.0,0.0,0.0,0.0,0.0,1.4518,1.5268,1.6007,1.666,1.6405,1.6381,1.6773,1.5516,1.4859,1.5188,0.0,0.0,0.0,0.0,0.0,0.0,0.0,0.0,0.0,0.0,0.0,0.0,0.0,0.0,0.0,0.0,0.0,0.0,0.0,0.0,0.0,0.0,0.0,0.0,0.0,0.0,0.0,0.0,0.0,0.0,0.0,0.0,0.0,0.0,0.0,0.0,0.0,0.0,0.0,0.0,0.0,0.0,0.0,0.0,0.0,0.0,0.0,0.0,0.0,0.0,0.0,0.0,0.0,0.0,0.0,0.0,0.0,0.0,0.0,0.0,2.0195,0.0,0.0,0.0,0.0,0.0,0.0,0.0,0.0,0.0,0.0,0.0,0.0,0.0,0.0,0.0,0.0,0.0,0.0,0.0,0.0,0.0,0.0,0.0,0.0,0.0,0.0,0.0,0.0,0.0,0.0,0.0,0.0,0.0,0.0,0.0,0.0,0.0,0.0,0.0,0.0,0.0,1.455,1.5453,1.6261,1.6739,1.6485,1.6691,1.7709,1.6365,1.5634,1.6088,1.5015,0.0,0.0,0.0,0.0,0.0,0.0,0.0,0.0,0.0,0.0,0.0,0.0,0.0,0.0,0.0,0.0,0.0,0.0,0.0,0.0,0.0,0.0,0.0,0.0,0.0,0.0,0.0,0.0,0.0,0.0,0.0,0.0,0.0,0.0,0.0,0.0,0.0,0.0,0.0,0.0,0.0,0.0,0.0,0.0,0.0,0.0,0.0,0.0,0.0,0.0,0.0,0.0,0.0,0.0,0.0,0.0,0.0,0.0,0.0,0.0,2.123,0.0,0.0,0.0,0.0,0.0,0.0,0.0,0.0,0.0,0.0,0.0,0.0,0.0,0.0,0.0,0.0,0.0,0.0,0.0,0.0,0.0,0.0,0.0,0.0,0.0,0.0,0.0,0.0,0.0,0.0,0.0,0.0,0.0,0.0,0.0,0.0,0.0,0.0,0.0,0.0,1.5114,1.5978,1.6679,1.7041,1.6946,1.7106,1.7722,1.6843,1.6386,1.6635,1.5683,0.0,0.0,0.0,0.0,0.0,0.0,0.0,0.0,0.0,0.0,0.0,0.0,0.0,0.0,0.0,0.0,0.0,0.0,0.0,0.0,0.0,0.0,0.0,0.0,0.0,0.0,0.0,0.0,0.0,0.0,0.0,0.0,0.0,0.0,0.0,0.0,0.0,0.0,0.0,0.0,0.0,0.0,0.0,0.0,0.0,0.0,0.0,0.0,0.0,0.0,0.0,0.0,0.0,2.5918,2.6387,2.6473,2.6758,2.6777,2.6493,2.5039,2.3809,2.2812,2.2461,0.0,0.0,0.0,0.0,0.0,0.0,0.0,0.0,0.0,0.0,0.0,0.0,0.0,0.0,0.0,0.0,0.0,0.0,0.0,0.0,0.0,0.0,0.0,0.0,1.9824,1.9546,1.799,0.0,0.0,0.0,0.0,0.0,0.0,0.0,0.0,0.0,0.0,0.0,1.5793,1.6484,1.7047,1.7493,1.7514,1.7553,1.7605,1.725,1.6991,1.6991,1.6263,1.5441,0.0,0.0,0.0,0.0,0.0,0.0,0.0,0.0,0.0,0.0,0.0,0.0,0.0,0.0,0.0,0.0,0.0,0.0,0.0,0.0,0.0,0.0,0.0,0.0,0.0,0.0,0.0,0.0,0.0,0.0,0.0,0.0,2.6152,2.5461,0.0,0.0,0.0,0.0,0.0,0.0,0.0,0.0,0.0,0.0,0.0,0.0,0.0,2.5371,2.5879,2.7773,2.8398,2.7812,3.0137,3.0664,2.9648,3.0801,3.0918,3.0176,2.9551,0.0,2.416,2.4102,0.0,0.0,0.0,0.0,0.0,0.0,0.0,0.0,0.0,0.0,0.0,0.0,0.0,0.0,0.0,0.0,0.0,0.0,0.0,0.0,0.0,0.0,2.0869,2.0869,2.0649,2.0466,0.0,1.9494,1.8412,1.7862,1.7261,0.0,0.0,0.0,0.0,0.0,0.0,0.0,1.6192,1.6665,1.7181,1.7934,1.7711,1.7772,1.8495,1.7843,1.7423,1.7423,1.6672,1.5863,1.5056,1.4341,0.0,0.0,0.0,0.0,0.0,0.0,0.0,0.0,0.0,0.0,0.0,0.0,0.0,0.0,0.0,0.0,0.0,0.0,0.0,0.0,0.0,0.0,0.0,0.0,0.0,0.0,0.0,0.0,0.0,2.593,2.656,2.5083,2.5808,2.5869,0.0,0.0,0.0,0.0,0.0,0.0,0.0,0.0,0.0,2.6641,2.7461,2.834,2.9258,3.043,3.1074,3.1191,3.2578,3.3066,3.2734,3.3086,3.3027,3.2656,3.2207,3.0644,2.8301,2.6836,2.5488,2.4192,0.0,0.0,0.0,0.0,2.3144,2.3457,2.4434,2.4492,0.0,2.4199,0.0,0.0,0.0,0.0,0.0,0.0,0.0,0.0,0.0,0.0,2.2108,2.2108,2.2144,2.2163,2.2108,2.1357,2.0356,0.0,1.8479,1.7925,1.6986,0.0,0.0,0.0,0.0,1.6419,1.6961,1.7544,1.7979,1.8109,1.8364,1.8477,1.8374,1.8467,1.832,1.788,1.7293,1.6615,1.5808,1.5001,1.4653,0.0,0.0,0.0,0.0,0.0,0.0,0.0,0.0,0.0,0.0,0.0,0.0,0.0,0.0,0.0,0.0,0.0,0.0,0.0,0.0,0.0,0.0,0.0,0.0,0.0,0.0,0.0,0.0,2.5772,2.654,2.454,2.6267,2.6702,0.0,0.0,0.0,0.0,0.0,0.0,2.6942,2.7741,2.8711,2.9883,3.043,3.1289,3.25,3.3047,3.3633,3.4258,3.4805,3.5215,3.5508,3.5195,3.5059,3.5019,3.4375,3.3496,3.2305,2.9609,2.7656,2.6239,2.5312,2.4727,2.4473,2.4687,2.4824,2.5137,2.666,2.6894,2.6523,2.6339,2.5781,2.4902,2.3042,0.0,0.0,0.0,0.0,2.1632,2.2053,2.2675,2.3242,2.3352,2.3565,2.362,2.3279,2.2803,2.1925,0.0,1.9677,1.9155,1.8151,0.0,0.0,0.0,0.0,1.757,1.7778,1.8346,1.8608,1.8283,1.8797,1.8907,1.8283,1.8815,1.8852,1.8136,1.7734,1.7147,1.6325,1.5533,1.5148,1.5258,0.0,0.0,0.0,0.0,0.0,0.0,0.0,0.0,0.0,0.0,0.0,0.0,0.0,0.0,0.0,0.0,0.0,0.0,0.0,0.0,0.0,0.0,0.0,0.0,0.0,0.0,0.0,0.0,0.0,2.4656,2.7341,0.0,0.0,0.0,0.0,2.8571,2.8989,2.9591,3.0506,3.1047,3.1699,3.2578,3.3418,3.4277,3.5195,3.6035,3.6465,3.6523,3.7344,3.7734,3.7754,3.7734,3.7734,3.7656,3.6426,3.5625,3.4961,3.1973,2.9707,2.8027,2.6777,2.6269,2.6211,2.5771,2.5937,2.6426,2.7376,2.7344,2.7246,2.8828,2.8569,2.7109,2.4725,2.3522,0.0,0.0,2.2446,2.2895,2.3297,2.3767,2.4238,2.4592,2.444,2.4165,2.4146,2.3474,2.262,0.0,2.0644,1.9757,1.9375,0.0,1.7468,1.745,1.7499,1.7782,1.8515,1.8662,1.8712,1.8685,1.8724,1.8724,1.8687,1.8724,1.8559,1.8118,1.7734,1.7147,1.6325,1.5533,1.5276,1.5643,1.4909,0.0,0.0,0.0,0.0,0.0,0.0,0.0,0.0,0.0,0.0,0.0,0.0,0.0,0.0,0.0,0.0,0.0,0.0,0.0,0.0,0.0,0.0,0.0,0.0,0.0,0.0,0.0,0.0,2.8144,3.0147,0.0,2.9186,2.8949,2.9205,3.0112,3.0561,3.1444,3.2871,3.3819,3.4805,3.5664,3.6523,3.7129,3.7441,3.7754,3.7891,3.791,3.8203,3.834,3.834,3.8047,3.793,3.7891,3.7148,3.6445,3.5703,3.4629,3.2851,3.0664,2.9355,2.8672,2.8379,2.7949,2.8066,2.8555,2.9434,2.9258,2.8633,2.8418,2.7708,2.6649,2.5555,2.4794,2.4249,2.4093,2.4091,2.4225,2.4611,2.4831,2.5029,2.5124,2.49,2.4606,2.4606,2.4115,2.3639,2.3345,2.1878,2.057,2.0171,1.953,1.8985,1.8713,1.8686,1.8686,1.8704,1.8955,1.9006,1.8722,1.8944,1.8999,1.8742,1.8705,1.854,1.8118,1.7734,1.7257,1.6725,1.6175,1.5955,1.6083,1.5551,1.5331,0.0,0.0,0.0,0.0,0.0,0.0,0.0,0.0,0.0,0.0,0.0,0.0,0.0,0.0,0.0,0.0,0.0,0.0,0.0,0.0,0.0,0.0,0.0,0.0,0.0,0.0,3.0876,3.0794,3.2789,3.3434,3.1672,3.1525,3.1894,3.2773,3.3359,3.4434,3.6152,3.6934,3.7656,3.8359,3.8809,3.8945,3.8789,3.8789,3.8711,3.8574,3.8574,3.8574,3.8555,3.8281,3.8144,3.8125,3.7695,3.7109,3.6426,3.6133,3.4922,3.3105,3.1641,3.0723,3.0176,2.9746,2.9863,3.0312,3.0898,3.0527,2.9648,2.8789,2.7994,2.7195,2.6731,2.6136,2.5571,2.5386,2.5274,2.5286,2.5543,2.5617,2.5598,2.5451,2.5069,2.4739,2.4643,2.4404,2.4165,2.3969,2.263,2.1438,2.1119,2.0534,1.9985,1.9751,1.9714,1.9567,1.9182,1.9347,1.9311,1.8779,1.9072,1.9146,1.8742,1.8705,1.854,1.8118,1.7734,1.7312,1.6927,1.6523,1.6343,1.6523,1.612,1.59,1.59,0.0,0.0,0.0,0.0,0.0,0.0,0.0,0.0,0.0,0.0,0.0,0.0,0.0,0.0,0.0,0.0,0.0,0.0,0.0,0.0,0.0,0.0,0.0,2.7806,3.1094,3.3223,3.2461,3.5,3.582,3.3281,3.457,3.5918,3.6758,3.7559,3.875,4.0449,4.0156,4.0117,4.0508,4.0137,3.9707,3.9238,3.9219,3.9023,3.8613,3.8613,3.8594,3.8594,3.8574,3.8574,3.8555,3.8125,3.7715,3.7246,3.6406,3.5801,3.5234,3.3496,3.2305,3.1523,3.1094,3.1191,3.1543,3.1523,3.0957,3.0234,3.0215,2.9695,2.8988,2.8141,2.7495,2.684,2.6057,2.5903,2.6039,2.6039,2.6039,2.5929,2.5543,2.5106,2.4684,2.433,2.422,2.4091,2.359,2.2858,2.2309,2.2291,2.1328,2.0539,2.0539,2.0521,0.0,1.9966,1.9893,1.96,1.8852,1.9091,1.9146,1.8779,1.8724,1.854,1.8118,1.7734,1.733,1.6927,1.656,1.6523,1.6908,1.6541,1.634,1.634,0.0,0.0,0.0,0.0,0.0,0.0,0.0,0.0,0.0,0.0,0.0,0.0,0.0,0.0,0.0,0.0,0.0,0.0,0.0,0.0,0.0,0.0,3.1133,3.1015,3.3457,3.5684,3.6699,3.8672,3.9531,3.8496,3.9121,3.9687,3.9922,3.9863,4.0156,4.0957,4.0879,4.0723,4.0527,4.0723,4.0469,3.9707,3.9707,3.9648,3.9531,3.9199,3.9023,3.9023,3.8711,3.8574,3.8574,3.8457,3.8144,3.7715,3.7168,3.6523,3.5684,3.3926,3.3105,3.2812,3.209,3.1894,3.1953,3.1621,3.1348,3.1055,3.041,2.9966,2.9488,2.8706,2.8012,2.7288,2.6552,2.6388,2.6408,2.6408,2.6408,2.6389,2.6279,2.5711,2.5179,2.512,2.4624,2.4165,2.4005,2.3565,2.2968,2.2382,2.1548,2.0943,2.0943,2.0704,0.0,2.0374,2.0058,1.9912,2.0008,1.9586,1.9384,1.9546,1.9054,1.854,1.8118,1.8009,1.7642,1.6927,1.7073,1.7092,1.6908,1.6798,1.6743,0.0,0.0,0.0,0.0,0.0,0.0,0.0,0.0,0.0,0.0,0.0,0.0,0.0,0.0,0.0,0.0,0.0,0.0,0.0,0.0,0.0,0.0,3.209,3.457,3.5762,3.707,3.8418,3.9766,4.082,4.1406,4.1328,4.1387,4.1582,4.1953,4.1562,4.1582,4.2207,4.1894,4.166,4.1601,4.1484,4.1113,4.043,4.0078,3.9805,3.9609,3.916,3.8945,3.8926,3.8691,3.8574,3.8555,3.8379,3.8066,3.7637,3.7207,3.6641,0.0,0.0,0.0,0.0,0.0,3.209,3.1621,3.1543,3.1269,3.0918,3.0586,3.0199,2.968,2.9087,2.8389,2.7698,2.6957,2.67,2.6591,2.6591,2.6591,2.6554,2.6371,2.5839,2.5326,2.5212,2.4661,2.4202,2.4202,2.3822,0.0,2.2657,2.1998,2.1566,2.1401,2.1138,2.0918,2.0778,2.0387,2.0168,2.0223,1.9696,1.9402,1.9641,1.9072,0.0,0.0,0.0,1.788,1.744,1.7642,0.0,0.0,0.0,0.0,0.0,0.0,0.0,0.0,1.6018,1.5476,0.0,0.0,0.0,0.0,0.0,0.0,0.0,0.0,0.0,0.0,0.0,0.0,0.0,0.0,0.0,0.0,3.5059,3.7656,4.0937,4.1094,4.1152,4.1855,4.1992,4.2148,4.2461,4.2207,4.2324,4.3086,4.2754,4.2851,4.3672,0.0,0.0,0.0,0.0,4.1641,4.1172,4.0371,3.9766,3.9336,3.8867,3.8652,3.8652,3.8594,3.8574,3.8555,3.8164,3.7754,3.7344,3.6914,3.6406,3.5801,3.5,3.4414,3.3906,3.3086,3.2051,3.1074,3.1406,0.0,0.0,3.0703,3.0316,2.968,2.9199,2.8615,2.7939,2.7213,2.6791,2.6591,2.6591,2.6591,2.6499,2.6168,2.5782,2.5378,2.4941,2.4569,2.4257,2.422,2.3859,2.3444,2.3041,2.262,2.2199,2.176,2.1723,2.1614,2.1236,2.0796,2.0351,2.0058,0.0,0.0,1.9366,1.8999,1.876,1.8724,1.8301,1.81,1.8155,1.81,1.8081,1.8081,1.8081,1.7898,1.7568,1.7935,1.7935,1.755,1.6439,1.5713,0.0,0.0,0.0,0.0,0.0,0.0,0.0,0.0,0.0,0.0,0.0,0.0,0.0,0.0,0.0,3.4883,3.7793,4.0371,4.2422,4.293,4.3027,4.2851,4.3125,4.3242,4.2969,4.3183,4.3398,4.3574,4.3183,4.3164,4.3672,4.3223,4.2832,4.2558,4.2402,4.1953,4.1172,4.0664,4.0351,4.0254,0.0,0.0,3.9062,3.873,3.8574,3.8574,3.8476,3.8203,3.7773,3.7344,3.6289,3.4941,3.4766,3.4219,3.3496,3.2988,3.2422,3.1875,3.1621,3.1191,3.0703,3.043,2.993,2.9317,2.8742,2.8013,0.0,2.7084,2.6791,2.6591,2.6591,2.6591,2.6573,2.6481,2.6205,2.5782,2.5396,2.4992,2.4606,2.4275,2.4128,2.3914,2.3444,2.3041,2.2547,2.1797,2.1961,2.2016,2.1614,2.0936,2.0613,2.0851,1.9934,1.9439,1.9787,1.9421,1.9054,1.8742,1.8301,1.8228,1.8577,1.8264,1.8081,1.8081,1.8081,1.8045,1.7972,1.8045,1.8045,1.7953,1.7103,1.6658,0.0,0.0,0.0,0.0,0.0,0.0,0.0,0.0,0.0,0.0,0.0,2.793,0.0,0.0,3.4824,3.8066,4.0215,4.2012,4.3516,4.3711,4.3633,4.3418,4.3398,4.3398,4.3398,4.3398,4.3476,4.3691,4.3516,4.3476,4.3691,4.3301,4.2969,4.2754,4.2344,4.1914,4.1484,4.0644,4.0312,4.0508,3.9414,3.9004,3.918,3.8769,3.8574,3.8555,3.834,3.8008,3.7559,3.6914,3.6016,3.5019,3.4785,3.3926,3.2773,3.2374,3.1888,3.1504,3.1289,3.0937,3.0568,3.0122,2.968,2.9184,2.8479,2.7881,2.7345,2.7101,2.6791,2.6591,2.6591,2.6591,2.6591,2.6591,2.6261,2.5911,2.5506,2.5051,2.4666,2.4293,2.4202,2.4073,2.3572,2.3547,2.3198,2.2144,2.2144,2.2126,2.1742,2.0973,2.0594,2.0796,1.9897,1.9384,1.9604,1.9421,1.9219,1.9017,1.8815,1.8797,1.8999,1.8815,1.8705,1.8705,1.8705,1.8614,1.8412,1.8614,1.8614,1.8393,1.7979,1.7471,0.0,0.0,0.0,0.0,0.0,0.0,0.0,0.0,2.6363,2.7636,2.8906,3.0664,3.3535,3.5547,3.7793,4.0918,4.2129,4.3086,4.4238,4.4082,4.3769,4.3594,4.3359,4.334,4.3672,4.3398,4.334,4.3691,4.3711,4.3711,4.3711,4.3379,4.3125,4.2949,4.2285,4.1836,4.168,4.0566,4.0156,4.0391,3.9238,3.8828,3.9062,3.873,3.8574,3.8555,3.8027,3.7617,3.7226,3.6367,3.5714,3.5218,3.4782,3.37,3.228,3.1876,3.1494,3.1112,3.0898,3.0703,3.043,2.993,2.9585,2.9127,2.8441,2.788,2.7399,2.7137,2.6845,2.6591,2.6591,2.6591,2.6591,2.6591,2.6334,2.6021,2.5617,2.5231,2.4826,2.4404,2.4257,2.4091,2.3712,2.3932,2.3779,2.2502,2.2346,2.2236,2.1742,2.0973,2.0521,2.0521,1.9787,1.9292,1.9292,1.9292,1.9292,1.9292,1.9292,1.9292,1.9292,1.9292,1.9292,1.9292,1.9292,1.9146,1.8834,1.9146,1.9127,1.8795,1.8748,1.8118,2.5701,2.4561,2.4171,2.5805,2.5125,2.548,0.0,0.0,3.029,3.2757,3.4258,3.5391,3.6172,3.8027,4.0078,4.1973,4.3008,4.375,4.4316,4.4355,4.4023,4.3242,4.3437,4.3652,4.3691,4.3672,4.3652,4.3691,4.3711,4.3711,4.3711,4.3652,4.3281,4.2519,4.2402,4.1992,4.125,4.0723,4.0293,3.9961,3.9394,3.8965,3.8652,3.8594,3.8574,3.8535,3.7715,3.7344,3.7226,3.6367,3.5559,3.4835,3.449,3.3735,3.2801,3.2373,3.2181,3.1988,3.0917,3.0711,3.0775,3.0026,2.9507,2.9103,2.8843,2.8,2.7099,2.7279,2.7008,2.6591,2.6591,2.6591,2.6591,2.6591,2.6554,2.6408,2.6039,2.5635,2.5179,2.4794,2.4459,2.4183,2.4146,2.4183,2.3779,2.2502,2.2602,2.2565,2.1797,2.0973,2.0521,2.0521,1.9787,1.9292,1.9292,1.9292,1.9292,1.9292,1.9292,1.9292,1.9292,1.9292,1.9292,1.9292,1.9292,1.9274,1.9237,1.9274,1.9274,1.9237,1.8873,1.8399,2.6649,2.6139,2.6231,0.0,2.7344,2.8711,3.1738,3.2246,3.2734,3.5098,3.6601,3.7949,3.9394,4.0586,4.1855,0.0,4.3867,4.4258,4.4707,4.4101,4.3398,4.2773,4.2422,4.2519,4.3262,4.334,4.3437,4.3691,4.3711,4.3711,4.3711,4.3242,4.2793,4.2441,4.1953,4.1523,4.1172,4.0742,4.043,4.0254,3.9551,3.9101,3.8926,3.8691,3.8574,3.8535,3.7676,3.7305,3.7226,3.6367,3.5626,3.5084,3.468,3.4035,3.3239,3.2562,3.2138,3.175,3.1281,3.0873,3.0506,2.9776,2.9394,2.907,2.82,2.7639,2.7287,2.7009,2.6736,2.6591,2.6591,2.6591,2.6591,2.6591,2.6591,2.6481,2.6094,2.5892,2.5653,2.5249,2.4794,2.4569,2.4569,2.4367,2.3944,2.3096,2.3133,2.295,2.2144,2.1365,2.0594,1.9879,1.9494,1.9292,1.9292,1.9292,1.9292,1.9292,1.9292,1.9292,1.9292,1.9292,1.9292,1.9292,1.9292,1.9292,1.9292,1.9292,1.9292,1.9292,1.9112,1.8812,2.7276,2.7592,2.8259,2.8237,2.9941,3.1934,3.3281,3.4062,3.5039,3.6973,3.8203,3.9414,4.0996,4.1816,4.2676,4.3984,4.4316,4.4551,4.4961,4.4004,4.291,4.2012,4.1152,4.0996,4.1914,4.2441,4.2949,4.3496,4.3535,4.3574,4.3691,4.3125,4.2676,4.2441,4.1836,4.1406,4.1172,4.0859,4.0586,4.0332,3.9687,3.9258,3.9023,3.8711,3.8574,3.8535,3.7676,3.7305,3.7226,3.6367,3.5772,3.5393,3.5062,3.4483,3.37,3.3135,3.2281,3.1433,3.1318,3.0871,3.0194,2.9542,2.9315,2.9126,2.8088,2.7753,2.7642,2.7161,2.6885,2.6756,2.6756,2.6664,2.6591,2.6591,2.6591,2.6499,2.626,2.6094,2.5929,2.5635,2.5124,2.4776,2.4776,2.4477,2.411,2.3749,2.3712,2.3419,2.2565,2.1676,2.0723,1.9751,1.9439,1.9384,1.9622,1.9531,1.9476,1.9476,1.9476,1.9421,1.9311,1.9292,1.9292,1.9292,1.9292,1.9292,1.9292,1.9292,1.9292,1.9292,1.9292,1.9152,2.7814,2.8376,2.9473,3.0976,3.2363,3.4004,3.6562,3.7168,3.7559,3.8848,3.9512,3.9883,3.9941,4.0976,4.2246,4.3516,4.4101,4.4551,4.4961,4.4258,4.291,4.082,3.9805,3.9277,0.0,4.084,4.2187,4.3027,4.3105,4.3281,4.3691,4.3672,4.3281,4.2461,4.2402,4.1992,4.1172,4.1172,4.0742,3.9922,3.9883,3.9434,3.8594,3.8574,3.8574,3.8535,3.7676,3.7305,3.7226,3.6367,3.5811,3.5538,3.5519,3.4931,3.42,3.4115,3.2903,3.1246,3.0853,3.0461,3.005,2.9621,2.9404,2.9316,2.9239,2.8765,2.8201,2.8144,2.7678,2.716,2.716,2.6885,2.6591,2.6591,2.6591,2.6591,2.6573,2.6296,2.6002,2.6002,2.5359,2.4776,2.4776,2.4477,2.4202,2.4183,2.4183,2.384,2.2986,2.1815,2.0943,2.0521,1.9769,1.9622,2.0411,2.0136,1.9875,1.9875,1.9875,1.9732,1.9311,1.9292,1.9292,1.9292,1.9292,1.9292,1.9292,1.9292,1.9292,1.9292,1.9292,1.9292,2.916,3.0574,3.2391,3.4023,3.5684,3.7226,3.8691,3.9453,3.9824,3.9687,3.9316,3.9023,3.9023,3.9375,4.0273,4.2129,4.3281,4.4199,4.4922,4.4258,4.2812,4.0391,3.9844,0.0,0.0,0.0,0.0,4.2129,4.248,4.2832,4.3262,4.3281,4.3164,4.2871,4.2305,4.1875,4.1582,4.1308,4.0742,3.9883,3.9297,3.8867,3.8574,3.8574,3.8418,3.8105,3.7539,3.7148,3.6836,3.6269,3.5792,3.5403,3.5403,3.4746,3.3881,3.4347,3.3309,3.1658,3.1692,3.1219,3.0544,3.0195,3.0237,3.02,2.9488,2.9126,2.8841,2.8351,2.79,2.762,2.762,2.7528,2.7417,2.7417,2.7417,2.7306,2.7031,2.6866,2.6738,2.6426,2.5931,2.5617,2.5617,2.5065,2.4532,2.4238,2.3914,2.3547,2.2968,2.2071,2.1321,2.0943,2.0429,2.0228,2.0503,2.0393,2.0278,2.0278,2.0278,2.0264,2.0118,2.0118,1.9989,1.9692,1.9674,1.9586,1.9292,1.9292,1.9292,1.9311,1.9586,1.9567,3.1541,3.3434,3.5477,3.7012,3.8457,3.9609,4.0019,4.0293,4.0137,3.8984,3.791,3.7051,3.6601,3.6504,3.7324,3.9785,4.1016,4.2266,4.4082,4.3437,4.2129,4.0332,3.9844,3.9258,0.0,0.0,0.0,4.1445,4.2109,4.2617,4.3047,4.3223,4.3223,4.3086,4.2383,4.1953,4.1797,4.123,4.0508,3.9648,3.8926,3.8574,3.8574,3.8574,3.834,3.791,3.748,3.7051,3.6641,3.6191,3.5781,3.5391,3.5391,3.4731,3.3843,3.431,3.3495,3.2133,3.2285,3.153,3.0583,3.0208,3.0173,3.006,2.9425,2.9214,2.91,2.8626,2.8268,2.7985,2.7985,2.7932,2.7822,2.7822,2.7822,2.7748,2.7435,2.727,2.7105,2.6848,2.6334,2.6021,2.6021,2.5307,2.4647,2.4257,2.3932,2.362,2.3169,2.2547,2.1961,2.1585,2.1053,2.0796,2.09,2.0814,2.0723,2.0723,2.0723,2.0668,2.0521,2.0521,2.0351,2.0095,2.0095,2.0008,1.9732,1.9732,1.9732,1.9751,1.9966,1.9916,3.4819,3.6848,3.8747,3.9841,4.0664,4.1113,4.0664,3.9805,3.8613,3.6894,3.541,3.4043,0.0,0.0,3.3691,3.6699,3.7695,3.9277,4.2695,4.2129,4.1191,0.0,0.0,0.0,0.0,0.0,0.0,4.1074,0.0,4.2578,4.3047,4.3476,4.3516,4.3125,4.2656,4.2226,4.1836,4.0937,4.0059,3.9238,3.8789,3.8574,3.8574,3.8574,3.834,3.791,3.748,3.7051,3.6641,3.6191,3.5781,3.543,3.541,3.4863,3.4101,3.4101,3.3555,3.2828,3.2644,3.152,3.0181,2.9841,2.9462,2.9131,2.9131,2.9112,2.9035,2.9035,2.8777,2.8483,2.8502,2.8208,2.7895,2.7914,2.7895,2.7877,2.784,2.7528,2.7196,2.716,2.6572,2.6039,2.6021,2.5378,2.4666,2.4293,2.422,2.4055,2.3572,2.3187,2.2785,2.2382,2.1676,2.1365,2.1723,2.142,2.1163,2.1163,2.1145,2.0979,2.0594,2.0534,2.0534,2.0558,2.0558,2.0539,2.0521,2.0521,2.0521,2.0521,2.0539,2.0338,3.7897,3.9786,4.1191,4.2422,4.2422,4.1914,4.1172,3.9336,3.7207,3.5156,3.2676,3.0488,0.0,0.0,0.0,3.5391,3.8398,0.0,4.4141,4.4258,0.0,4.2558,0.0,4.168,4.0605,4.1074,0.0,0.0,4.1543,4.1953,4.3027,4.3476,4.3652,4.3555,4.2812,4.2383,4.2266,4.0801,3.9941,3.9707,3.8945,3.8574,3.8574,3.8574,3.834,3.791,3.748,3.7051,3.6641,3.6191,3.5957,3.582,3.5508,3.5039,3.4531,3.4531,3.4004,3.3257,3.3322,3.2585,3.1629,3.1568,3.1219,3.0873,3.0873,3.0464,3.0039,3.0039,2.967,2.9316,2.9573,2.9153,2.8737,2.9108,2.8883,2.8498,2.795,2.7748,2.7491,2.6848,2.6573,2.6334,2.6058,2.5598,2.5139,2.4735,2.4404,2.4165,2.4055,2.3639,2.3297,2.3206,2.273,2.2474,2.2584,2.2217,2.2006,2.2006,2.1687,2.1485,2.1394,2.1376,2.1229,2.0961,2.0961,2.0814,2.0521,2.0521,2.0521,2.0521,2.0814,2.0741,4.0877,4.2348,4.334,4.3867,4.3203,4.1953,4.0156,3.7891,3.5332,3.2422,3.0019,0.0,2.6808,2.7988,0.0,0.0,0.0,0.0,4.3144,4.3769,4.3828,0.0,4.3652,0.0,4.2383,4.2539,4.2695,0.0,4.2246,4.2324,4.3047,4.3476,4.3613,4.3437,4.2773,4.2148,4.1601,4.0469,3.9785,3.959,3.8906,3.8574,3.8574,3.8574,3.834,3.791,0.0,3.7051,3.6641,3.6191,3.5918,3.5703,3.5254,3.4824,3.4394,3.4199,3.3828,3.3394,3.352,3.3194,3.2633,3.2192,3.1661,3.1134,3.1134,3.0781,3.0253,3.0125,2.983,2.955,2.9605,2.9338,2.903,2.9269,2.914,2.8865,2.8407,2.8168,2.7801,2.6995,2.6701,2.6444,2.6094,2.5837,2.5488,2.4867,2.4643,2.4404,2.422,2.395,2.3749,2.3517,2.3297,2.3096,2.2931,2.2529,2.2272,2.2272,2.1906,2.1687,2.1687,2.1687,2.1577,2.1383,2.1339,2.1229,2.101,2.101,2.101,2.101,2.1273,2.1163,4.3578,4.4715,4.5078,4.4609,4.332,4.1406,3.8496,3.5859,3.3008,2.9414,0.0,2.6211,2.4961,2.5937,2.7949,3.1016,0.0,3.6992,4.1348,4.2324,4.3086,4.4414,4.457,4.4414,4.4004,4.3633,4.3535,4.3789,4.3457,4.3223,4.3164,4.3496,4.3496,4.3008,4.2578,4.1758,4.0527,4.0098,3.9668,3.9199,3.8769,3.8574,3.8574,3.8574,3.8359,3.7988,3.7559,3.7148,3.6719,3.6348,3.5918,3.543,3.4961,3.4531,3.4101,3.3594,3.3418,3.3437,3.3496,3.3476,3.3233,3.2281,3.1526,3.1001,3.1001,3.0736,3.0377,3.0069,2.986,2.9688,2.9393,2.9186,2.9053,2.9048,2.9012,2.8975,2.892,2.859,2.8095,2.7325,2.6903,2.6536,2.6168,2.6058,2.5782,2.5032,2.4849,2.4647,2.433,2.4238,2.4055,2.3657,2.3572,2.3444,2.3096,2.2675,2.2419,2.2364,2.1998,2.1742,2.1687,2.1687,2.1687,2.1687,2.1687,2.1687,2.1687,2.1687,2.1687,2.1687,2.1687,2.1504,4.5737,4.6247,4.5898,4.5117,4.2871,4.0254,3.793,3.3809,0.0,0.0,2.5742,2.4062,2.3125,2.4902,2.7598,3.0976,3.3984,3.7539,4.2207,4.3223,4.3965,0.0,4.5449,4.543,4.5332,4.5273,0.0,0.0,0.0,4.4004,4.3613,4.3672,4.334,4.2558,4.2129,4.1465,4.0527,4.0098,3.9668,3.9199,3.8769,3.8574,3.8574,3.8574,3.8535,3.8437,3.8008,0.0,3.7187,3.7109,3.6621,3.5859,3.543,3.5,3.4492,3.3711,3.3418,3.3476,3.3828,3.373,3.3355,3.3214,3.284,3.2428,3.2428,3.2134,3.1844,3.1767,3.1296,3.0765,3.0808,3.0133,2.9405,2.9499,2.9214,2.8902,2.8572,2.8168,2.7728,2.727,2.7123,2.694,2.6554,2.6241,2.5966,2.5837,2.5249,2.4757,2.4684,2.4422,2.4183,2.411,2.4091,2.4073,2.3999,2.3565,2.3151,2.2821,2.24,2.2034,2.1705,2.1687,2.1687,2.1687,2.1687,2.1687,2.1687,2.1687,2.1687,2.1687,2.1687,2.165,4.6504,4.6832,4.6308,4.5019,4.2422,3.9277,3.5762,0.0,0.0,0.0,2.418,2.332,2.2867,2.4609,0.0,2.9141,3.168,3.5,3.9726,4.1152,0.0,4.5058,4.5742,4.5996,0.0,4.5605,0.0,0.0,0.0,4.3945,4.3711,4.3281,4.2754,4.2129,4.1699,4.1172,4.0527,4.0098,3.9668,3.9199,3.8769,3.8574,3.8574,3.8574,3.8574,3.8555,3.8105,0.0,3.7598,3.7148,3.6855,3.6582,3.5469,3.5039,3.4922,3.3828,3.3418,3.3457,3.3652,3.375,3.375,3.375,3.335,3.2874,3.2874,3.2614,3.2277,3.2046,3.1558,3.1092,3.091,3.0197,2.9487,2.9573,2.9301,2.8938,2.8737,2.8388,2.804,2.7856,2.7636,2.7361,2.6958,2.6719,2.6499,2.6076,2.569,2.5252,2.4831,2.4661,2.444,2.422,2.4202,2.4202,2.4202,2.3785,2.3407,2.3224,2.2821,2.2419,2.2016,2.1998,2.1906,2.1705,2.1687,2.1687,2.1687,2.1687,2.1687,2.1687,2.1687,2.1687,4.6477,4.6894,4.6523,4.4824,4.1855,3.8223,3.3906,3.0234,0.0,2.3842,2.3159,2.3101,2.3101,2.429,2.5801,0.0,2.918,3.2109,3.6855,3.8809,4.0996,0.0,4.5586,0.0,4.6289,0.0,0.0,0.0,0.0,0.0,4.3574,4.2754,4.2148,4.1816,4.1387,4.0918,4.0391,4.0059,3.9609,3.9062,3.873,3.8574,3.8574,3.8574,3.8574,3.8555,3.8223,0.0,0.0,3.7266,3.7109,3.7031,3.5644,3.5293,3.5371,3.4043,3.3555,3.3555,3.3555,3.3789,3.4082,3.418,3.3714,3.3193,3.3193,3.2925,3.2537,3.2257,3.1856,3.1455,3.0975,3.0316,2.9799,2.9527,2.9272,2.9094,2.9035,2.8737,2.8498,2.8407,2.8132,2.7765,2.738,2.7289,2.7013,2.637,2.6131,2.5782,2.5106,2.4959,2.4739,2.4385,2.4257,2.4202,2.4202,2.3859,2.359,2.3499,2.3206,2.284,2.2437,2.2419,2.2272,2.1961,2.1943,2.1943,2.1943,2.1943,2.1943,2.1943,2.187,2.1815,4.6102,4.6658,4.6523,4.4824,4.0937,3.6797,3.4004,0.0,2.5499,2.4043,2.3418,2.3101,2.3101,2.3594,2.4648,2.6738,0.0,3.0762,3.5527,3.7969,4.041,4.3457,0.0,0.0,4.6269,0.0,0.0,0.0,0.0,0.0,4.3144,4.2324,4.1836,4.1797,4.1387,4.0781,3.9961,3.9922,3.9473,3.8633,3.8594,3.8574,3.8574,3.8574,3.8574,3.8574,3.8535,0.0,0.0,3.8105,3.7734,3.6719,3.6562,3.6269,3.5801,3.4492,3.4023,3.4023,3.4023,3.4043,3.4141,3.4512,3.4355,3.4023,3.4023,3.3667,3.3292,3.3253,3.2922,3.2513,3.1799,3.1235,3.0615,2.9702,2.9509,2.939,2.9035,2.8957,2.8828,2.8462,2.837,2.8205,2.7783,2.7416,2.7141,2.7068,2.6499,2.5984,2.5911,2.5598,2.5212,2.4776,2.444,2.4202,2.4202,2.4165,2.3932,2.3517,2.3462,2.3261,2.2858,2.284,2.284,2.2803,2.2803,2.2803,2.2803,2.2803,2.2803,2.2785,2.24,2.2217,4.4601,4.5985,4.6387,4.416,4.0234,3.6035,3.2676,0.0,2.4902,2.334,2.3042,2.3101,2.3101,2.3237,2.3769,2.4883,2.5273,2.6863,3.1152,3.291,3.5684,4.0801,4.2324,0.0,0.0,0.0,0.0,0.0,0.0,0.0,4.2695,4.2129,4.168,4.1426,4.0996,4.0488,3.9902,3.9609,3.918,3.8574,3.8574,3.8574,3.8574,3.8574,3.8574,3.8574,3.8574,0.0,0.0,3.8144,3.8047,3.7734,3.6973,3.6562,3.625,3.4941,3.4297,3.4043,3.3769,3.4023,3.4473,3.4648,3.4766,3.4766,3.4238,3.3769,3.3418,3.3418,3.3125,3.2754,3.2474,3.1546,3.0629,2.998,2.9517,2.9153,2.9035,2.8975,2.8938,2.8773,2.8755,2.8627,2.8205,2.8022,2.782,2.762,2.7105,2.6609,2.6371,2.6039,2.5635,2.5179,2.4826,2.4477,2.422,2.4202,2.4128,2.3914,2.3914,2.373,2.3279,2.3261,2.3151,2.2913,2.2913,2.2913,2.2913,2.2913,2.2913,2.2895,2.273,2.2657,4.2578,4.4492,4.5332,4.3379,3.9453,3.5215,3.1836,2.7851,2.4453,2.2988,2.2886,2.3101,2.3101,2.3101,2.3198,2.3555,2.3555,2.4699,2.8242,2.9687,3.2441,0.0,0.0,4.1211,0.0,0.0,0.0,0.0,0.0,0.0,4.2422,4.1797,4.1289,4.0996,4.0684,4.0254,3.9687,3.9375,3.8984,3.8574,3.8574,3.8574,3.8574,3.8574,3.8574,3.8574,3.8574,0.0,0.0,3.8184,3.8223,3.8281,3.7246,3.6855,3.668,3.5234,3.459,3.4355,3.3652,3.3984,3.4668,3.4551,3.4746,3.4902,3.4414,3.3965,3.3613,3.3613,3.3301,3.2949,3.2832,3.1941,3.0978,3.0494,3.0027,2.9582,2.9402,2.9342,2.9305,2.9177,2.9159,2.903,2.8645,2.8462,2.8297,2.8003,2.7675,2.7251,2.6976,2.6573,2.6223,2.5766,2.5362,2.4955,2.444,2.4385,2.433,2.422,2.4202,2.4073,2.373,2.373,2.3584,2.3261,2.3261,2.3261,2.3261,2.3261,2.3261,2.3261,2.3133,2.3023,3.998,4.1816,4.3008,4.2558,3.8535,3.416,3.2012,2.7832,2.418,2.3276,2.3081,2.3101,2.3101,2.3101,2.3101,2.3101,2.3803,2.5312,2.793,2.9785,3.2012,0.0,0.0,3.8516,0.0,0.0,0.0,0.0,0.0,0.0,4.2422,4.123,4.0527,4.0527,4.0527,4.0098,3.9219,3.9199,3.8984,3.8574,3.8574,3.8574,3.8574,3.8574,3.8574,3.8574,0.0,0.0,0.0,3.8398,3.832,3.7891,3.7461,3.7285,3.707,3.5332,3.498,3.5195,3.3887,3.3984,3.4629,3.4219,3.4082,3.416,3.457,3.4394,3.4062,3.4062,3.375,3.332,3.291,3.248,3.2046,3.1336,3.1153,3.0969,3.0309,3.0185,3.0057,2.9654,2.9562,2.9494,2.9048,2.8645,2.8388,2.8388,2.8022,2.7822,2.7803,2.7473,2.7013,2.6609,2.626,2.5672,2.4849,2.4776,2.4592,2.4238,2.4202,2.4202,2.4202,2.4202,2.4183,2.4183,2.4183,2.4183,2.4183,2.4183,2.4183,2.4183,2.373,2.3279,3.5527,3.7168,3.8008,3.6973,3.4394,3.1523,2.9375,2.6562,2.418,2.3276,2.3101,2.3101,2.3101,2.3101,2.3393,2.4316,2.4687,2.5469,2.7187,0.0,0.0,3.5391,3.957,4.2519,0.0,0.0,0.0,0.0,0.0,0.0,4.1992,4.1055,4.0527,4.0527,3.9941,3.9492,3.9199,3.8926,3.8711,3.8574,3.8574,3.873,3.9004,3.9004,3.9004,0.0,0.0,0.0,0.0,3.8516,3.8496,3.8359,3.8223,3.7812,3.7168,3.6016,3.5508,3.5195,3.3887,3.3984,3.4629,3.4219,3.4473,3.4941,3.4766,3.4199,3.3633,3.3633,3.375,3.3769,3.334,3.2723,3.2227,3.198,3.138,3.0803,3.0556,3.039,3.0075,2.9654,2.9562,2.9452,2.9048,2.8883,2.8792,2.8792,2.8462,2.8187,2.8187,2.7838,2.7491,2.7031,2.6921,2.6353,2.5271,2.5231,2.5065,2.4661,2.4643,2.4496,2.422,2.4202,2.4202,2.4202,2.4202,2.4202,2.4202,2.4202,2.4202,2.4202,2.4073,2.3749,3.2148,3.3809,3.4609,3.3789,3.1855,2.9668,2.7832,2.5742,2.3984,2.3237,2.3101,2.3101,2.3101,2.3101,2.3354,2.4199,2.4473,2.5098,0.0,0.0,0.0,3.5527,0.0,0.0,0.0,0.0,0.0,0.0,0.0,0.0,4.1562,4.0762,4.0215,4.0039,3.9492,3.9121,3.8965,3.8711,3.8574,3.8574,3.873,3.8867,3.8965,3.9121,3.9121,0.0,0.0,0.0,0.0,3.8574,3.8574,3.8535,3.8223,3.7773,3.7148,3.5957,3.5566,3.541,3.3945,3.3984,3.4609,3.4023,3.4316,3.4805,3.4355,3.4199,3.4062,3.3555,3.3848,3.418,3.3574,3.3034,3.2652,3.2546,3.2022,3.1458,3.1208,3.0976,3.0622,2.999,2.98,2.9635,2.9085,2.8975,2.8975,2.8975,2.8773,2.8627,2.8627,2.826,2.7911,2.7673,2.7361,2.6866,2.6114,2.5819,2.547,2.5032,2.5014,2.4882,2.4459,2.444,2.4367,2.4202,2.4202,2.4202,2.4202,2.4202,2.4202,2.4202,2.4202,2.4055,0.0,3.1387,3.2285,3.2246,3.043,2.832,2.707,2.5234,0.0,2.3179,2.3101,2.312,2.3179,2.314,2.3159,2.3335,2.373,2.459,0.0,2.8613,0.0,0.0,3.9004,0.0,0.0,0.0,0.0,0.0,0.0,0.0,4.1152,4.0351,3.9687,3.9219,3.918,3.8965,3.8574,3.8574,3.8574,3.8574,3.9004,3.8984,3.8594,3.9004,3.8965,0.0,0.0,0.0,0.0,3.8555,3.8555,3.8457,3.7656,3.7305,3.7051,3.5371,3.5273,3.5723,3.4023,3.3984,3.457,3.373,3.375,3.4004,3.3594,3.4336,3.5078,3.3789,3.4023,3.4453,3.3633,3.3418,3.3292,3.2975,3.2931,3.274,3.2102,3.191,3.1559,3.0512,3.0222,2.9947,2.9159,2.8993,2.8975,2.8975,2.8975,2.8975,2.8975,2.8663,2.8425,2.8407,2.771,2.7233,2.7178,2.6517,2.5892,2.5488,2.547,2.5234,2.4849,2.4794,2.4592,2.4257,2.422,2.4202,2.4202,2.4202,2.4202,2.4202,2.4202,2.4202,2.6668,0.0,2.7305,2.6973,2.6426,2.5723,0.0,2.416,2.3672,2.3179,2.3101,2.3296,2.3939,2.353,2.3744,2.5781,2.5918,2.6367,2.8086,0.0,0.0,3.9609,4.2051,0.0,0.0,0.0,0.0,0.0,0.0,4.1133,4.0703,4.0176,3.9687,3.9219,3.8887,3.8672,3.8574,3.8574,3.8574,3.8574,3.9004,3.8984,3.8594,3.9004,3.8789,0.0,0.0,0.0,3.7656,3.8301,3.8379,3.8047,3.7851,3.7383,3.6699,3.5625,3.5371,3.5332,3.3906,3.3984,3.4609,3.4082,3.3984,3.4062,3.3945,3.4355,3.4668,3.3691,3.3809,3.4101,3.3555,3.3418,3.3355,3.3292,3.3102,3.2867,3.2676,3.223,3.1697,3.1176,3.0593,3.0039,2.9525,2.9177,2.8975,2.8975,2.8975,2.8975,2.8975,2.8902,2.8737,2.8425,2.8223,2.7856,2.7233,2.6719,2.6261,2.5892,2.5874,2.569,2.5304,2.4941,2.4739,2.4629,2.4367,2.4202,2.4202,2.4202,2.4202,2.4202,2.4202,2.4202,2.5693,2.583,2.5937,2.5488,2.5215,2.4988,2.4473,2.3906,2.3477,2.3437,2.3237,2.3296,2.4004,2.375,2.4023,2.582,2.6269,0.0,0.0,0.0,3.8047,4.084,4.2539,0.0,0.0,0.0,0.0,0.0,0.0,4.0684,4.0254,3.9824,3.9375,3.8926,3.8691,3.8574,3.8574,3.8574,3.8574,3.8574,3.8809,3.8691,3.8281,3.8516,3.8359,0.0,0.0,0.0,3.791,3.8164,3.8262,3.8164,3.7578,3.707,3.6543,3.5469,3.5078,3.4922,3.3809,3.373,3.4082,3.3848,3.3769,3.3769,3.3769,3.3926,3.4023,3.3555,3.373,3.3965,3.3535,3.3418,3.3418,3.3418,3.3228,3.3102,3.2912,3.2613,3.2162,3.1602,3.0959,3.0303,2.9897,2.9517,2.9195,2.9012,2.914,2.9195,2.9012,2.8975,2.8902,2.8682,2.8498,2.8132,2.7508,2.7086,2.6683,2.6279,2.6296,2.6059,2.5708,2.5488,2.5212,2.4794,2.4422,2.4202,2.4202,2.4202,2.4202,2.4202,2.4202,2.4202,2.5849,2.625,2.6426,2.5801,2.541,2.5184,2.5,2.4121,2.3393,2.3809,0.0,0.0,0.0,2.4082,0.0,0.0,0.0,0.0,3.3457,3.5879,3.8184,4.0937,4.2129,0.0,0.0,0.0,0.0,0.0,0.0,4.0332,3.9922,3.9453,3.9004,3.8594,3.8574,3.8574,3.8574,3.8574,3.8535,3.8476,3.8555,3.8281,3.7734,3.7871,3.7851,3.7734,0.0,0.0,3.8359,3.8047,3.8105,3.8262,3.7051,3.6523,3.6328,3.5059,3.4609,3.4492,3.3769,3.3476,3.3418,3.3418,3.3418,3.3418,3.3418,3.3418,3.3418,3.3418,3.3691,3.3887,3.3516,3.3418,3.3418,3.3418,3.3418,3.3292,3.3038,3.2931,3.2752,3.2074,3.1364,3.0784,3.0447,3.0013,2.9646,2.926,2.942,2.9434,2.903,2.8975,2.8975,2.8975,2.8682,2.8297,2.7858,2.7509,2.7068,2.6609,2.6591,2.6408,2.6021,2.6021,2.5672,2.4886,2.4569,2.4385,2.4385,2.4385,2.4349,2.4293,2.4293,2.4257,2.6621,2.7129,2.7141,2.5595,2.541,2.5382,2.4687,2.4355,2.4238,0.0,0.0,0.0,0.0,2.5401,2.5957,0.0,0.0,3.2676,0.0,0.0,3.998,4.1523,0.0,0.0,0.0,0.0,0.0,0.0,0.0,4.0332,3.9922,3.9453,3.9004,3.8594,3.8574,3.8574,3.8574,3.8574,3.8398,3.8027,3.8398,3.7969,3.6894,3.7598,3.7539,3.6894,0.0,3.7754,3.7519,3.7812,3.7754,3.7402,3.6484,3.5898,3.5469,3.4512,3.416,3.416,3.4023,3.373,3.3418,3.3418,3.3418,3.3418,3.3418,3.3418,3.3418,3.3418,3.3476,3.3496,3.3437,3.3418,3.3418,3.3418,3.3418,3.3355,3.3355,3.3102,3.2892,3.2771,3.2156,3.1602,3.1526,3.0996,3.0395,2.9986,2.9725,2.9434,2.903,2.8975,2.8975,2.8975,2.892,2.859,2.7877,2.7767,2.7361,2.6628,2.6591,2.6408,2.6021,2.6021,2.58,2.5341,2.5267,2.5231,2.5231,2.5231,2.5065,2.4684,2.4684,2.4551,2.6152,2.6565,2.6724,2.626,2.6445,2.6602,2.5957,2.5273,2.4844,2.5078,0.0,0.0,0.0,0.0,2.8144,3.125,0.0,3.5723,3.7969,3.9199,4.0371,0.0,0.0,0.0,0.0,0.0,0.0,0.0,0.0,0.0,3.9883,3.9238,3.8887,3.8906,3.8691,3.8457,3.8223,3.8457,3.8359,3.791,3.7676,3.7363,3.7012,3.7168,3.7285,3.7363,0.0,3.7812,3.7637,3.7598,3.7344,3.6875,3.6016,3.541,3.4922,3.4043,3.373,3.373,3.373,3.3594,3.3418,3.3418,3.3418,3.3418,3.3418,3.3418,3.3418,3.3418,3.3418,3.3418,3.3418,3.3418,3.3418,3.3418,3.3418,3.3418,3.3418,3.3292,3.3165,3.3165,3.2585,3.2109,3.2109,3.1626,3.1114,3.0536,3.0278,3.0008,2.942,2.9122,2.8975,2.8975,2.8975,2.8737,2.815,2.8113,2.7673,2.6646,2.6591,2.6499,2.6298,2.6131,2.5929,2.5745,2.5525,2.5414,2.5414,2.5414,2.5271,2.5106,2.5106,2.5047,2.5908,2.6153,2.63,2.6918,2.729,2.7506,2.7578,2.6758,2.6152,2.6816,0.0,0.0,0.0,2.7891,0.0,3.4355,3.6543,3.8105,3.918,4.0,4.0859,0.0,0.0,0.0,0.0,0.0,0.0,0.0,0.0,0.0,3.9726,3.9082,3.8769,3.8906,3.8594,3.8262,3.793,3.8164,3.8105,3.7773,3.7129,3.6992,3.7285,3.6855,3.707,3.7773,3.7676,3.7637,3.7598,3.707,3.666,3.6289,3.543,3.4805,3.4316,3.3672,3.3418,3.3418,3.3418,3.3418,3.3418,3.3418,3.3418,3.3418,3.3418,3.3418,3.3418,3.3418,3.3418,3.3418,3.3418,3.3418,3.3418,3.3418,3.3418,3.3418,3.3418,3.3418,3.3418,3.3418,3.2913,3.2575,3.2575,3.2306,3.184,3.1195,3.0921,3.0531,2.9818,2.9352,2.9094,2.8975,2.8975,2.8828,2.8425,2.8297,2.7856,2.6921,2.6774,2.6719,2.6719,2.6334,2.6168,2.6168,2.5874,2.5656,2.5656,2.5656,2.5601,2.5561,2.5561,2.5506,2.6863,2.6822,2.6545,2.7179,2.7122,2.7329,2.9055,2.9004,2.9004,3.0254,3.0137,0.0,0.0,3.0117,3.2305,3.541,3.7695,3.9648,4.1328,0.0,4.2285,0.0,0.0,0.0,0.0,0.0,0.0,0.0,0.0,0.0,3.9277,3.9199,3.8809,3.8047,3.7988,3.7949,3.793,3.7559,3.7383,3.7344,3.7285,3.7266,3.7285,3.6855,3.6914,3.7324,3.6934,3.6758,3.6699,3.5859,3.5508,3.541,3.4512,3.3906,3.3516,3.3437,3.3418,3.3418,3.3418,3.3418,3.3418,3.3418,3.3418,3.3418,3.3418,3.3418,3.3418,3.3418,3.3418,3.3418,3.3418,3.3418,3.3418,3.3418,3.3418,3.3418,3.3418,3.3418,3.3418,3.3418,3.3335,3.3316,3.3316,3.3063,3.2675,3.2253,3.1603,3.0898,3.0139,2.9711,2.9331,2.9035,2.8975,2.8828,2.8425,2.804,2.784,2.7748,2.7343,2.7141,2.7141,2.6756,2.6536,2.6536,2.6518,2.6499,2.6499,2.6499,2.6298,2.5966,2.5966,2.5764,2.5858,2.6369,2.6864,2.7097,2.7542,2.8351,2.9664,3.0645,3.1379,3.192,3.2315,0.0,0.0,0.0,3.5303,3.7316,3.9414,4.1133,4.207,4.2324,0.0,0.0,0.0,0.0,0.0,0.0,0.0,0.0,0.0,0.0,3.9609,3.8848,3.8379,3.834,3.7812,3.7402,3.7148,3.7246,3.7031,3.6504,3.6777,3.7051,3.7285,3.6855,3.6758,3.6894,3.6738,3.6367,3.5859,3.5527,3.5059,3.4512,3.3906,3.3574,3.3418,3.3418,3.3418,3.3418,3.3418,3.3418,3.3418,3.3418,3.3418,3.3418,3.3418,3.3418,3.3418,3.3418,3.3418,3.3418,3.3418,3.3418,3.3418,3.3418,3.3418,3.3418,3.3418,3.3418,3.3418,3.3418,3.3418,3.3418,3.3418,3.3292,3.3126,3.2719,3.198,3.1298,3.0841,3.0159,2.9627,2.9331,2.9094,2.892,2.8773,2.8608,2.8517,2.8517,2.7673,2.7178,2.7178,2.6793,2.6591,2.6591,2.6591,2.6591,2.6591,2.6591,2.6499,2.6353,2.6353,2.6279,2.5275,2.5773,2.6406,2.6942,2.7974,2.9399,3.1345,3.2653,3.3758,3.4756,3.4688,3.4461,3.426,0.0,0.0,0.0,4.0195,4.1758,4.2168,4.2344,0.0,0.0,0.0,0.0,0.0,0.0,0.0,0.0,0.0,0.0,0.0,3.8691,3.8144,3.8164,3.748,3.6953,3.668,3.6816,3.668,3.623,3.625,3.6562,3.709,3.6523,3.6348,3.6445,3.6035,3.5527,3.4961,3.4824,3.4414,3.3828,3.3535,3.3418,3.3418,3.3418,3.3418,3.3418,3.3418,3.3418,3.3418,3.3418,3.3418,3.3418,3.3418,3.3418,3.3418,3.3418,3.3418,3.3418,3.3418,3.3418,3.3418,3.3418,3.3418,3.3418,3.3418,3.3418,3.3418,3.3418,3.3418,3.3418,3.3418,3.3418,3.3292,3.3102,3.2459,3.1896,3.1436,3.0727,3.0054,2.9705,2.9331,2.9153,2.9153,2.9035,2.8975,2.8975,2.8095,2.7508,2.7361,2.6976,2.6719,2.6591,2.6591,2.6591,2.6591,2.6719,2.6719,2.6591,2.6719,2.6701,2.5551,2.5139,2.4886,2.6741,2.8258,3.0281,3.4186,3.5275,3.6223,3.9211,3.7457,3.556,3.5911,3.5015,0.0,3.75,3.9746,4.1308,4.1738,0.0,0.0,0.0,0.0,0.0,0.0,0.0,0.0,0.0,0.0,0.0,0.0,3.8789,3.8184,3.7324,3.6875,3.666,3.666,3.623,3.623,3.6641,3.5781,3.584,3.6641,3.5781,3.5605,3.5937,3.4629,3.4082,3.4023,3.3594,3.3418,3.3418,3.3418,3.3418,3.3418,3.3418,3.3418,3.3418,3.3418,3.3418,3.3418,3.3418,3.3418,3.3418,3.3418,3.3418,3.3418,3.3418,3.3418,3.3418,3.3418,3.3418,3.3418,3.3418,3.3418,3.3437,3.3418,3.3418,3.3437,3.3418,3.3418,3.3418,3.3418,3.3418,3.3418,3.3418,3.3066,3.2513,3.1799,3.1277,3.0734,2.996,2.9686,2.9509,2.9509,2.9213,2.8975,2.8975,2.8608,2.8205,2.784,2.7454,2.6995,2.6591,2.6591,2.6591,2.6591,2.6995,2.6976,2.6609,2.6995,2.6976,2.4979,2.5793,2.6953,2.7722,0.0,3.2395,3.5738,3.6489,3.7361,4.0532,3.9682,3.8277,3.7908,3.7669,0.0,3.8311,3.9904,4.1271,4.1717,0.0,0.0,0.0,0.0,0.0,0.0,0.0,0.0,0.0,0.0,3.8906,3.8769,3.8066,3.7422,3.6875,3.6152,3.5625,3.5293,3.5156,3.5,3.4844,3.4883,3.5215,3.5762,3.5176,3.4805,3.4629,3.4238,3.3906,3.3613,3.3476,3.3418,3.3418,3.3418,3.3418,3.3418,3.3418,3.3418,3.3418,3.3418,3.3418,3.3418,3.3418,3.3418,3.3418,3.3418,3.3418,3.3418,3.3418,3.3418,3.3418,3.3418,3.3418,3.3418,3.3418,3.3652,3.3789,3.3496,3.3672,3.3789,3.3476,3.3418,3.3418,3.3418,3.3418,3.3418,3.3418,3.3066,3.2477,3.1696,3.1223,3.0794,3.0313,2.9981,2.9804,2.9804,2.9509,2.9331,2.9331,2.9043,2.8498,2.7858,2.7711,2.7398,2.7013,2.727,2.7416,2.7416,2.7526,2.7583,2.7416,2.7251,2.7123,2.4848,2.5952,2.7591,2.8991,3.1174,3.3915,3.7171,0.0,0.0,0.0,4.1623,4.0323,3.9678,3.9149,0.0,3.8986,4.0084,4.0893,4.1214,4.1396,0.0,0.0,0.0,0.0,0.0,0.0,0.0,0.0,3.8809,3.8574,3.8574,3.7441,3.6758,3.668,3.584,3.5254,3.498,3.498,3.4668,3.4082,3.4336,3.4512,3.4609,3.4492,3.4316,3.4062,3.3887,3.3672,3.3418,3.3418,3.3418,3.3418,3.3418,3.3418,3.3418,3.3418,3.3418,3.3418,3.3418,3.3418,3.3418,3.3418,3.3418,3.3418,3.3418,3.3418,3.3418,3.3418,3.3418,3.3418,3.3418,3.3418,3.3418,3.3418,3.3633,3.375,3.3476,3.3633,3.373,3.3476,3.3418,3.3418,3.3418,3.3418,3.3418,3.3418,3.3066,3.2539,3.1875,3.1422,3.1032,3.0625,3.0274,3.0098,3.0098,2.9804,2.9686,2.9686,2.939,2.8917,2.8194,2.8061,2.782,2.7473,2.7693,2.7822,2.7822,2.793,2.7987,2.7822,2.7691,2.749,2.5105,2.5892,2.7337,3.0411,3.2885,0.0,3.8617,4.1895,4.4184,4.4185,0.0,4.1685,4.1272,3.9878,3.901,3.9766,4.025,4.0526,4.0519,4.09,0.0,0.0,0.0,0.0,3.9844,3.9414,3.9121,3.9082,3.8652,3.8398,3.8398,3.6894,3.6191,3.6543,3.5762,3.5293,3.5215,3.5215,3.4805,3.4023,3.4023,3.3809,3.3437,3.3828,3.4023,3.3984,3.3594,3.3418,3.3418,3.3418,3.3418,3.3418,3.3418,3.3418,3.3418,3.3418,3.3418,3.3418,3.3418,3.3398,3.3359,3.3359,3.3359,3.3359,3.3359,3.3398,3.3418,3.3418,3.3418,3.3418,3.3418,3.3418,3.3418,3.3418,3.3457,3.3476,3.3437,3.3457,3.3476,3.3437,3.3418,3.3418,3.3418,3.3418,3.3418,3.3418,3.3066,3.2637,3.2226,3.1797,3.1367,3.0937,3.0645,3.045,3.045,3.0157,2.9922,2.9922,2.9686,2.9341,2.889,2.8618,2.8242,2.7877,2.7914,2.7932,2.7932,2.826,2.8242,2.795,2.8242,2.8003,2.5593,2.6933,0.0,3.1981,3.6088,3.9684,4.0868,4.2453,4.3468,4.2515,4.2281,4.2216,4.2119,4.1236,4.0666,4.1142,4.1305,4.136,4.1429,4.1566,4.1085,3.9684,4.0019,4.0117,3.9414,3.8965,3.8574,3.8223,3.75,3.709,3.709,3.6406,3.5918,3.5684,3.5137,3.4531,3.3848,3.3848,3.375,3.3555,3.3555,3.3516,3.3418,3.3516,3.3555,3.3555,3.3457,3.3418,3.3418,3.3418,3.3418,3.3418,3.3418,3.3418,3.3418,3.3418,3.3418,3.3418,3.3418,3.3203,3.293,3.293,3.293,3.293,3.293,3.3164,3.3418,3.3418,3.3418,3.3418,3.3418,3.3418,3.3418,3.3418,3.3691,3.3828,3.3496,3.3691,3.3828,3.3496,3.3418,3.3418,3.3418,3.3418,3.3418,3.3418,3.3066,3.2637,3.2226,3.1797,3.1367,3.0937,3.084,3.0762,3.0762,3.0509,3.0274,3.0274,2.9981,2.9648,2.9378,2.9024,2.8663,2.826,2.8572,2.8718,2.8718,2.881,2.881,2.8718,2.8498,2.8297,2.524,2.6903,0.0,3.3775,0.0,4.1334,4.1655,4.2191,4.2601,4.2429,4.2688,4.2718,4.1861,4.1641,4.1542,4.1336,4.117,4.1012,4.1015,4.1068,4.0713,3.9593,3.9928,3.9775,3.8672,3.8203,3.7793,3.7363,3.6719,3.6445,3.666,3.5859,3.5391,3.5391,3.4746,3.418,3.373,3.373,3.3633,3.3418,3.3418,3.332,3.3125,3.332,3.3418,3.3418,3.3418,3.3418,3.3418,3.3418,3.3418,3.3418,3.3418,3.3418,3.3418,3.3418,3.3418,3.3418,3.3418,3.3144,3.2793,3.2793,3.2656,3.2539,3.2734,3.2949,3.3164,3.3359,3.3418,3.3418,3.3418,3.3418,3.3418,3.3418,3.3594,3.3691,3.3476,3.3594,3.3691,3.3457,3.3418,3.3418,3.3418,3.3418,3.3418,3.3418,3.3242,3.2871,3.2307,3.1973,3.1582,3.0957,3.0898,3.0898,3.0898,3.0762,3.0645,3.0645,3.0333,3.0098,2.9922,2.9627,2.9297,2.8917,2.9102,2.9272,2.945,2.9272,2.9213,2.9213,2.8891,2.8572,2.4789,2.6951,3.0303,3.4972,3.8819,0.0,4.1358,4.152,4.1776,4.2596,4.296,4.2782,4.1457,4.1656,4.1772,4.1007,4.0525,4.0289,4.0208,4.0153,3.9971,3.9394,3.9374,3.8932,3.7773,3.7324,3.6934,3.6582,3.6152,3.6035,3.6309,3.5293,3.4844,3.5156,3.4453,3.4004,3.3848,3.3848,3.3633,3.3203,3.3203,3.3027,3.2695,3.3047,3.3203,3.3203,3.3281,3.332,3.3301,3.3242,3.3242,3.3301,3.3242,3.3203,3.3223,3.3281,3.3262,3.3223,3.3281,3.2988,3.2578,3.2578,3.2344,3.2129,3.2559,3.2734,3.2871,3.3301,3.3418,3.3418,3.3418,3.3418,3.3418,3.3418,3.3418,3.3418,3.3418,3.3418,3.3418,3.3418,3.3418,3.3418,3.3418,3.3418,3.3418,3.3418,3.3359,3.3027,3.2266,3.2109,3.1758,3.0976,3.0898,3.0898,3.0898,3.0898,3.0898,3.0898,3.0645,3.045,3.0392,3.0157,2.9863,2.9686,2.9627,2.9686,2.9922,2.9686,2.9568,2.9509,2.9213,2.8869,2.4977,0.0,3.2874,0.0,3.736,4.037,0.0,0.0,4.1187,0.0,4.1563,4.1477,4.2051,4.1565,4.1027,4.0903,4.0525,4.0187,3.9779,3.9425,3.8757,3.7649,3.757,3.7391,3.6925,3.6445,3.6172,3.6113,3.5723,3.5332,3.498,3.4805,3.457,3.4258,3.4141,3.3711,3.2969,3.2969,3.2754,3.2344,3.2344,3.2305,3.2246,3.2305,3.2344,3.2363,3.2715,3.2871,3.2851,3.248,3.2559,3.2851,3.248,3.2344,3.2383,3.2734,3.2656,3.2383,3.2754,3.2363,3.168,3.168,3.166,3.168,3.2129,3.25,3.2871,3.3301,3.3418,3.3418,3.3418,3.3418,3.3418,3.3418,3.3418,3.3418,3.3418,3.3418,3.3418,3.3418,3.3418,3.3418,3.3418,3.3418,3.3418,3.3418,3.3105,3.2715,3.2226,3.1836,3.1426,3.0937,3.0898,3.0898,3.0898,3.0898,3.0898,3.0898,3.084,3.0704,3.0392,3.0333,3.0333,3.0274,2.9981,2.9863,2.9922,2.9863,2.9745,2.9509,2.945,2.9235,2.5595,2.8376,3.1523,0.0,3.5861,3.8049,3.9161,3.9131,3.9192,4.0269,3.9982,3.9757,4.0584,4.082,4.0551,3.9537,3.9302,3.9093,3.8849,3.8445,3.8029,3.7509,3.7245,3.6773,3.5941,3.5524,3.5176,3.4941,3.4746,3.457,3.4355,3.4121,3.3789,3.3359,3.3125,3.2832,3.2441,3.2207,3.1992,3.1797,3.1797,3.1797,3.1797,3.1797,3.1934,3.2187,3.2363,3.2441,3.2422,3.2246,3.2285,3.2422,3.2246,3.2229,3.2187,3.2383,3.2324,3.2268,3.2383,3.2031,3.1523,3.1523,3.1367,3.1289,3.1973,3.2305,3.2578,3.3242,3.3418,3.3418,3.3418,3.3418,3.3418,3.3418,3.3418,3.3418,3.3418,3.3418,3.3418,3.3418,3.3418,3.3418,3.3418,3.3418,3.3418,3.3418,3.3262,3.2988,3.2578,3.2344,3.207,3.166,3.1601,3.1601,3.1601,3.1601,3.1504,3.125,3.125,3.1074,3.0704,3.0704,3.0704,3.0704,3.0333,3.0274,3.047,3.0274,3.0098,2.9981,2.9804,2.9568,0.0,0.0,2.9527,3.1957,3.3835,3.5525,0.0,0.0,3.7277,0.0,3.8685,3.837,3.8765,3.9765,3.9992,3.8295,3.8109,3.8077,3.779,3.7386,3.7039,3.6973,3.674,3.6128,3.5176,3.4792,3.4544,3.4166,3.416,3.4082,3.3769,3.3535,3.3184,3.2656,3.2344,3.2109,3.2012,3.1582,3.1367,3.1367,3.1367,3.1367,3.1367,3.1367,3.1543,3.1855,3.1953,3.2012,3.1992,3.1894,3.1914,3.1992,3.1875,3.1836,3.1855,3.1953,3.1934,3.1855,3.1973,3.1719,3.1367,3.1367,3.1152,3.1035,3.1777,3.209,3.2324,3.3066,3.334,3.3418,3.3418,3.3418,3.3418,3.3418,3.3418,3.3418,3.3418,3.3418,3.3418,3.3418,3.3418,3.3418,3.3418,3.3418,3.3418,3.3418,3.3418,3.3262,3.2851,3.2793,3.2637,3.2207,3.2229,3.2229,3.2229,3.2229,3.1992,3.1543,3.1523,3.1367,3.1055,3.1055,3.1055,3.1055,3.08,3.0742,3.0898,3.0645,3.045,3.0392,3.0157,2.9863,0.0,2.6072,0.0,2.8545,3.0987,3.3498,0.0,0.0,3.6264,3.7554,3.8053,3.7964,3.7094,3.8398,3.9144,3.7757,3.7657,3.7437,3.6538,3.5983,3.557,3.5251,3.5078,3.4893,3.464,3.4616,3.4487,3.4146,3.4434,3.4141,3.293,3.3223,3.3047,3.2287,3.2187,3.1973,3.1562,3.1133,3.0918,3.0918,3.0918,3.0918,3.0918,3.0918,3.0937,3.0976,3.1367,3.1562,3.1523,3.1113,3.1191,3.1504,3.1113,3.0957,3.0996,3.1406,3.1289,3.1016,3.1406,3.1269,3.0918,3.0918,3.0918,3.0976,3.1426,3.1836,3.2266,3.2695,3.3105,3.3418,3.3418,3.3418,3.3418,3.3418,3.3418,3.3418,3.3418,3.3418,3.3418,3.3418,3.3418,3.3418,3.3418,3.3418,3.3418,3.3418,3.3418,3.3262,3.2851,3.2793,3.2637,3.2207,3.2229,3.2229,3.2229,3.2229,3.1992,3.1543,3.1523,3.1504,3.1484,3.1484,3.1484,3.1484,3.1425,3.1289,3.0898,3.0898,3.0704,3.0392,3.0392,3.0216,0.0,0.0,0.0,2.7462,2.8733,3.0103,3.1734,3.2376,3.2972,3.4124,3.4897,3.5289,3.5108,3.6784,3.7777,3.639,3.6428,3.628,3.5168,3.5026,3.4821,3.4228,3.4106,3.4065,3.3983,3.3758,3.3512,3.3142,3.328,3.292,3.2012,3.2109,3.1934,3.1367,3.1348,3.1269,3.1113,3.0957,3.0898,3.0898,3.0898,3.0898,3.0898,3.0898,3.0898,3.0898,3.1055,3.1113,3.1094,3.0957,3.0976,3.1094,3.0957,3.0898,3.0918,3.1055,3.1016,3.0918,3.1055,3.1016,3.0898,3.0898,3.0898,3.0976,3.1387,3.1816,3.2246,3.2676,3.3105,3.3418,3.3418,3.3418,3.3418,3.3418,3.3418,3.3418,3.3418,3.3418,3.3418,3.3418,3.3418,3.3418,3.3418,3.3418,3.3418,3.3418,3.3418,3.3359,3.3223,3.3203,3.3144,3.2988,3.2969,3.2969,3.2969,3.2969,3.2793,3.2363,3.2344,3.2226,3.1953,3.1934,3.1934,3.1934,3.1934,3.1582,3.0898,3.0898,3.082,3.0704,3.0704,3.0528,2.4762,0.0,0.0,0.0,2.7262,2.7643,2.9809,0.0,3.0379,3.1654,3.253,3.3131,3.3461,3.4922,3.5852,3.5086,3.5232,3.5149,3.4207,3.4165,3.4042,3.3496,3.3535,3.3595,3.3455,3.3335,3.3095,3.2794,3.2754,0.0,3.1821,3.1682,3.1505,3.1073,3.1054,3.1054,3.1054,3.117,3.117,3.1054,3.1054,3.1054,3.1054,3.0937,3.0898,3.0898,3.0898,3.0898,3.0898,3.0898,3.0898,3.0898,3.0898,3.0898,3.0898,3.0898,3.0898,3.0898,3.0898,3.0898,3.0898,3.0898,3.0898,3.0937,3.123,3.1601,3.2031,3.2461,3.2891,3.3242,3.3379,3.3418,3.3418,3.3418,3.3418,3.3418,3.3418,3.3418,3.3418,3.3418,3.3418,3.3418,3.3418,3.3418,3.3418,3.3418,3.3418,3.3418,3.3418,3.3418,3.3418,3.3418,3.3418,3.3418,3.3418,3.3418,3.3242,3.2832,3.2793,3.2676,3.2383,3.2383,3.2383,3.2383,3.2383,3.1953,3.1094,3.1094,3.1035,3.0898,3.0898,3.0762,0.0,0.0,0.0,0.0,0.0,0.0,2.8648,0.0,2.8595,3.025,3.1079,3.1636,3.2142,3.2823,3.343,3.3906,3.4163,3.4145,3.3636,3.3335,3.3075,3.3075,3.3375,3.3435,3.3135,3.3375,3.3435,3.3135,3.3075,3.2874,3.2372,3.2136,3.1781,3.1344,3.1325,3.1325,3.1325,3.1594,3.1594,3.1325,3.1305,3.1305,3.1267,3.1054,3.0898,3.0898,3.0937,3.0898,3.0898,3.0898,3.0898,3.0898,3.0898,3.0898,3.0898,3.0898,3.0898,3.0898,3.0898,3.0898,3.0898,3.0898,3.0898,3.0898,3.0898,3.1191,3.1621,3.207,3.248,3.2891,3.332,3.3418,3.3418,3.3418,3.3418,3.3418,3.3418,3.3418,3.3418,3.3418,3.3418,3.3418,3.3418,3.3418,3.3418,3.3418,3.3418,3.3418,3.3418,3.3418,3.3418,3.3418,3.3418,3.3418,3.3418,3.3418,3.3242,3.2832,3.2812,3.2812,3.2812,3.2812,3.2812,3.2812,3.2812,3.2402,3.1562,3.1543,3.1309,3.0898,3.0898,3.0898,2.5505,0.0,0.0,0.0,0.0,0.0,0.0,0.0,0.0,2.7728,2.8488,2.9333,3.0173,3.0499,3.0956,3.1981,3.3269,3.3914,3.3225,3.3223,3.31,3.2598,3.2752,3.2926,3.281,3.2868,3.281,0.0,3.2499,3.2342,3.1968,3.191,3.1792,3.1672,3.1672,3.1672,3.1672,3.1408,3.1408,3.1672,3.1351,3.1179,3.1325,3.1441,3.1402,3.1208,3.146,3.1383,3.115,3.0995,3.0898,3.0898,3.0898,3.0898,3.0898,3.0898,3.0898,3.0898,3.0898,3.0898,3.0898,3.0898,3.0898,3.0937,3.125,3.1426,3.168,3.2422,3.2695,3.2891,3.332,3.3418,3.3418,3.3418,3.3418,3.3418,3.3418,3.3418,3.3418,3.3418,3.3418,3.3418,3.3418,3.3418,3.3418,3.3418,3.3418,3.3418,3.3418,3.3418,3.3418,3.3418,3.3418,3.3418,3.3418,3.3418,3.3379,3.3262,3.3242,3.3242,3.3242,3.3242,3.3242,3.3242,3.3242,3.2988,3.2441,3.2148,3.1601,3.0898,3.0898,3.0898,0.0,0.0,0.0,0.0,0.0,0.0,2.5401,2.5453,0.0,0.0,2.6557,2.7252,2.7995,2.837,2.8941,2.994,3.1038,3.1969,3.2461,3.2416,3.2189,3.1774,3.1866,3.1922,3.1922,3.2112,3.2112,3.1922,3.1922,3.181,3.1451,3.1633,3.1653,3.1414,3.1394,3.1394,3.1394,3.1263,3.1263,3.1394,3.1313,3.1378,3.1449,3.1707,3.1672,3.1498,3.173,3.1672,3.1498,3.1344,3.1112,3.0898,3.0898,3.0898,3.0898,3.0898,3.0898,3.0898,3.0898,3.0996,3.1133,3.0937,3.1016,3.1191,3.1445,3.1406,3.1465,3.25,3.293,3.3105,3.3359,3.3418,3.3418,3.3418,3.3418,3.3418,3.3418,3.3418,3.3418,3.3418,3.3418,3.3418,3.3418,3.3418,3.3418,3.3418,3.3418,3.3418,3.3418,3.3418,3.3418,3.3418,3.3418,3.3418,3.3418,3.3418,3.3418,3.3418,3.3418,3.3418,3.3418,3.3418,3.3418,3.3418,3.3418,3.3301,3.3066,3.2637,3.1992,3.1152,3.0976,3.0898,2.642,2.6139,0.0,0.0,0.0,0.0,2.6094,2.5341,2.4531,0.0,2.5196,2.5436,2.5873,2.6512,2.7178,2.7982,2.831,2.9184,3.1436,3.1168,3.0792,3.0792,3.0792,3.0813,3.0874,3.1168,3.1319,3.1381,3.1381,3.1251,3.0956,3.1344,3.1365,3.0956,3.0956,3.0956,3.0956,3.121,3.121,3.0956,3.1303,3.1508,3.1513,3.1694,3.1761,3.1704,3.1802,3.1822,3.1785,3.1825,3.1518,3.0995,3.0995,3.1015,3.0937,3.0937,3.0957,3.0898,3.0898,3.1133,3.1387,3.1016,3.1133,3.1445,3.1504,3.125,3.1211,3.2441,3.3066,3.3359,3.3418,3.3418,3.3418,3.3418,3.3418,3.3418,3.3418,3.3418,3.3418,3.3418,3.3418,3.3418,3.3418,3.3418,3.3418,3.3418,3.3418,3.3418,3.3418,3.3418,3.3418,3.3418,3.3418,3.3418,3.3418,3.3418,3.3418,3.3418,3.3418,3.3418,3.3418,3.3418,3.3418,3.3418,3.3418,3.3418,3.3418,3.291,3.2285,3.1582,3.1113,3.0898,2.6044,0.0,0.0,0.0,0.0,0.0,2.5765,2.5191,2.4684,0.0,2.4323,2.4317,2.4934,2.5166,2.5625,2.6762,2.711,2.7979,3.0086,3.0093,2.9925,3.0158,3.021,3.0302,3.0727,3.0822,3.0967,3.136,3.1381,3.1381,3.1306,3.1409,3.1409,3.1306,3.1306,3.1306,3.1306,3.1008,3.1008,3.1306,3.1016,3.0915,3.1023,3.1367,3.1353,3.1111,3.1722,3.183,3.1681,3.2048,3.196,3.1614,3.1614,3.1441,3.1208,3.1208,3.1112,3.0898,3.0898,3.0937,3.0996,3.0918,3.0937,3.1074,3.1406,3.1465,3.1582,3.2519,3.2851,3.2988,3.334,3.3418,3.3418,3.3418,3.3418,3.3418,3.3418,3.3418,3.3418,3.3418,3.3418,3.3418,3.3418,3.3418,3.3418,3.3418,3.3418,3.3418,3.3418,3.3418,3.3418,3.3418,3.3418,3.3418,3.3418,3.3418,3.3418,3.3418,3.3418,3.3418,3.3418,3.3418,3.3418,3.3418,3.3418,3.3418,3.3418,3.2305,3.1855,3.2012,3.125,3.0898,2.6458,0.0,0.0,2.6893,0.0,0.0,0.0,2.5417,2.4742,2.4524,2.4083,2.389,2.4242,0.0,2.4636,2.5574,2.5721,2.6221,2.7731,2.8425,2.8807,2.8959,2.8858,2.891,2.9137,2.9363,2.959,2.9973,3.0429,3.0594,3.0346,3.0781,3.0926,3.0698,3.0677,3.0677,3.0677,3.047,3.047,3.0677,3.0677,3.0748,3.0792,3.1202,3.1306,3.1162,3.1725,3.1932,3.184,3.2313,3.2383,3.2211,3.1903,3.1672,3.1556,3.1383,3.1208,3.1112,3.0957,3.1035,3.1172,3.0957,3.1035,3.125,3.1445,3.168,3.1934,3.2363,3.2637,3.2851,3.3066,3.3262,3.3418,3.3418,3.3418,3.3418,3.3418,3.3418,3.3418,3.3418,3.3418,3.3418,3.3418,3.3418,3.3418,3.3418,3.3418,3.3418,3.3418,3.3418,3.3418,3.3418,3.3418,3.3418,3.3418,3.3418,3.3418,3.3418,3.3418,3.3418,3.3418,3.3418,3.3418,3.3418,3.3418,3.3418,3.3418,3.2363,3.1953,3.2209,3.1289,3.0996,0.0,0.0,0.0,0.0,0.0,2.6705,0.0,0.0,0.0,2.4756,2.4299,0.0,0.0,0.0,0.0,0.0,0.0,0.0,0.0,2.661,0.0,2.751,2.7387,2.7331,2.7413,2.7774,2.814,2.8359,2.9125,2.9435,2.9063,2.9911,3.0243,2.987,2.9953,2.9994,2.9994,2.9994,2.9994,2.9994,3.0367,3.0553,3.0574,3.0946,3.1112,3.1153,3.1671,3.1864,3.1961,3.2442,3.2669,3.2669,3.2133,3.196,3.1845,3.1614,3.1441,3.1383,3.1054,3.1231,3.1505,3.1113,3.1172,3.1465,3.1544,3.1759,3.1953,3.2129,3.2422,3.2695,3.2773,3.3105,3.3418,3.3418,3.3418,3.3418,3.3418,3.3418,3.3418,3.3418,3.3418,3.3418,3.3418,3.3418,3.3418,3.3418,3.3418,3.3418,3.3418,3.3418,3.3418,3.3418,3.3418,3.3418,3.3418,3.3418,3.3418,3.3418,3.3418,3.3418,3.3418,3.3418,3.3418,3.3418,3.3418,3.3418,3.3418,3.2656,3.2285,3.2266,3.1406,3.1348,0.0,0.0,0.0,0.0,2.814,0.0,0.0,0.0,2.6119,2.5491,0.0,0.0,0.0,0.0,0.0,0.0,0.0,0.0,2.4674,2.4995,2.5464,2.6061,2.6103,2.6268,2.6682,2.7138,2.7407,2.7455,2.7883,2.8131,2.809,2.8959,2.9435,2.9394,2.9787,2.9994,2.9994,2.9994,2.9994,2.9994,3.0036,3.0077,3.0077,3.0118,3.016,3.0201,3.1071,3.1443,3.1526,3.2375,3.2669,3.2669,3.2612,3.244,3.2248,3.219,3.2018,3.1672,3.1383,3.148,3.1694,3.1344,3.1306,3.1425,3.1821,3.1525,3.1191,3.1953,3.2207,3.2324,3.2695,3.3105,3.3418,3.3418,3.3418,3.3418,3.3418,3.3418,3.3418,3.3418,3.3418,3.3418,3.3418,3.3418,3.3418,3.3418,3.3418,3.3418,3.3418,3.3418,3.3418,3.3418,3.3418,3.3418,3.3418,3.3418,3.3418,3.3418,3.3418,3.3418,3.3418,3.3418,3.3418,3.3418,3.3418,3.3418,3.3418,3.2949,3.2734,3.2695,3.1836,3.2316,0.0,0.0,0.0,0.0,0.0,0.0,2.7549,0.0,2.629,0.0,0.0,0.0,0.0,0.0,0.0,0.0,2.4533,0.0,0.0,0.0,2.4655,0.0,0.0,0.0,2.5915,2.6121,2.6336,2.6455,2.7138,2.7531,2.7531,2.84,2.9021,2.929,2.9497,2.9725,2.9994,2.9994,2.9994,2.9994,2.9994,2.9994,2.9994,2.9994,2.9994,3.0036,3.0698,3.0967,3.105,3.1961,3.2277,3.2297,3.2566,3.2612,3.2498,3.2363,3.219,3.2018,3.173,3.1672,3.1787,3.1614,3.1614,3.1636,3.1919,3.1564,3.1289,3.1994,3.2229,3.2266,3.2695,3.3105,3.3418,3.3418,3.3418,3.3418,3.3418,3.3418,3.3418,3.3418,3.3418,3.3418,3.3418,3.3418,3.3418,3.3418,3.3418,3.3418,3.3418,3.3418,3.3418,3.3418,3.3418,3.3418,3.3418,3.3418,3.3418,3.3418,3.3418,3.3418,3.3418,3.4153,3.4215,3.3418,3.4153,3.4153,3.3418,3.3008,3.293,3.3144,3.3055,3.3513,3.0449,0.0,0.0,0.0,0.0,0.0,0.0,0.0,0.0,0.0,0.0,0.0,0.0,0.0,0.0,0.0,0.0,2.4436,0.0,0.0,0.0,0.0,0.0,0.0,0.0,2.5166,2.53,2.5434,2.6248,2.6791,2.6915,2.7759,2.8462,2.8918,2.9166,2.9456,2.9808,2.9932,2.9994,2.9994,2.9994,2.9994,2.9994,2.9994,2.9994,3.0015,3.0491,3.0677,3.076,3.1671,3.1988,3.2029,3.2483,3.2669,3.2669,3.2498,3.244,3.2363,3.2076,3.1984,3.2142,3.22,3.2281,3.2307,3.2273,3.1937,3.17,3.2056,3.2191,3.2387,3.2676,3.3105,3.3418,3.3418,3.3418,3.3418,3.3418,3.3418,3.3418,3.3418,3.3418,3.3418,3.3418,3.3418,3.3418,3.3418,3.3418,3.3418,3.3418,3.3418,3.3418,3.3418,3.3418,3.3418,3.3418,3.3418,3.3418,3.3418,3.3733,3.3796,3.3418,3.5005,3.5314,3.3965,3.5253,3.5253,3.3965,3.3667,3.348,3.3398,3.3618,3.4324,0.0,0.0,0.0,3.0744,0.0,0.0,0.0,0.0,2.8909,0.0,0.0,0.0,0.0,0.0,0.0,0.0,0.0,0.0,0.0,0.0,0.0,0.0,0.0,0.0,0.0,2.442,2.4463,0.0,2.4895,2.5482,2.5896,2.6853,2.751,2.7945,2.8835,2.9311,2.9332,2.9766,2.9994,2.9994,2.9994,2.9994,2.9994,2.9994,2.9994,3.0015,3.0491,3.0677,3.076,3.1671,3.1988,3.2029,3.2483,3.2669,3.2669,3.2669,3.2669,3.2669,3.2363,3.2534,3.2939,3.3231,3.3423,3.3472,3.3044,3.2666,3.2392,3.2117,3.2316,3.2611,3.2737,3.3105,3.3418,3.3418,3.3418,3.3418,3.3418,3.3418,3.3418,3.3418,3.3418,3.3418,3.3418,3.3418,3.3418,3.3418,3.3418,3.3418,3.3418,3.3418,3.3418,3.3418,3.3418,3.3418,3.3418,3.3418,3.3418,3.3418,3.4652,3.4757,3.3418,3.5848,3.6642,3.5376,3.6581,3.6642,3.5314,3.5294,3.4632,3.3418,3.3031,3.4432,0.0,0.0,3.1946,3.1644,0.0,0.0,0.0,0.0,0.0,0.0,0.0,0.0,0.0,0.0,0.0,0.0,0.0,0.0,0.0,0.0,0.0,0.0,0.0,0.0,0.0,0.0,0.0,0.0,2.4877,0.0,2.5854,2.6521,2.7138,2.7903,2.8235,2.869,2.929,2.9456,2.9684,2.9994,2.9994,2.9994,2.9994,2.9994,2.9994,2.9994,3.016,3.0222,3.0305,3.1215,3.1609,3.1671,3.2437,3.2669,3.2669,3.2669,3.2669,3.2669,3.2612,3.2658,3.2823,3.3285,3.3413,3.3399,3.3021,3.2863,3.2747,3.2754,3.2695,3.2731,3.3401,3.3446,3.3418,3.3418,3.3418,3.3418,3.3418,3.3418,3.3418,3.3418,3.3418,3.3418,3.3418,3.3418,3.3418,3.3418,3.3418,3.3418,3.3418,3.3418,3.3418,3.3418,3.3418,3.3418,3.3418,3.3418,3.3796,3.4652,3.5129,3.5561,3.5971,3.7648,3.797,3.6703,3.791,3.791,3.6642,3.6642,3.5971,3.4694,3.4552,3.5538,3.3276,3.2986,0.0,3.2664,3.2105,0.0,3.0465,0.0,3.0325,0.0,0.0,0.0,0.0,0.0,0.0,0.0,0.0,0.0,0.0,2.4507,0.0,0.0,0.0,0.0,0.0,0.0,2.4464,2.4421,2.4732,0.0,0.0,2.621,2.6744,2.7655,2.7841,2.8297,2.9042,2.9228,2.9539,2.9994,2.9994,2.9994,2.9994,2.9994,2.9994,2.9994,2.9994,2.9994,3.0056,3.0822,3.1236,3.1443,3.2188,3.2525,3.2669,3.2669,3.2669,3.2669,3.2669,3.283,3.3037,3.3472,3.3741,3.3865,3.3628,3.3446,3.3325,3.3254,3.3115,3.3095,3.3567,3.3615,3.3544,3.3418,3.3418,3.3418,3.3418,3.3418,3.3418,3.3418,3.3418,3.3418,3.3418,3.3418,3.3418,3.3418,3.3418,3.3418,3.3418,3.3418,3.3418,3.3418,3.3418,3.3418,3.3418,3.3418,3.3965,3.5314,3.5807,3.646,3.7309,3.898,3.9459,3.8519,3.9643,3.9643,3.8541,3.8363,3.7522,3.6093,3.6093,3.6764]}]]